[[{"header":{"parameterUnit":"m.s-1","parameterCategory":1,"la1":31.0,"la2":29.5877,"lo1":-88.7671,"lo2":-86.6584,"dy":0.0162,"dx":0.0185,"nx":115,"ny":88,"refTime":"2024-03-01T06:00:00:Z","depth":0,"parameterNumber":2,"parameterNumberName":"U-component_of_WINDS"},"data":[0.0,0.0,0.0,0.0,0.0,0.0,0.0,0.0,0.0,0.0,0.0,0.0,0.0,0.0,0.0,0.0,0.0,0.0,0.0,0.0,0.0,0.0,0.0,0.0,0.0,0.0,0.0,0.0,0.0,0.0,0.0,0.0,0.0,0.0,0.0,0.0,0.0,0.0,0.0,0.0,0.0,0.0,0.0,0.0,0.0,0.0,0.0,0.0,0.0,0.0,0.0,0.0,0.0,0.0,0.0,0.0,0.0,0.0,0.0,0.0,0.0,0.0,0.0,0.0,0.0,0.0,0.0,0.0,0.0,0.0,0.0,0.0,0.0,0.0,0.0,0.0,0.0,0.0,0.0,0.0,0.0,0.0,0.0,0.0,0.0,0.0,0.0,0.0,0.0,0.0,0.0,0.0,0.0,0.0,0.0,0.0,0.0,0.0,0.0,0.0,0.0,0.0,0.0,0.0,0.0,0.0,0.0,0.0,0.0,0.0,0.0,0.0,0.0,0.0,0.0,0.0,0.0,0.0,0.0,0.0,0.0,0.0,0.0,0.0,0.0,0.0,0.0,0.0,0.0,0.0,0.0,0.0,0.0,0.0,0.0,0.0,0.0,0.0,0.0,0.0,0.0,0.0,0.0,0.0,0.0,0.0,0.0,0.0,0.0,0.0,0.0,0.0,0.0,0.0,0.0,0.0,0.0,0.0,0.0,0.0,0.0,0.0,0.0,0.0,0.0,0.0,0.0,0.0,0.0,0.0,0.0,0.0,0.0,0.0,0.0,0.0,0.0,0.0,0.0,0.0,0.0,0.0,0.0,0.0,0.0,0.0,0.0,0.0,0.0,0.0,0.0,0.0,0.0,0.0,0.0,0.0,0.0,0.0,0.0,0.0,0.0,0.0,0.0,0.0,0.0,0.0,0.0,0.0,0.0,0.0,0.0,0.0,0.0,0.0,0.0,0.0,0.0,0.0,0.0,0.0,0.0,0.0,0.0,0.0,0.0,0.0,0.0,0.0,0.0,0.0,0.0,0.0,0.0,0.0,0.0,0.0,0.0,0.0,0.0,0.0,0.0,0.0,0.0,0.0,0.0,0.0,0.0,0.0,0.0,0.0,0.0,0.0,0.0,0.0,0.0,0.0,0.0,0.0,0.0,0.0,0.0,0.0,0.0,0.0,0.0,0.0,0.0,0.0,0.0,0.0,0.0,0.0,0.0,0.0,0.0,0.0,0.0,0.0,0.0,0.0,0.0,0.0,0.0,0.0,0.0,0.0,0.0,0.0,0.0,0.0,0.0,0.0,0.0,0.0,0.0,0.0,0.0,0.0,0.0,0.0,0.0,0.0,0.0,0.0,0.0,0.0,0.0,0.0,0.0,0.0,0.0,0.0,0.0,0.0,0.0,0.0,0.0,0.0,0.0,0.0,0.0,0.0,0.0,0.0,0.0,0.0,0.0,0.0,0.0,0.0,0.0,0.0,0.0,0.0,0.0,0.0,0.0,0.0,0.0,0.0,0.0,0.0,0.0,0.0,0.0,0.0,0.0,0.0,0.0,0.0,0.0,0.0,0.0,0.0,0.0,0.0,0.0,0.0,0.0,0.0,0.0,0.0,0.0,0.0,0.0,0.0,0.0,0.0,0.0,0.0,0.0,0.0,0.0,0.0,0.0,0.0,0.0,0.0,0.0,0.0,0.0,0.0,0.0,0.0,0.0,0.0,0.0,0.0,0.0,0.0,0.0,0.0,0.0,0.0,0.0,0.0,0.0,0.0,0.0,0.0,0.0,0.0,0.0,0.0,0.0,0.0,0.0,0.0,0.0,0.0,0.0,0.0,0.0,0.0,0.0,0.0,0.0,0.0,0.0,0.0,0.0,0.0,0.0,0.0,0.0,0.0,0.0,0.0,0.0,0.0,0.0,0.0,0.0,0.0,0.0,0.0,0.0,0.0,0.0,0.0,0.0,0.0,0.0,0.0,0.0,0.0,0.0,0.0,0.0,0.0,0.0,0.0,0.0,0.0,0.0,0.0,0.0,0.0,0.0,0.0,0.0,0.0,0.0,0.0,0.0,0.0,0.0,0.0,0.0,0.0,0.0,0.0,0.0,0.0,0.0,0.0,0.0,0.0,0.0,0.0,0.0,0.0,0.0,0.0,0.0,0.0,0.0,0.0,0.0,0.0,0.0,0.0,0.0,0.0,0.0,0.0,0.0,0.0,0.0,0.0,0.0,0.0,0.0,0.0,0.0,0.0,0.0,0.0,0.0,0.0,0.0,0.0,0.0,0.0,0.0,0.0,0.0,0.0,0.0,0.0,0.0,0.0,0.0,0.0,0.0,0.0,0.0,0.0,0.0,0.0,0.0,0.0,0.0,0.0,0.0,0.0,0.0,0.0,0.0,0.0,0.0,0.0,0.0,0.0,0.0,0.0,0.0,0.0,0.0,0.0,0.0,0.0,0.0,0.0,0.0,0.0,0.0,0.0,0.0,0.0,0.0,0.0,0.0,0.0,0.0,0.0,0.0,0.0,0.0,0.0,0.0,0.0,0.0,0.0,0.0,0.0,0.0,0.0,0.0,0.0,0.0,0.0,0.0,0.0,0.0,0.0,0.0,0.0,0.0,0.0,0.0,0.0,0.0,0.0,0.0,0.0,0.0,0.0,0.0,0.0,0.0,0.0,0.0,0.0,0.0,0.0,0.0,0.0,0.0,0.0,0.0,0.0,0.0,0.0,0.0,0.0,0.0,0.0,0.0,0.0,0.0,0.0,0.0,0.0,0.0,0.0,0.0,0.0,0.0,0.0,0.0,0.0,0.0,0.0,0.0,0.0,0.0,0.0,0.0,0.0,0.0,0.0,0.0,0.0,0.0,0.0,0.0,0.0,0.0,0.0,0.0,0.0,0.0,0.0,0.0,0.0,0.0,0.0,0.0,0.0,0.0,0.0,0.0,0.0,0.0,0.0,0.0,0.0,0.0,0.0,0.0,0.0,0.0,0.0,0.0,0.0,0.0,0.0,0.0,0.0,0.0,0.0,0.0,0.0,0.0,0.0,0.0,0.0,0.0,0.0,0.0,0.0,0.0,0.0,0.0,0.0,0.0,0.0,0.0,0.0,0.0,0.0,0.0,0.0,0.0,0.0,0.0,0.0,0.0,0.0,0.0,0.0,0.0,0.0,0.0,0.0,0.0,0.0,0.0,0.0,0.0,0.0,0.0,0.0,0.0,0.0,0.0,0.0,0.0,0.0,0.0,0.0,0.0,0.0,0.0,0.0,0.0,0.0,0.0,0.0,0.0,0.0,0.0,0.0,0.0,0.0,0.0,0.0,0.0,0.0,0.0,0.0,0.0,0.0,0.0,0.0,0.0,0.0,0.0,0.0,0.0,0.0,0.0,0.0,0.0,0.0,0.0,0.0,0.0,0.0,0.0,0.0,0.0,0.0,0.0,0.0,0.0,0.0,0.0,0.0,0.0,0.0,0.0,0.0,0.0,0.0,0.0,0.0,0.0,0.0,0.0,0.0,0.0,0.0,0.0,0.0,0.0,0.0,0.0,0.0,0.0,0.0,0.0,0.0,0.0,0.0,0.0,0.0,0.0,0.0,0.0,0.0,0.0,0.0,0.0,0.0,0.0,0.0,0.0,0.0,0.0,0.0,0.0,0.0,0.0,0.0,0.0,0.0,0.0,0.0,0.0,0.0,0.0,0.0,0.0,0.0,0.0,0.0,0.0,0.0,0.0,0.0,0.0,0.0,0.0,0.0,0.0,0.0,0.0,0.0,0.0,0.0,0.0,0.0,0.0,0.0,0.0,0.0,0.0,0.0,0.0,0.0,0.0,0.0,0.0,0.0,0.0,0.0,0.0,0.0,0.0,0.0,0.0,0.0,0.0,0.0,0.0,0.0,0.0,0.0,0.0,0.0,0.0,0.0,0.0,0.0,0.0,0.0,0.0,0.0,0.0,0.0,0.0,0.0,0.0,0.0,0.0,0.0,0.0,0.0,0.0,0.0,0.0,0.0,0.0,0.0,0.0,0.0,0.0,0.0,0.0,0.0,0.0,0.0,0.0,0.0,0.0,0.0,0.0,0.0,0.0,0.0,0.0,0.0,0.0,0.0,0.0,0.0,0.0,0.0,0.0,0.0,0.0,0.0,0.0,0.0,0.0,0.0,0.0,0.0,0.0,0.0,0.0,0.0,0.0,0.0,0.0,0.0,0.0,0.0,0.0,0.0,0.0,0.0,0.0,0.0,0.0,0.0,0.0,0.0,0.0,0.0,0.0,0.0,0.0,0.0,-3.2879,0.0,0.0,0.0,0.0,0.0,0.0,0.0,0.0,0.0,0.0,0.0,0.0,0.0,0.0,0.0,0.0,0.0,0.0,0.0,0.0,0.0,0.0,0.0,0.0,0.0,0.0,0.0,0.0,0.0,0.0,0.0,0.0,0.0,0.0,0.0,0.0,0.0,0.0,0.0,0.0,0.0,0.0,0.0,0.0,0.0,0.0,0.0,0.0,0.0,0.0,0.0,0.0,0.0,0.0,0.0,0.0,0.0,0.0,0.0,0.0,0.0,0.0,0.0,0.0,0.0,0.0,0.0,0.0,0.0,0.0,0.0,0.0,0.0,0.0,0.0,0.0,0.0,0.0,0.0,0.0,0.0,0.0,0.0,0.0,0.0,0.0,0.0,0.0,0.0,0.0,0.0,0.0,0.0,0.0,0.0,0.0,0.0,0.0,0.0,0.0,0.0,0.0,0.0,0.0,0.0,0.0,0.0,0.0,0.0,0.0,-3.5507,-3.5194,-3.4447,-3.369,-3.2919,0.0,0.0,0.0,0.0,0.0,0.0,0.0,0.0,0.0,0.0,0.0,0.0,0.0,0.0,0.0,0.0,0.0,0.0,0.0,0.0,0.0,0.0,0.0,0.0,0.0,0.0,0.0,0.0,0.0,0.0,0.0,0.0,0.0,0.0,0.0,0.0,0.0,0.0,0.0,0.0,0.0,0.0,0.0,0.0,0.0,0.0,0.0,0.0,0.0,0.0,0.0,0.0,0.0,0.0,0.0,0.0,0.0,0.0,0.0,0.0,0.0,0.0,0.0,0.0,0.0,0.0,0.0,0.0,0.0,0.0,0.0,0.0,0.0,0.0,0.0,0.0,0.0,0.0,0.0,0.0,0.0,0.0,0.0,0.0,0.0,0.0,0.0,0.0,0.0,0.0,0.0,0.0,0.0,0.0,0.0,0.0,0.0,0.0,0.0,0.0,0.0,0.0,0.0,0.0,0.0,0.0,0.0,0.0,0.0,0.0,0.0,0.0,-3.5056,-3.4312,-3.2857,0.0,0.0,0.0,0.0,0.0,0.0,0.0,0.0,0.0,0.0,0.0,0.0,0.0,0.0,0.0,0.0,0.0,0.0,0.0,0.0,0.0,0.0,0.0,0.0,0.0,0.0,0.0,0.0,0.0,0.0,0.0,0.0,0.0,0.0,0.0,0.0,0.0,0.0,0.0,0.0,0.0,0.0,0.0,0.0,0.0,0.0,0.0,0.0,0.0,0.0,0.0,0.0,0.0,0.0,0.0,0.0,0.0,0.0,0.0,0.0,0.0,0.0,0.0,0.0,0.0,0.0,0.0,0.0,0.0,0.0,0.0,0.0,0.0,0.0,0.0,0.0,0.0,0.0,0.0,0.0,0.0,0.0,0.0,0.0,0.0,0.0,0.0,0.0,0.0,0.0,0.0,0.0,0.0,0.0,0.0,0.0,0.0,0.0,0.0,0.0,0.0,0.0,0.0,0.0,0.0,0.0,0.0,0.0,0.0,0.0,-3.5849,-3.5895,-3.5309,0.0,-3.2951,0.0,0.0,0.0,0.0,0.0,0.0,0.0,0.0,0.0,0.0,0.0,0.0,0.0,0.0,0.0,0.0,0.0,0.0,0.0,0.0,0.0,0.0,0.0,0.0,0.0,0.0,0.0,0.0,0.0,0.0,0.0,0.0,0.0,0.0,0.0,0.0,0.0,0.0,0.0,0.0,0.0,0.0,0.0,0.0,0.0,0.0,0.0,0.0,0.0,0.0,0.0,0.0,0.0,0.0,0.0,0.0,0.0,0.0,0.0,0.0,0.0,0.0,0.0,0.0,0.0,0.0,0.0,0.0,0.0,0.0,0.0,0.0,0.0,0.0,0.0,0.0,0.0,0.0,0.0,0.0,0.0,0.0,0.0,0.0,0.0,0.0,0.0,0.0,0.0,0.0,0.0,0.0,0.0,0.0,0.0,0.0,0.0,0.0,0.0,0.0,0.0,0.0,0.0,0.0,0.0,0.0,0.0,0.0,0.0,0.0,-3.5839,-3.5866,-3.4814,-3.3949,0.0,0.0,0.0,0.0,0.0,0.0,0.0,0.0,0.0,0.0,0.0,0.0,0.0,0.0,0.0,0.0,0.0,0.0,0.0,0.0,0.0,0.0,0.0,0.0,0.0,0.0,0.0,0.0,0.0,0.0,0.0,0.0,0.0,0.0,0.0,0.0,0.0,0.0,0.0,0.0,0.0,0.0,0.0,0.0,0.0,0.0,0.0,0.0,0.0,0.0,0.0,0.0,0.0,0.0,0.0,0.0,0.0,0.0,0.0,0.0,0.0,0.0,0.0,0.0,0.0,0.0,0.0,0.0,0.0,0.0,0.0,0.0,0.0,0.0,0.0,0.0,0.0,0.0,0.0,0.0,0.0,0.0,0.0,0.0,0.0,0.0,0.0,0.0,0.0,0.0,0.0,0.0,0.0,0.0,0.0,0.0,0.0,0.0,0.0,0.0,0.0,0.0,0.0,0.0,0.0,0.0,0.0,0.0,0.0,0.0,-3.5639,-3.5678,-3.5611,-3.4474,-3.3735,-3.349,0.0,0.0,0.0,0.0,0.0,0.0,0.0,0.0,0.0,0.0,0.0,0.0,0.0,0.0,0.0,0.0,0.0,0.0,0.0,0.0,0.0,0.0,0.0,0.0,0.0,0.0,0.0,0.0,0.0,0.0,0.0,0.0,0.0,0.0,0.0,0.0,0.0,0.0,0.0,0.0,0.0,0.0,0.0,0.0,0.0,0.0,0.0,0.0,0.0,0.0,0.0,0.0,0.0,0.0,0.0,0.0,0.0,0.0,0.0,0.0,0.0,0.0,0.0,0.0,0.0,0.0,0.0,0.0,0.0,0.0,0.0,0.0,0.0,0.0,0.0,0.0,0.0,0.0,0.0,0.0,0.0,0.0,0.0,0.0,0.0,0.0,0.0,0.0,0.0,0.0,0.0,0.0,0.0,0.0,0.0,0.0,0.0,0.0,0.0,0.0,0.0,0.0,0.0,0.0,0.0,0.0,0.0,0.0,-3.5514,-3.5383,-3.5331,-3.5297,-3.4594,-3.3884,0.0,0.0,0.0,0.0,0.0,0.0,0.0,0.0,0.0,0.0,0.0,0.0,0.0,0.0,0.0,0.0,0.0,0.0,0.0,0.0,0.0,0.0,0.0,0.0,0.0,0.0,0.0,0.0,0.0,0.0,0.0,0.0,0.0,0.0,0.0,0.0,0.0,0.0,0.0,0.0,0.0,0.0,0.0,0.0,0.0,0.0,0.0,0.0,0.0,0.0,0.0,0.0,0.0,0.0,0.0,0.0,0.0,0.0,0.0,0.0,0.0,0.0,0.0,0.0,0.0,0.0,0.0,0.0,0.0,0.0,0.0,0.0,0.0,0.0,0.0,0.0,0.0,0.0,0.0,0.0,0.0,0.0,0.0,0.0,0.0,0.0,0.0,0.0,0.0,0.0,0.0,0.0,0.0,0.0,0.0,0.0,0.0,0.0,0.0,0.0,0.0,0.0,0.0,0.0,0.0,0.0,0.0,0.0,0.0,-3.5377,-3.5331,-3.5268,-3.5158,-3.4543,-3.3824,0.0,0.0,0.0,0.0,0.0,0.0,0.0,0.0,0.0,0.0,0.0,0.0,0.0,0.0,0.0,0.0,0.0,0.0,0.0,0.0,0.0,0.0,0.0,0.0,0.0,0.0,0.0,0.0,0.0,0.0,0.0,0.0,0.0,0.0,0.0,0.0,0.0,0.0,0.0,0.0,0.0,0.0,0.0,0.0,0.0,0.0,0.0,0.0,0.0,0.0,0.0,0.0,0.0,0.0,0.0,0.0,0.0,0.0,0.0,0.0,0.0,0.0,0.0,0.0,0.0,0.0,0.0,0.0,0.0,0.0,0.0,0.0,0.0,0.0,0.0,0.0,0.0,0.0,0.0,0.0,0.0,0.0,0.0,0.0,0.0,0.0,0.0,0.0,0.0,0.0,0.0,0.0,0.0,0.0,0.0,0.0,0.0,0.0,0.0,0.0,0.0,0.0,0.0,0.0,0.0,0.0,0.0,0.0,0.0,-3.5525,0.0,-3.5728,-3.539,-3.4988,-3.4155,0.0,0.0,0.0,0.0,0.0,0.0,0.0,0.0,0.0,0.0,0.0,0.0,0.0,0.0,0.0,0.0,0.0,0.0,0.0,0.0,0.0,0.0,0.0,0.0,0.0,0.0,0.0,0.0,0.0,0.0,0.0,0.0,0.0,0.0,0.0,0.0,0.0,0.0,0.0,0.0,0.0,0.0,0.0,0.0,0.0,0.0,0.0,0.0,0.0,0.0,0.0,0.0,0.0,0.0,0.0,0.0,0.0,0.0,0.0,0.0,0.0,0.0,0.0,0.0,0.0,0.0,0.0,0.0,0.0,0.0,0.0,0.0,0.0,0.0,0.0,0.0,0.0,0.0,0.0,0.0,0.0,0.0,0.0,0.0,0.0,0.0,0.0,0.0,0.0,0.0,0.0,0.0,0.0,0.0,0.0,0.0,0.0,0.0,0.0,0.0,0.0,0.0,0.0,0.0,0.0,0.0,0.0,0.0,-3.5416,-3.5976,-3.6663,-3.6679,-3.6042,-3.5959,-3.4932,0.0,0.0,0.0,0.0,0.0,0.0,0.0,0.0,0.0,0.0,0.0,0.0,0.0,0.0,0.0,0.0,0.0,0.0,0.0,0.0,0.0,0.0,0.0,0.0,0.0,0.0,0.0,0.0,0.0,0.0,0.0,0.0,0.0,0.0,0.0,0.0,0.0,0.0,0.0,0.0,0.0,0.0,0.0,0.0,0.0,0.0,0.0,0.0,0.0,0.0,0.0,0.0,0.0,0.0,0.0,0.0,0.0,0.0,0.0,0.0,0.0,0.0,0.0,0.0,0.0,0.0,0.0,0.0,0.0,0.0,0.0,0.0,0.0,0.0,0.0,0.0,0.0,0.0,0.0,0.0,0.0,0.0,0.0,0.0,0.0,0.0,0.0,0.0,0.0,0.0,0.0,0.0,0.0,0.0,0.0,0.0,0.0,0.0,0.0,0.0,0.0,0.0,0.0,0.0,0.0,0.0,0.0,0.0,0.0,-3.6001,-3.6401,-3.6664,-3.6746,-3.6274,-3.5197,0.0,0.0,0.0,0.0,0.0,0.0,0.0,0.0,0.0,0.0,0.0,0.0,0.0,0.0,0.0,0.0,0.0,0.0,0.0,0.0,0.0,0.0,0.0,0.0,0.0,0.0,0.0,0.0,0.0,0.0,0.0,0.0,0.0,0.0,0.0,0.0,0.0,0.0,0.0,0.0,0.0,0.0,0.0,0.0,0.0,0.0,0.0,0.0,0.0,0.0,0.0,0.0,0.0,0.0,0.0,0.0,0.0,0.0,0.0,0.0,0.0,0.0,0.0,0.0,0.0,0.0,0.0,0.0,0.0,0.0,0.0,0.0,0.0,0.0,0.0,0.0,0.0,0.0,0.0,0.0,0.0,0.0,0.0,0.0,0.0,0.0,0.0,0.0,0.0,0.0,0.0,0.0,0.0,0.0,0.0,0.0,0.0,0.0,0.0,0.0,0.0,0.0,0.0,0.0,0.0,0.0,0.0,0.0,0.0,-3.6484,-3.7102,-3.7443,-3.7478,-3.6946,-3.5778,-3.4018,0.0,0.0,0.0,0.0,0.0,0.0,0.0,0.0,0.0,0.0,0.0,0.0,0.0,0.0,0.0,0.0,0.0,0.0,0.0,0.0,0.0,0.0,0.0,0.0,0.0,0.0,0.0,0.0,0.0,0.0,0.0,0.0,0.0,0.0,0.0,0.0,0.0,0.0,0.0,0.0,0.0,0.0,0.0,0.0,0.0,0.0,0.0,0.0,0.0,0.0,0.0,0.0,0.0,0.0,0.0,0.0,0.0,0.0,0.0,0.0,0.0,0.0,0.0,0.0,0.0,0.0,0.0,0.0,0.0,0.0,0.0,0.0,0.0,0.0,0.0,0.0,0.0,0.0,0.0,0.0,0.0,0.0,0.0,0.0,0.0,0.0,0.0,0.0,0.0,0.0,0.0,0.0,0.0,0.0,0.0,0.0,0.0,0.0,0.0,0.0,0.0,0.0,0.0,0.0,0.0,0.0,0.0,0.0,-3.7361,-3.8569,-3.8836,-3.8155,-3.7817,-3.6594,0.0,0.0,0.0,0.0,0.0,0.0,0.0,0.0,0.0,0.0,0.0,0.0,0.0,0.0,0.0,0.0,0.0,0.0,0.0,0.0,0.0,0.0,0.0,0.0,0.0,0.0,0.0,0.0,0.0,0.0,0.0,0.0,0.0,0.0,0.0,0.0,0.0,0.0,0.0,0.0,0.0,0.0,0.0,0.0,0.0,0.0,0.0,0.0,0.0,0.0,0.0,0.0,0.0,0.0,0.0,0.0,0.0,0.0,0.0,0.0,0.0,0.0,0.0,0.0,0.0,0.0,0.0,0.0,0.0,0.0,0.0,0.0,0.0,0.0,0.0,0.0,0.0,0.0,0.0,0.0,0.0,0.0,0.0,0.0,0.0,0.0,0.0,0.0,0.0,0.0,0.0,0.0,0.0,0.0,0.0,0.0,0.0,0.0,0.0,0.0,0.0,0.0,0.0,0.0,0.0,0.0,0.0,0.0,0.0,-3.8404,-3.8944,-3.9014,-3.8624,-3.7742,-3.6599,0.0,0.0,0.0,0.0,0.0,0.0,0.0,0.0,0.0,0.0,0.0,0.0,0.0,0.0,0.0,0.0,0.0,0.0,0.0,0.0,0.0,0.0,0.0,0.0,0.0,0.0,0.0,0.0,0.0,0.0,0.0,0.0,0.0,0.0,0.0,0.0,0.0,0.0,0.0,0.0,0.0,0.0,0.0,0.0,0.0,0.0,0.0,0.0,0.0,0.0,0.0,0.0,0.0,0.0,0.0,0.0,0.0,0.0,0.0,0.0,0.0,0.0,0.0,0.0,0.0,0.0,0.0,0.0,0.0,0.0,0.0,0.0,0.0,0.0,0.0,0.0,0.0,0.0,0.0,0.0,0.0,0.0,0.0,0.0,0.0,0.0,0.0,0.0,0.0,0.0,0.0,0.0,0.0,0.0,0.0,0.0,0.0,0.0,0.0,0.0,0.0,0.0,0.0,0.0,0.0,0.0,0.0,0.0,-3.6461,-3.8037,-3.8584,-3.8776,-3.8617,-3.7757,-3.674,0.0,0.0,0.0,0.0,0.0,0.0,0.0,0.0,0.0,0.0,0.0,0.0,0.0,0.0,0.0,0.0,0.0,0.0,0.0,0.0,0.0,0.0,0.0,0.0,0.0,0.0,0.0,0.0,0.0,0.0,0.0,0.0,0.0,0.0,0.0,0.0,0.0,0.0,0.0,0.0,0.0,0.0,0.0,0.0,0.0,0.0,0.0,0.0,0.0,0.0,0.0,0.0,0.0,0.0,0.0,0.0,0.0,0.0,0.0,0.0,0.0,0.0,0.0,0.0,0.0,0.0,0.0,0.0,0.0,0.0,0.0,0.0,0.0,0.0,0.0,0.0,0.0,0.0,0.0,0.0,0.0,0.0,0.0,0.0,0.0,0.0,0.0,0.0,0.0,0.0,0.0,0.0,0.0,0.0,0.0,0.0,0.0,0.0,0.0,0.0,0.0,0.0,0.0,0.0,0.0,0.0,0.0,0.0,-3.5533,-3.6748,-3.7764,-3.8172,-3.8033,-3.7687,-3.6862,0.0,0.0,0.0,0.0,0.0,0.0,0.0,0.0,0.0,0.0,0.0,0.0,0.0,0.0,0.0,0.0,0.0,0.0,0.0,0.0,0.0,0.0,0.0,0.0,0.0,0.0,0.0,0.0,0.0,0.0,0.0,0.0,0.0,0.0,0.0,0.0,0.0,0.0,0.0,0.0,0.0,0.0,0.0,0.0,0.0,0.0,0.0,0.0,0.0,0.0,0.0,0.0,0.0,0.0,0.0,0.0,0.0,0.0,0.0,0.0,0.0,0.0,0.0,0.0,0.0,0.0,0.0,0.0,0.0,0.0,0.0,0.0,0.0,0.0,0.0,0.0,0.0,0.0,0.0,0.0,0.0,0.0,0.0,0.0,0.0,0.0,0.0,0.0,0.0,0.0,0.0,0.0,0.0,0.0,0.0,0.0,0.0,0.0,0.0,0.0,0.0,0.0,0.0,0.0,0.0,0.0,0.0,0.0,-3.5147,-3.6104,-3.6837,-3.6961,-3.6423,-3.6718,-3.6518,0.0,0.0,0.0,0.0,0.0,0.0,0.0,0.0,0.0,0.0,0.0,0.0,0.0,0.0,0.0,0.0,0.0,0.0,0.0,0.0,0.0,0.0,0.0,0.0,0.0,0.0,0.0,0.0,0.0,0.0,0.0,0.0,0.0,0.0,0.0,0.0,0.0,0.0,0.0,0.0,0.0,0.0,0.0,0.0,0.0,0.0,0.0,0.0,-3.409,0.0,0.0,0.0,0.0,0.0,0.0,0.0,0.0,0.0,0.0,0.0,0.0,0.0,0.0,0.0,0.0,0.0,0.0,0.0,0.0,0.0,0.0,0.0,0.0,0.0,0.0,0.0,0.0,0.0,0.0,0.0,0.0,0.0,0.0,0.0,0.0,0.0,0.0,0.0,0.0,0.0,0.0,0.0,0.0,0.0,0.0,0.0,0.0,0.0,0.0,0.0,0.0,0.0,0.0,0.0,0.0,0.0,0.0,0.0,-3.465,-3.5624,-3.6283,-3.6444,-3.6122,-3.6074,-3.5689,0.0,0.0,0.0,0.0,0.0,0.0,0.0,0.0,0.0,0.0,0.0,0.0,0.0,0.0,0.0,0.0,0.0,0.0,0.0,0.0,0.0,0.0,0.0,0.0,0.0,0.0,0.0,0.0,0.0,0.0,0.0,0.0,0.0,0.0,0.0,0.0,0.0,0.0,0.0,0.0,0.0,0.0,0.0,0.0,0.0,0.0,0.0,0.0,0.0,0.0,0.0,0.0,0.0,0.0,0.0,0.0,0.0,0.0,0.0,0.0,0.0,0.0,0.0,0.0,0.0,0.0,0.0,0.0,0.0,0.0,0.0,0.0,0.0,0.0,0.0,0.0,0.0,0.0,0.0,0.0,0.0,0.0,0.0,0.0,0.0,0.0,0.0,0.0,0.0,0.0,0.0,0.0,0.0,0.0,0.0,0.0,0.0,0.0,0.0,0.0,0.0,0.0,0.0,0.0,0.0,0.0,0.0,-3.3214,-3.4086,-3.5203,-3.5749,-3.6025,-3.6011,-3.5314,-3.4523,-3.3622,0.0,0.0,0.0,0.0,0.0,0.0,0.0,0.0,0.0,0.0,0.0,0.0,0.0,0.0,0.0,0.0,0.0,0.0,0.0,0.0,0.0,0.0,0.0,0.0,0.0,0.0,0.0,0.0,0.0,0.0,0.0,0.0,0.0,0.0,0.0,0.0,0.0,0.0,-3.2249,-3.4184,0.0,0.0,0.0,0.0,0.0,0.0,0.0,0.0,-3.6854,0.0,0.0,0.0,0.0,0.0,0.0,0.0,0.0,0.0,0.0,0.0,0.0,0.0,0.0,0.0,0.0,0.0,0.0,0.0,0.0,0.0,0.0,0.0,0.0,0.0,0.0,0.0,0.0,0.0,0.0,0.0,0.0,0.0,0.0,0.0,0.0,0.0,0.0,0.0,0.0,0.0,0.0,0.0,0.0,0.0,0.0,0.0,0.0,0.0,0.0,0.0,0.0,0.0,0.0,0.0,0.0,-3.2515,-3.2661,-3.3314,-3.4545,-3.4661,-3.4733,-3.467,-3.3601,-3.2896,-3.2706,0.0,0.0,0.0,0.0,0.0,0.0,0.0,0.0,0.0,0.0,0.0,0.0,0.0,0.0,0.0,0.0,0.0,0.0,0.0,0.0,0.0,0.0,0.0,0.0,0.0,0.0,0.0,0.0,0.0,0.0,0.0,0.0,0.0,0.0,0.0,0.0,0.0,0.0,0.0,-3.6093,-3.751,0.0,0.0,0.0,0.0,0.0,0.0,0.0,0.0,-3.6222,0.0,0.0,0.0,0.0,0.0,0.0,0.0,0.0,0.0,0.0,0.0,0.0,0.0,0.0,0.0,0.0,0.0,0.0,0.0,0.0,0.0,0.0,0.0,0.0,0.0,0.0,0.0,0.0,0.0,0.0,0.0,0.0,0.0,0.0,0.0,0.0,0.0,0.0,0.0,0.0,0.0,0.0,0.0,0.0,0.0,0.0,0.0,0.0,0.0,0.0,0.0,0.0,0.0,0.0,0.0,-3.2483,-3.2846,-3.347,-3.4337,-3.438,-3.438,-3.4399,-3.3499,-3.2861,0.0,0.0,0.0,0.0,0.0,0.0,0.0,0.0,0.0,0.0,0.0,0.0,0.0,0.0,0.0,0.0,0.0,0.0,0.0,0.0,0.0,0.0,0.0,0.0,0.0,0.0,0.0,0.0,0.0,0.0,0.0,0.0,0.0,0.0,0.0,0.0,0.0,0.0,0.0,0.0,-3.7359,-3.8219,-3.8922,0.0,0.0,0.0,0.0,0.0,0.0,-3.8167,-3.76,0.0,0.0,0.0,0.0,0.0,0.0,0.0,0.0,0.0,0.0,0.0,0.0,0.0,0.0,0.0,0.0,0.0,0.0,0.0,0.0,0.0,0.0,0.0,0.0,0.0,0.0,0.0,0.0,0.0,0.0,0.0,0.0,0.0,0.0,0.0,0.0,0.0,0.0,0.0,0.0,0.0,0.0,0.0,0.0,0.0,0.0,0.0,0.0,0.0,0.0,0.0,0.0,0.0,0.0,0.0,-3.2498,-3.2956,-3.3578,-3.4337,-3.438,-3.438,-3.4366,-3.3674,-3.3035,0.0,0.0,0.0,0.0,0.0,0.0,0.0,0.0,0.0,0.0,0.0,0.0,0.0,0.0,0.0,0.0,0.0,0.0,0.0,0.0,0.0,0.0,0.0,0.0,0.0,0.0,0.0,0.0,0.0,0.0,0.0,0.0,0.0,0.0,0.0,0.0,0.0,0.0,0.0,0.0,0.0,-3.8615,-3.9898,-4.0105,0.0,0.0,0.0,0.0,-3.9571,-3.9262,0.0,0.0,0.0,0.0,0.0,0.0,0.0,0.0,0.0,0.0,0.0,0.0,0.0,0.0,0.0,0.0,0.0,0.0,0.0,0.0,0.0,0.0,0.0,0.0,0.0,0.0,0.0,0.0,0.0,0.0,0.0,0.0,0.0,0.0,0.0,0.0,0.0,0.0,0.0,0.0,0.0,0.0,0.0,0.0,0.0,0.0,0.0,0.0,0.0,0.0,0.0,0.0,0.0,0.0,0.0,0.0,-3.2437,-3.2281,-3.29,-3.4308,-3.438,-3.438,-3.4366,-3.3253,-3.2568,0.0,0.0,0.0,0.0,0.0,0.0,0.0,0.0,0.0,0.0,0.0,0.0,0.0,0.0,0.0,0.0,0.0,0.0,0.0,0.0,0.0,0.0,0.0,0.0,0.0,0.0,0.0,0.0,0.0,0.0,0.0,0.0,0.0,0.0,0.0,0.0,0.0,0.0,0.0,0.0,0.0,-3.86,-3.9219,-4.0321,-4.0607,0.0,0.0,-3.9673,-4.0635,-3.9988,0.0,0.0,0.0,0.0,0.0,0.0,0.0,0.0,0.0,0.0,0.0,0.0,0.0,0.0,0.0,0.0,0.0,0.0,0.0,0.0,0.0,0.0,0.0,0.0,0.0,0.0,0.0,0.0,0.0,0.0,0.0,0.0,0.0,0.0,0.0,0.0,0.0,0.0,0.0,0.0,0.0,0.0,0.0,0.0,0.0,0.0,0.0,0.0,0.0,0.0,0.0,0.0,0.0,0.0,0.0,-3.0832,-3.1762,-3.1685,-3.2068,-3.3024,-3.3101,-3.3101,-3.3101,-3.1912,-3.1279,0.0,0.0,0.0,0.0,0.0,0.0,0.0,0.0,0.0,0.0,0.0,0.0,0.0,0.0,0.0,0.0,0.0,0.0,0.0,0.0,0.0,0.0,0.0,0.0,0.0,0.0,0.0,0.0,0.0,0.0,0.0,0.0,0.0,0.0,0.0,0.0,0.0,0.0,0.0,0.0,0.0,0.0,-3.7875,-3.9278,0.0,0.0,0.0,-3.9862,-4.0403,0.0,0.0,0.0,0.0,0.0,0.0,0.0,0.0,0.0,0.0,0.0,0.0,0.0,0.0,0.0,0.0,0.0,0.0,0.0,0.0,0.0,0.0,0.0,0.0,0.0,0.0,0.0,0.0,0.0,0.0,0.0,0.0,0.0,0.0,0.0,0.0,0.0,0.0,0.0,0.0,0.0,0.0,0.0,0.0,0.0,0.0,0.0,0.0,0.0,0.0,0.0,0.0,0.0,0.0,0.0,0.0,0.0,-3.0946,-3.0834,-3.115,-3.1888,-3.1951,-3.1897,-3.1721,-3.0699,0.0,0.0,0.0,0.0,0.0,0.0,0.0,0.0,0.0,0.0,0.0,0.0,0.0,0.0,0.0,0.0,0.0,0.0,0.0,0.0,0.0,0.0,0.0,0.0,0.0,0.0,0.0,-2.2935,0.0,0.0,0.0,0.0,0.0,0.0,0.0,0.0,0.0,0.0,0.0,0.0,0.0,0.0,-3.7038,-3.6972,-3.8564,-3.947,0.0,0.0,-3.9964,-3.9796,-3.9941,-3.9805,0.0,0.0,0.0,0.0,0.0,0.0,0.0,0.0,0.0,0.0,0.0,0.0,0.0,0.0,0.0,0.0,0.0,0.0,0.0,0.0,0.0,0.0,0.0,0.0,0.0,0.0,0.0,0.0,0.0,0.0,0.0,0.0,0.0,0.0,0.0,0.0,0.0,0.0,0.0,0.0,0.0,0.0,0.0,0.0,0.0,0.0,0.0,0.0,0.0,0.0,0.0,0.0,0.0,0.0,-2.8118,-3.0009,-2.9596,-3.0072,-3.1446,-3.1536,-3.1305,-3.0806,-3.0086,-2.9368,0.0,0.0,0.0,0.0,0.0,0.0,0.0,0.0,0.0,0.0,0.0,0.0,0.0,0.0,0.0,0.0,0.0,0.0,0.0,0.0,0.0,0.0,0.0,0.0,0.0,0.0,0.0,0.0,0.0,0.0,0.0,0.0,0.0,0.0,0.0,0.0,0.0,0.0,0.0,0.0,0.0,-3.7212,-3.7109,-3.897,-3.9971,0.0,-3.9667,-4.001,-3.8952,-3.9849,-3.9945,-3.7805,0.0,0.0,0.0,0.0,0.0,0.0,0.0,0.0,0.0,0.0,0.0,0.0,0.0,0.0,0.0,0.0,0.0,0.0,0.0,0.0,0.0,0.0,0.0,0.0,0.0,0.0,0.0,0.0,0.0,0.0,0.0,0.0,0.0,0.0,0.0,0.0,0.0,0.0,0.0,0.0,0.0,0.0,0.0,0.0,0.0,0.0,0.0,0.0,0.0,0.0,0.0,0.0,0.0,-2.7471,-2.9214,-2.853,-2.8747,-2.9961,-3.0012,-2.977,-2.9224,-2.8629,-2.7899,0.0,0.0,0.0,0.0,0.0,0.0,0.0,0.0,0.0,0.0,0.0,0.0,0.0,0.0,0.0,0.0,0.0,0.0,0.0,0.0,0.0,0.0,0.0,0.0,0.0,0.0,0.0,0.0,-2.3574,-2.3644,-2.4253,0.0,0.0,0.0,0.0,0.0,0.0,0.0,0.0,0.0,0.0,-3.5751,-3.6335,-3.7799,0.0,0.0,-3.9334,-3.9713,-3.8722,-3.9098,-3.8996,-3.7413,-3.685,0.0,0.0,0.0,0.0,0.0,0.0,0.0,0.0,0.0,0.0,0.0,0.0,0.0,0.0,0.0,0.0,0.0,0.0,0.0,0.0,0.0,0.0,0.0,0.0,0.0,0.0,0.0,0.0,0.0,0.0,0.0,0.0,0.0,0.0,0.0,0.0,0.0,0.0,0.0,0.0,0.0,0.0,0.0,0.0,0.0,0.0,0.0,0.0,0.0,0.0,0.0,0.0,-2.6722,-2.8288,-2.7507,-2.7603,-2.869,-2.8543,-2.8151,-2.7664,-2.7274,-2.6633,0.0,0.0,0.0,0.0,0.0,0.0,0.0,0.0,0.0,0.0,0.0,0.0,0.0,0.0,0.0,0.0,0.0,0.0,0.0,0.0,0.0,0.0,0.0,0.0,0.0,0.0,0.0,0.0,-2.3243,-2.3209,-2.3691,0.0,0.0,0.0,0.0,0.0,0.0,0.0,0.0,0.0,0.0,-3.4565,-3.5478,-3.6656,-3.7529,-3.7772,-3.8556,-3.8873,-3.804,-3.8091,-3.7784,-3.6645,0.0,0.0,0.0,0.0,0.0,0.0,0.0,0.0,0.0,0.0,0.0,0.0,0.0,0.0,0.0,0.0,0.0,0.0,0.0,0.0,0.0,0.0,0.0,0.0,0.0,0.0,0.0,-2.5312,0.0,0.0,-2.5288,0.0,0.0,0.0,0.0,0.0,0.0,0.0,0.0,0.0,0.0,0.0,0.0,0.0,0.0,0.0,0.0,0.0,0.0,0.0,0.0,0.0,0.0,-2.5616,-2.7199,-2.6517,-2.6635,-2.7681,-2.7198,-2.6731,-2.6214,-2.6154,-2.5732,-2.4874,0.0,0.0,0.0,0.0,0.0,0.0,0.0,0.0,0.0,0.0,0.0,0.0,0.0,0.0,0.0,0.0,0.0,0.0,0.0,0.0,0.0,0.0,0.0,0.0,0.0,0.0,-2.3395,-2.3203,-2.3173,0.0,0.0,0.0,0.0,0.0,0.0,0.0,0.0,0.0,-3.0967,-3.2738,-3.4095,-3.4638,-3.5619,-3.6425,-3.683,-3.7327,-3.7399,-3.6749,-3.6685,-3.6317,0.0,0.0,0.0,0.0,0.0,0.0,0.0,0.0,0.0,0.0,0.0,0.0,0.0,0.0,0.0,0.0,0.0,0.0,0.0,0.0,0.0,0.0,0.0,0.0,0.0,0.0,0.0,-2.4491,-2.4576,0.0,0.0,0.0,0.0,0.0,0.0,0.0,0.0,0.0,0.0,0.0,-2.4429,-2.3889,0.0,0.0,0.0,0.0,0.0,0.0,0.0,0.0,0.0,0.0,0.0,0.0,-2.4829,-2.6518,-2.5696,-2.5886,-2.7114,-2.6994,-2.6621,-2.6105,-2.6093,-2.5684,-2.4806,0.0,0.0,0.0,0.0,0.0,0.0,0.0,0.0,0.0,0.0,0.0,0.0,0.0,0.0,0.0,0.0,0.0,0.0,0.0,0.0,0.0,0.0,0.0,0.0,0.0,-2.306,0.0,0.0,0.0,0.0,0.0,0.0,0.0,0.0,0.0,0.0,-2.8511,-2.9806,-3.0368,-3.1675,-3.2718,-3.316,-3.4188,-3.5032,0.0,0.0,0.0,0.0,0.0,0.0,0.0,0.0,0.0,0.0,0.0,0.0,0.0,0.0,-3.5472,-3.4321,-3.4113,-3.4175,-3.4469,0.0,0.0,0.0,0.0,0.0,0.0,0.0,0.0,0.0,0.0,0.0,0.0,0.0,0.0,-2.4014,-2.3931,-2.3892,0.0,0.0,0.0,0.0,0.0,0.0,0.0,0.0,-2.3029,-2.3279,-2.4012,-2.3515,-2.3639,0.0,-2.3834,-2.3969,0.0,0.0,0.0,0.0,0.0,0.0,0.0,0.0,-2.419,-2.5595,-2.482,-2.4995,-2.6151,-2.6058,-2.5797,-2.5442,-2.543,-2.5194,-2.4622,-2.3362,-2.2824,0.0,0.0,0.0,0.0,0.0,0.0,0.0,0.0,0.0,0.0,0.0,0.0,0.0,0.0,0.0,0.0,0.0,0.0,0.0,0.0,0.0,0.0,0.0,-2.2457,0.0,0.0,0.0,0.0,0.0,0.0,0.0,0.0,0.0,-2.6773,-2.8394,-2.9564,-2.9952,-3.0829,-3.1591,-3.2032,0.0,0.0,0.0,0.0,0.0,0.0,0.0,-3.3813,-3.3436,-3.3733,-3.4284,-3.5064,-3.5611,-3.5935,-3.5899,0.0,0.0,-3.5011,-3.5065,-3.5201,-3.5188,-3.5862,-3.631,-3.5984,-3.5859,-3.5845,0.0,0.0,0.0,0.0,-2.3203,0.0,0.0,0.0,-2.442,-2.4294,0.0,-2.3978,0.0,0.0,0.0,0.0,-2.3459,-2.3144,0.0,0.0,-2.3037,-2.2877,-2.2607,-2.2949,-2.3101,-2.3091,-2.2767,-2.2934,-2.367,-2.3602,0.0,0.0,0.0,0.0,0.0,0.0,-2.3616,-2.4374,-2.3873,-2.4021,-2.492,-2.4462,-2.4187,-2.4164,-2.4164,-2.4164,-2.4118,-2.3189,-2.2707,-2.2764,-2.1598,0.0,0.0,0.0,0.0,0.0,0.0,0.0,0.0,0.0,0.0,0.0,0.0,0.0,0.0,0.0,0.0,0.0,0.0,0.0,0.0,-2.1553,0.0,0.0,0.0,0.0,0.0,0.0,0.0,0.0,0.0,-2.4168,-2.6181,-2.7812,-2.9063,-2.9665,0.0,0.0,0.0,0.0,-3.2235,-3.262,-3.3079,-3.3322,-3.3046,-3.2991,-3.2984,-3.2866,0.0,0.0,-3.5289,-3.4872,-3.4612,-3.5133,-3.4711,-3.4597,-3.5844,-3.6473,-3.6857,-3.6604,-3.7,-3.7389,-3.7315,-3.6364,-3.5632,-2.2903,0.0,0.0,0.0,0.0,-2.2771,-2.3149,-2.3627,-2.3584,-2.3374,-2.314,-2.2998,0.0,0.0,0.0,0.0,0.0,0.0,-2.1906,-2.2155,-2.2193,-2.2524,-2.3142,-2.2969,-2.3124,-2.3584,-2.3164,-2.3046,-2.3265,-2.2982,-2.3212,-2.3924,0.0,0.0,0.0,0.0,-2.2994,-2.3733,-2.3356,-2.3519,-2.4426,-2.4001,-2.3645,-2.335,-2.3338,-2.3338,-2.3327,-2.2451,-2.2116,-2.2333,-2.1433,0.0,0.0,0.0,0.0,0.0,0.0,0.0,0.0,0.0,0.0,0.0,0.0,0.0,0.0,0.0,0.0,0.0,0.0,0.0,-2.0687,-2.0462,-2.0409,0.0,0.0,0.0,0.0,0.0,0.0,0.0,0.0,0.0,-2.5304,-2.6352,-2.7419,0.0,0.0,-2.9544,-3.0179,-3.1017,-3.163,-3.1739,-3.2549,0.0,-3.2498,-3.2671,-3.2688,-3.2159,-3.2712,-3.337,-3.3807,-3.4025,-3.4093,-3.3968,-3.4262,-3.4519,-3.4569,-3.5589,-3.6593,-3.743,-3.7808,-3.7784,-3.7445,-3.6746,-3.6193,-2.1999,-2.1866,-2.2732,-2.2856,-2.2528,-2.2697,-2.3008,-2.3374,-2.3271,-2.3037,-2.2711,-2.2477,-2.1593,-2.0365,-2.0292,0.0,0.0,0.0,-2.1641,-2.2019,-2.2029,-2.2425,-2.314,-2.2919,-2.3061,-2.3506,-2.3227,-2.3101,-2.3091,-2.2715,-2.2639,-2.2927,0.0,-2.2808,-2.299,-2.2519,-2.2538,-2.3113,-2.2887,-2.2968,-2.3488,-2.3107,-2.2857,-2.2761,-2.2617,-2.2531,-2.2521,-2.1861,-2.1555,-2.1797,-2.1015,-2.0579,0.0,0.0,0.0,0.0,0.0,0.0,0.0,0.0,0.0,0.0,0.0,-2.0941,-2.084,0.0,0.0,0.0,-2.0281,-1.9824,-1.9431,-1.9441,0.0,0.0,0.0,0.0,0.0,0.0,0.0,-2.2306,-2.303,-2.3671,-2.3998,-2.4762,-2.5861,-2.7285,-2.7839,-2.8263,-2.8673,0.0,-3.062,-3.0397,-3.1347,-3.1901,-3.1348,-3.164,-3.1863,-3.164,-3.1981,-3.2472,-3.2715,-3.3054,-3.3196,-3.3169,-3.3371,-3.3574,-3.37,-3.4256,-3.5121,-3.6474,-3.7101,-3.7222,-3.7084,-3.6624,-3.6309,-2.1099,-2.1009,-2.2138,-2.2594,-2.2594,-2.2971,-2.293,-2.2731,-2.3094,-2.2795,-2.2098,-2.2089,-2.1229,-1.9842,-1.9669,0.0,-2.1525,-2.1553,-2.1749,-2.211,-2.2164,-2.2277,-2.2522,-2.2595,-2.2746,-2.2911,-2.3038,-2.3091,-2.3081,-2.2672,-2.2314,-2.1953,-2.2101,-2.2442,-2.2848,-2.2361,-2.2247,-2.2441,-2.2431,-2.2423,-2.2323,-2.1961,-2.192,-2.2241,-2.1899,-2.1731,-2.1683,-2.1281,-2.1101,-2.1155,-2.0521,-2.0154,-2.0262,0.0,0.0,0.0,0.0,0.0,0.0,0.0,0.0,0.0,0.0,0.0,0.0,0.0,0.0,0.0,-1.9601,0.0,-1.814,-1.8633,0.0,0.0,0.0,-2.0904,-2.1392,-2.1542,-2.1649,-2.1779,0.0,0.0,-2.251,-2.3226,-2.437,-2.6027,-2.6689,-2.7017,-2.7058,-2.8461,-2.9278,-2.8863,-2.9816,-3.0401,-3.0124,-3.048,-3.0987,-3.1364,-3.1361,-3.1514,-3.1877,-3.1907,-3.2093,-3.2332,-3.2097,-3.2056,-3.2957,-3.2724,-3.283,-3.4248,-3.5211,-3.5934,-3.6137,-3.5898,-3.5714,-2.0883,-2.0936,-2.1556,-2.1611,-2.1371,-2.1453,-2.1288,-2.104,-2.1114,-2.0743,-2.0105,-2.0096,-1.9524,-1.8629,-1.8584,-1.8733,-1.9098,-1.9409,-1.9605,-1.9785,-1.9821,-2.0027,-2.0377,-2.0987,-2.1394,-2.1674,-2.2509,-2.2891,-2.2862,-2.2629,-2.2461,-2.2353,-2.2083,-2.1706,-2.1223,-2.1371,-2.1634,-2.204,-2.205,-2.1874,-2.1481,-2.1412,-2.1243,-2.1025,-2.0926,-2.0867,-2.0876,-2.0777,-2.0729,-2.076,-2.0573,-2.0335,-2.0026,-1.9647,0.0,0.0,0.0,0.0,0.0,0.0,0.0,0.0,0.0,-1.9778,-1.9581,0.0,-2.0012,0.0,-1.9153,-1.8789,-1.8981,-1.8813,0.0,0.0,-2.0105,-2.0659,-2.0813,-2.1402,-2.1846,-2.1873,-2.2229,-2.251,-2.251,-2.2957,-2.344,-2.3887,-2.52,-2.6276,-2.6823,-2.7711,-2.8355,-2.8303,-2.9307,-3.0153,-3.0065,-3.0691,-3.1157,-3.1373,-3.106,-3.0849,-3.0956,-3.0602,-3.0364,-3.0507,-3.0676,-3.0854,-3.1099,-3.121,-3.1459,-3.1917,-3.2863,-3.384,-3.4225,-3.4279,-3.4306,-1.9482,-1.9457,-1.968,-1.9658,-1.9495,-2.0467,-2.0678,-2.0403,-2.0395,-2.0004,-1.9391,-1.8722,-1.845,-1.8427,-1.8009,-1.8009,-1.848,-1.8708,-1.8822,-1.8909,-1.8909,-1.9064,-1.9404,-1.9847,-2.021,-2.0543,-2.1197,-2.1705,-2.1926,-2.1953,-2.1919,-2.1943,-2.1709,-2.125,-2.0654,-2.1201,-2.1641,-2.1885,-2.1689,-2.166,-2.1777,-2.124,-2.0908,-2.0859,-2.0703,-2.0615,-2.0615,-2.0615,-2.0615,-2.0615,-2.0615,-2.0321,-1.9668,-1.9414,-1.9004,0.0,0.0,0.0,0.0,0.0,0.0,0.0,0.0,0.0,0.0,0.0,-1.9774,-1.9482,-1.8932,-1.8783,-1.9248,-1.9072,-1.917,-1.9832,-2.0321,-2.082,-2.1367,-2.1865,-2.2236,-2.2422,-2.2656,-2.275,-2.275,-2.2945,-2.3101,-2.3091,-2.4069,-2.4956,-2.5485,-2.6457,-2.7209,-2.7091,-2.8126,-2.9041,-2.9047,-2.9451,-2.9951,-3.0273,-3.0142,-2.9995,-3.0204,-3.0005,-2.9779,-2.983,-2.9972,-3.0113,-3.0152,-3.0305,-3.047,-3.0545,-3.0961,-3.1744,-3.2615,-3.2839,-3.2954,-1.7829,-1.7589,-1.7589,-1.7589,-1.7733,-1.9657,-2.021,-1.9933,-1.9894,-1.9511,-1.8887,-1.7623,-1.7598,-1.8326,-1.7505,-1.7598,-1.8373,-1.8427,-1.8442,-1.8448,-1.8448,-1.8555,-1.8736,-1.8859,-1.9069,-1.9387,-1.9694,-2.0104,-2.0563,-2.0741,-2.0825,-2.0828,-2.0841,-2.0709,-2.041,-2.1176,-2.1637,-2.1709,-2.1445,-2.158,-2.2227,-2.1143,-2.0742,-2.1073,-2.0771,-2.0615,-2.0615,-2.0615,-2.0615,-2.0615,-2.0615,-2.0263,-1.9539,-1.9394,-1.9033,0.0,-1.8203,0.0,0.0,0.0,0.0,0.0,0.0,0.0,0.0,-1.9781,-1.9656,-1.9325,-1.8957,-1.8954,-1.9418,-1.9504,-1.9901,-2.0674,-2.083,-2.1269,-2.2353,-2.2559,-2.2691,-2.3052,-2.3101,-2.3101,-2.3081,-2.3101,-2.3101,-2.3135,-2.3319,-2.3624,-2.3817,-2.5025,-2.5851,-2.558,-2.6548,-2.7448,-2.7702,-2.7777,-2.807,-2.8788,-2.8885,-2.9057,-2.9598,-2.9639,-2.9614,-2.9767,-2.9818,-2.983,-2.9792,-2.9779,-2.9818,-2.9856,-2.9808,-3.0128,-3.1223,-3.1687,-3.1889,-1.7635,-1.7589,-1.7589,-1.7589,-1.7621,-1.7846,-1.7717,-1.7412,-1.7169,-1.6856,-1.6469,-1.6184,-1.6204,-1.6339,-1.6197,-1.6197,-1.6379,-1.6386,-1.6441,-1.661,-1.661,-1.6663,-1.6847,-1.7484,-1.77,-1.7663,-1.8519,-1.8875,-1.8776,-1.8835,-1.8854,-1.8859,-1.9075,-1.9136,-1.9063,0.0,0.0,0.0,-2.1445,-2.1494,-2.0997,-2.0742,-2.0644,-2.0723,-2.0654,0.0,-2.0615,-2.0615,-2.0615,-2.0615,-2.0615,0.0,0.0,0.0,0.0,0.0,0.0,0.0,0.0,0.0,0.0,0.0,-1.8901,-1.8713,-1.8471,-1.9028,-1.939,-1.9316,-1.9513,-1.983,-2.0297,-2.0662,-2.1074,-2.1572,-2.1934,-2.2256,-2.25,-2.2769,-2.3013,-2.3081,-2.3101,-2.3101,-2.3101,-2.3101,-2.3101,-2.3091,-2.3135,-2.3188,-2.3232,-2.3868,-2.4268,-2.4272,-2.5232,-2.619,-2.6876,-2.7098,-2.7354,-2.7884,-2.7684,-2.7963,-2.8905,-2.8904,-2.8996,-2.9576,-2.9779,-2.9779,-2.9779,-2.9779,-2.9779,-2.9779,-2.9781,-2.9809,-3.0049,-3.0752,-3.1335,-1.7589,-1.7589,-1.7589,-1.7589,0.0,-1.7114,-1.6847,-1.6687,-1.64,-1.6106,-1.5832,-1.5825,-1.5825,-1.5825,-1.5825,-1.5825,-1.5825,-1.5825,-1.5846,-1.5932,-1.5932,-1.5996,-1.6088,-1.6451,-1.6555,-1.6382,-1.7003,-1.7339,-1.7357,-1.7448,-1.7738,-1.8196,-1.8218,-1.8463,-1.8899,-1.9394,-2.0058,-2.088,-2.1151,-2.1339,-2.1514,-2.1113,-2.0889,-2.0889,-2.0723,0.0,0.0,0.0,0.0,0.0,0.0,0.0,0.0,-1.9745,0.0,-1.8976,-1.8583,-1.8443,-1.8629,-1.829,-1.8067,-1.8062,-1.7683,-1.7838,-1.8601,-1.8828,-1.8976,-1.9205,-1.9394,-1.967,-2.0113,-2.054,-2.1081,-2.1761,-2.2044,-2.2279,-2.2716,-2.2955,-2.3091,-2.3101,-2.3101,-2.3101,-2.3101,-2.3101,-2.3101,-2.3101,-2.3101,-2.3101,-2.3135,-2.3319,-2.3527,-2.3754,-2.4348,-2.5137,-2.5841,-2.6091,-2.6505,-2.7186,-2.7081,-2.725,-2.8237,-2.8415,-2.8583,-2.9059,-2.9475,-2.9779,-2.9779,-2.9779,-2.9779,-2.9779,-2.9779,-2.9793,-2.9783,-3.0073,-3.0391,-1.7635,-1.7589,-1.7589,-1.7601,-1.7514,-1.6934,-1.6647,-1.6533,-1.6299,0.0,0.0,-1.5825,-1.5825,-1.5825,-1.5825,-1.5825,-1.5825,-1.5825,-1.5825,-1.5825,-1.5825,-1.5825,-1.5825,-1.5825,-1.5704,-1.5493,-1.5665,-1.5807,-1.6015,-1.6206,-1.6741,-1.7471,-1.7425,-1.781,-1.8752,-1.9241,-1.9929,-2.0768,-2.0608,-2.0952,-2.1868,-2.1231,-2.0873,-2.0883,-2.0556,-2.0372,-2.0372,-2.0284,-2.0284,-2.0372,-2.0333,-1.9975,-1.9353,-1.9248,-1.886,-1.8159,-1.7736,-1.7649,-1.7956,-1.7622,-1.7237,-1.6811,-1.6461,-1.7038,-1.8816,-1.8521,-1.8434,-1.8806,-1.8976,-1.9234,-1.9565,-2.0038,-2.0662,-2.146,-2.1497,-2.1845,-2.2585,-2.2818,-2.2828,-2.296,-2.3047,-2.3101,-2.3101,-2.3101,-2.3101,-2.3101,-2.3101,-2.3101,-2.3101,-2.3188,-2.3363,-2.3677,-2.4057,-2.4444,-2.4871,-2.5126,-2.5569,-2.6547,-2.6438,-2.6541,-2.7387,-2.7985,-2.8318,-2.8617,-2.926,-2.969,-2.9779,-2.9779,-2.9779,-2.9779,-2.9779,-2.9779,-2.978,-2.9682,-2.9662,-1.7822,-1.7589,-1.7589,-1.7487,-1.7239,-1.6847,-1.642,-1.5952,-1.5864,-1.5872,-1.5825,-1.5825,-1.5825,-1.5825,-1.5825,-1.5825,-1.5825,-1.5825,-1.5825,-1.5825,-1.5825,-1.5825,-1.5825,-1.5825,-1.5524,-1.5125,-1.5098,-1.4875,-1.4509,-1.465,-1.505,-1.559,-1.5841,-1.649,-1.7391,-1.755,-1.8165,-1.9309,-1.9823,-1.9959,-1.9759,-1.9647,-1.9592,-1.9583,-1.9536,-1.9499,-1.9499,-1.9183,-1.9134,-1.946,-1.9173,-1.9067,-1.9258,-1.8973,-1.8708,-1.8576,-1.8162,-1.7949,-1.7992,-1.7647,-1.7212,-1.6781,-1.6659,-1.6892,-1.7437,-1.7435,-1.7546,-1.7892,-1.8559,-1.9021,-1.914,-1.9739,-2.024,-2.0407,-2.0425,-2.0648,-2.1257,-2.1704,-2.2094,-2.2476,-2.2838,-2.3101,-2.3101,-2.3101,-2.3101,-2.3101,-2.3101,-2.3101,-2.3135,-2.3276,-2.345,-2.359,-2.3937,-2.4206,-2.4411,-2.4497,-2.4903,-2.5369,-2.5459,-2.5739,-2.6967,-2.749,-2.7992,-2.878,-2.933,-2.9689,-2.974,-2.9779,-2.9779,-2.9779,-2.9779,-2.9779,-2.9741,-2.9668,-2.953,-1.7709,-1.7589,-1.7589,-1.7508,-1.74,-1.6894,-1.6373,-1.5845,-1.5825,-1.5825,-1.5825,-1.5825,-1.5825,-1.5825,-1.5825,-1.5825,-1.5825,-1.5825,-1.5825,-1.5825,-1.5825,-1.5825,-1.5825,-1.5825,-1.5531,-1.5035,-1.5015,-1.4663,-1.4184,-1.4321,-1.4715,-1.5251,-1.5937,-1.6526,-1.6894,-1.7153,-1.7605,-1.8257,-1.888,-1.9309,-1.9545,-1.9138,-1.8917,-1.8908,-1.8722,-1.8607,-1.8607,-1.8407,-1.8407,-1.8607,-1.8407,-1.8327,-1.8256,-1.8086,-1.7893,-1.7619,-1.7204,-1.696,-1.6968,-1.6558,-1.6196,-1.6046,-1.5997,-1.6217,-1.6726,-1.698,-1.7257,-1.7582,-1.8186,-1.852,-1.8528,-1.9082,-1.953,-1.9795,-1.9786,-2.0022,-2.052,-2.1159,-2.1606,-2.2015,-2.2564,-2.2969,-2.3101,-2.3101,-2.3101,-2.3101,-2.3101,-2.3101,-2.3101,-2.3329,-2.3493,-2.3493,-2.3667,-2.3937,-2.4153,-2.4249,-2.4583,-2.5073,-2.4931,-2.5232,-2.6235,-2.6753,-2.7278,-2.7939,-2.8753,-2.9353,-2.9417,-2.9624,-2.974,-2.9779,-2.9779,-2.9704,-2.9402,-2.89,-2.8581,-1.7702,-1.7589,-1.7589,-1.7561,-1.7335,-1.6754,-1.6246,-1.5845,-1.5825,-1.5825,-1.5825,-1.5825,-1.5825,-1.5825,-1.5825,-1.5825,-1.5825,-1.5825,-1.5825,-1.5825,-1.5825,-1.5825,-1.5818,-1.5724,-1.5464,-1.5062,-1.5015,-1.474,-1.4269,-1.4482,-1.4855,-1.5353,-1.6192,-1.6628,-1.658,-1.6876,-1.7172,-1.7478,-1.7782,-1.8436,-1.9267,-1.86,-1.8221,-1.8237,-1.7917,-1.7723,-1.7723,-1.7642,-1.7602,-1.7683,-1.7642,-1.748,-1.7277,-1.7164,-1.6968,-1.6566,-1.617,-1.5922,-1.5922,-1.5597,-1.5389,-1.5389,-1.5389,-1.5701,-1.6316,-1.6683,-1.704,-1.7402,-1.7734,-1.7932,-1.7971,-1.8218,-1.8627,-1.898,-1.9026,-1.9163,-1.9695,-2.0512,-2.1195,-2.1561,-2.2344,-2.2925,-2.3057,-2.3101,-2.314,-2.3281,-2.3169,-2.312,-2.3252,-2.3408,-2.3416,-2.346,-2.3547,-2.3807,-2.4153,-2.4249,-2.4497,-2.4988,-2.484,-2.5013,-2.5639,-2.6152,-2.6691,-2.7273,-2.8155,-2.8897,-2.9104,-2.9378,-2.9624,-2.9753,-2.9779,-2.9616,-2.9026,-2.8147,-2.7601,-1.8076,-1.7622,-1.7589,-1.7268,-1.676,-1.6179,-1.5899,-1.5832,-1.5825,-1.5825,-1.5825,-1.5825,-1.5825,-1.5825,-1.5825,-1.5825,-1.5825,-1.5825,-1.5825,-1.5825,-1.5825,-1.5825,-1.5792,-1.5565,-1.5271,-1.5028,-1.5008,-1.479,-1.4482,-1.4776,-1.5084,-1.5356,-1.5882,-1.6165,-1.6169,-1.6215,-1.6395,-1.6678,-1.6448,-1.6854,-1.7783,-1.7309,-1.7069,-1.7339,-1.6996,-1.6812,-1.6836,-1.6458,-1.6451,-1.6771,-1.65,-1.6451,-1.6689,-1.6409,-1.6211,-1.6121,-1.5722,-1.5472,-1.5472,-1.5423,-1.5389,-1.5389,-1.5389,-1.5694,-1.6287,-1.6411,-1.6728,-1.722,-1.735,-1.7426,-1.738,-1.7473,-1.7559,-1.7699,-1.7652,-1.7699,-1.8396,-1.9484,-2.0466,-2.1033,-2.2201,-2.3091,-2.3101,-2.3101,-2.3237,-2.3545,-2.3389,-2.3276,-2.3574,-2.3457,-2.3286,-2.3325,-2.3687,-2.4097,-2.4227,-2.4335,-2.4454,-2.4615,-2.4893,-2.5136,-2.5515,-2.6295,-2.7157,-2.7209,-2.7924,-2.8657,-2.9007,-2.9182,-2.939,-2.9789,-2.9804,-2.9603,-2.8938,-2.8059,-2.7515,-1.7809,-1.7589,-1.7589,-1.7241,-1.6687,-1.6259,-1.5992,-1.5832,-1.5825,-1.5825,-1.5825,-1.5825,-1.5825,-1.5825,-1.5825,-1.5825,-1.5825,-1.5825,-1.5825,-1.5825,-1.5825,-1.5738,-1.5571,-1.5458,-1.5157,-1.475,-1.4921,-1.481,-1.4643,-1.499,-1.535,-1.561,-1.5831,-1.5972,-1.6126,-1.6173,-1.6282,-1.6574,-1.6322,-1.6436,-1.6901,-1.6426,-1.6293,-1.6618,-1.6247,-1.6082,-1.6174,-1.6047,-1.5965,-1.5952,-1.5977,-1.5965,-1.5929,-1.5763,-1.568,-1.568,-1.5514,-1.5389,-1.5389,-1.5389,-1.5389,-1.5389,-1.5389,-1.5694,-1.6338,-1.6411,-1.663,-1.7155,-1.7286,-1.7286,-1.7286,-1.7286,-1.7286,-1.7286,-1.7286,-1.738,-1.7613,-1.9063,-2.0158,-2.0565,-2.1926,-2.2969,-2.3057,-2.3101,-2.3169,-2.3418,-2.3418,-2.3584,-2.376,-2.3838,-2.3799,-2.3668,-2.4088,-2.4319,-2.4099,-2.4024,-2.4196,-2.4495,-2.4897,-2.5237,-2.5626,-2.6214,-2.6903,-2.7121,-2.7906,-2.8611,-2.9145,-2.9419,-2.9647,-2.998,-2.9578,-2.9202,-2.8938,-2.8059,-2.7431,-1.7655,-1.7575,-1.7554,-1.7174,-1.6687,-1.6393,-1.6106,-1.5845,-1.5825,-1.5825,-1.5825,-1.5825,-1.5825,-1.5825,-1.5825,-1.5825,-1.5825,-1.5825,-1.5825,-1.5825,-1.5825,-1.5718,-1.5511,-1.5337,-1.5104,-1.483,-1.4897,-1.4937,-1.4917,-1.5284,-1.5625,-1.5805,-1.5825,-1.5872,-1.6076,-1.6123,-1.6163,-1.6353,-1.6163,-1.6211,-1.6371,-1.5881,-1.5742,-1.6131,-1.567,-1.5476,-1.5696,-1.5746,-1.5637,-1.5411,-1.5657,-1.5637,-1.5411,-1.5389,-1.5389,-1.5389,-1.5389,-1.5389,-1.5389,-1.5389,-1.5389,-1.5389,-1.5389,-1.5694,-1.6257,-1.6411,-1.666,-1.723,-1.7286,-1.7286,-1.7286,-1.7286,-1.7286,-1.7286,-1.7286,-1.7286,-1.7426,-1.8696,-1.9662,-2.0022,-2.1237,-2.2393,-2.2761,-2.2979,-2.314,-2.3369,-2.3496,-2.3691,-2.376,-2.3916,-2.3851,-2.3672,-2.4002,-2.4143,-2.3927,-2.4095,-2.4239,-2.4518,-2.4939,-2.5261,-2.5632,-2.6044,-2.6498,-2.6764,-2.7699,-2.8448,-2.8889,-2.9349,-3.0027,-3.0229,-2.9905,-2.9176,-2.8925,-2.8109,-2.757,-1.7856,-1.7555,-1.7333,-1.6987,-1.668,-1.638,-1.6099,-1.5825,-1.5825,-1.5825,-1.5825,-1.5825,-1.5825,-1.5825,-1.5825,-1.5825,-1.5825,-1.5825,-1.5838,-1.5852,-1.5852,-1.5784,-1.5724,-1.5257,-1.5169,-1.5251,-1.5084,-1.5237,-1.5644,-1.5724,-1.5818,-1.5825,-1.5825,-1.5825,-1.5825,-1.5832,-1.5825,-1.5872,-1.5832,-1.592,-1.6123,-1.5657,-1.5522,-1.566,-1.5362,-1.5154,-1.5189,-1.5335,-1.5411,-1.5396,-1.5433,-1.5467,-1.5389,-1.5389,-1.5389,-1.5389,-1.5389,-1.5389,-1.5389,-1.5389,-1.5389,-1.5389,-1.5396,-1.5694,-1.6279,-1.6411,-1.666,-1.722,-1.7286,-1.7286,-1.7286,-1.7286,-1.7286,-1.7286,-1.7286,-1.7286,-1.7286,-1.8241,-1.8956,-1.9438,-2.0439,-2.1506,-2.2231,-2.277,-2.3227,-2.3496,-2.3418,-2.3315,-2.3672,-2.3516,-2.3344,-2.3276,-2.335,-2.3438,-2.3955,-2.4131,-2.4446,-2.475,-2.481,-2.5119,-2.523,-2.5469,-2.5889,-2.6422,-2.7302,-2.8057,-2.8569,-2.9256,-3.0103,-3.0386,-3.0192,-2.9704,-2.9377,-2.8599,-2.8059,-1.7682,-1.7535,-1.7068,-1.68,-1.666,-1.6192,-1.5878,-1.5832,-1.5825,-1.5825,-1.5825,-1.5825,-1.5825,-1.5825,-1.5825,-1.5825,-1.5825,-1.5825,-1.5932,-1.6092,-1.6112,-1.6112,-1.6066,-1.5698,-1.5451,-1.5378,-1.5297,-1.5444,-1.5785,-1.5825,-1.5825,-1.5825,-1.5825,-1.5825,-1.5825,-1.5825,-1.5825,-1.5825,-1.5825,-1.5792,-1.5658,-1.5316,-1.5111,-1.4953,-1.4959,-1.5049,-1.517,-1.539,-1.5431,-1.5229,-1.5536,-1.56,-1.5418,-1.5389,-1.5389,-1.5389,-1.5389,-1.5389,-1.5389,-1.5389,-1.5389,-1.5389,-1.5389,-1.5694,-1.6213,-1.6382,-1.6638,-1.7165,-1.7286,-1.7286,-1.7286,-1.7286,-1.7286,-1.7286,-1.7286,-1.7286,-1.7466,-1.8187,-1.8935,-1.944,-2.0639,-2.1954,-2.2486,-2.296,-2.3149,-2.3305,-2.3467,-2.3594,-2.375,-2.3838,-2.3734,-2.3662,-2.3769,-2.3906,-2.382,-2.386,-2.4048,-2.4392,-2.4661,-2.4977,-2.5161,-2.5509,-2.5942,-2.6379,-2.7144,-2.8043,-2.8704,-2.9922,-3.0636,-3.0926,-3.0696,-3.0394,-3.0068,-2.9277,-2.875,-1.7589,-1.7522,-1.7161,-1.6874,-1.666,-1.6231,-1.5999,-1.5845,-1.5825,-1.5825,-1.5825,-1.5825,-1.5825,-1.5825,-1.5825,-1.5825,-1.5825,-1.5832,-1.5891,-1.6126,-1.6281,-1.6273,-1.6226,-1.5972,-1.5731,-1.5671,-1.5578,-1.5598,-1.5805,-1.5825,-1.5825,-1.5825,-1.5825,-1.5825,-1.5825,-1.5825,-1.5825,-1.5825,-1.5825,-1.5725,-1.5511,-1.5157,-1.4914,-1.4713,-1.4663,-1.4726,-1.4927,-1.5184,-1.5227,-1.5063,-1.5424,-1.5573,-1.5418,-1.5389,-1.5389,-1.5389,-1.5389,-1.5389,-1.5389,-1.5389,-1.5389,-1.5389,-1.5403,-1.5694,-1.6279,-1.6411,-1.6682,-1.715,-1.7286,-1.7286,-1.7286,-1.7286,-1.7286,-1.7286,-1.7286,-1.7286,-1.7326,-1.8011,-1.8733,-1.9502,-2.0802,-2.2012,-2.2688,-2.295,-2.3081,-2.3101,-2.3364,-2.3564,-2.3633,-2.3779,-2.3881,-2.3662,-2.373,-2.3676,-2.3584,-2.3506,-2.3751,-2.4115,-2.4493,-2.4778,-2.5039,-2.5453,-2.59,-2.6346,-2.7113,-2.8055,-2.9176,-3.0446,-3.1128,-3.1508,-3.1449,-3.116,-3.0633,-2.9966,-2.9402,-1.7589,-1.7575,-1.7621,-1.7201,-1.6767,-1.662,-1.6333,-1.5912,-1.5784,-1.5825,-1.5825,-1.5825,-1.5825,-1.5825,-1.5825,-1.5825,-1.5825,-1.5825,-1.5818,-1.5939,-1.6186,-1.6326,-1.6382,-1.6072,-1.6019,-1.6159,-1.5939,-1.5838,-1.5858,-1.5818,-1.5832,-1.5845,-1.5791,-1.5825,-1.5825,-1.5825,-1.5825,-1.5825,-1.5825,-1.5758,-1.5752,-1.5264,-1.5015,-1.4856,-1.4459,-1.4269,-1.4426,-1.4629,-1.4727,-1.4748,-1.4971,-1.5229,-1.5354,-1.5418,-1.5403,-1.5403,-1.5403,-1.5411,-1.5389,-1.5389,-1.5389,-1.5445,-1.5403,-1.5738,-1.6287,-1.6448,-1.6674,-1.7194,-1.7286,-1.7286,-1.7286,-1.7286,-1.7286,-1.7286,-1.7286,-1.7286,-1.7375,-1.7629,-1.8346,-1.9643,-2.0782,-2.1484,-2.2149,-2.278,-2.3091,-2.3101,-2.314,-2.3188,-2.3198,-2.3276,-2.3159,-2.3149,-2.3276,-2.3344,-2.3218,-2.3164,-2.3541,-2.3915,-2.4295,-2.4607,-2.4717,-2.5044,-2.5633,-2.615,-2.6925,-2.7927,-2.9546,-3.0716,-3.1394,-3.1722,-3.1768,-3.1788,-3.1223,-3.0608,-2.9966,-1.7589,-1.7608,-1.7414,-1.7246,-1.7005,-1.6636,-1.6286,-1.6112,-1.5925,-1.5825,-1.5825,-1.5825,-1.5825,-1.5825,-1.5825,-1.5825,-1.5825,-1.5832,-1.5939,-1.6146,-1.6426,-1.6673,-1.6817,-1.6567,-1.6373,-1.6239,-1.5972,-1.6046,-1.6279,-1.5977,-1.5919,-1.6066,-1.5932,-1.5832,-1.5838,-1.5825,-1.5825,-1.5825,-1.5825,-1.5738,-1.5551,-1.5357,-1.5077,-1.4689,-1.4469,-1.4338,-1.4222,-1.4405,-1.4482,-1.4482,-1.4699,-1.4957,-1.5202,-1.5558,-1.5615,-1.5482,-1.5608,-1.5608,-1.5418,-1.5389,-1.5389,-1.5474,-1.5621,-1.5935,-1.6375,-1.6617,-1.6865,-1.7267,-1.7286,-1.7286,-1.7286,-1.7286,-1.7286,-1.7286,-1.7286,-1.7326,-1.7385,-1.7793,-1.8816,-2.0129,-2.0889,-2.164,-2.2519,-2.3071,-2.3091,-2.3101,-2.3101,-2.3101,-2.3101,-2.3101,-2.3101,-2.3101,-2.3101,-2.3101,-2.3101,-2.3164,-2.3399,-2.3718,-2.4058,-2.4357,-2.4486,-2.4825,-2.5402,-2.5995,-2.6788,-2.7965,-2.9594,-3.0697,-3.1272,-3.203,-3.2298,-3.2102,-3.1738,-3.1173,-3.0482,-1.7589,-1.7562,-1.7434,-1.73,-1.7172,-1.6784,-1.6516,-1.6286,-1.6192,-1.6032,-1.5885,-1.5952,-1.5925,-1.5845,-1.5825,-1.5825,-1.5798,-1.5932,-1.6092,-1.6348,-1.6573,-1.6814,-1.6961,-1.6807,-1.6553,-1.6266,-1.5972,-1.6079,-1.6506,-1.6199,-1.6146,-1.6339,-1.6246,-1.6099,-1.6005,-1.5992,-1.5952,-1.5852,-1.5825,-1.5698,-1.5578,-1.5451,-1.5217,-1.489,-1.4743,-1.4596,-1.4465,-1.4431,-1.4394,-1.4348,-1.4531,-1.4873,-1.5195,-1.5529,-1.56,-1.5491,-1.5542,-1.5586,-1.5418,-1.5389,-1.5389,-1.5447,-1.5731,-1.6045,-1.6397,-1.6712,-1.7035,-1.726,-1.7286,-1.7286,-1.7286,-1.7286,-1.7286,-1.7286,-1.7286,-1.736,-1.7497,-1.7829,-1.885,-2.014,-2.0888,-2.1702,-2.265,-2.3101,-2.3101,-2.3101,-2.3101,-2.3101,-2.3101,-2.3101,-2.3101,-2.3101,-2.3101,-2.3101,-2.3101,-2.3174,-2.3276,-2.3545,-2.3894,-2.4068,-2.4262,-2.4781,-2.5331,-2.5793,-2.6484,-2.7632,-2.9182,-3.0061,-3.077,-3.1653,-3.2692,-3.2315,-3.1901,-3.1424,-3.0783,-1.7589,-1.7589,-1.7582,-1.7474,-1.7253,-1.7172,-1.6871,-1.6489,-1.6553,-1.638,-1.6052,-1.6192,-1.6139,-1.5864,-1.5945,-1.5952,-1.5864,-1.6179,-1.6299,-1.6406,-1.662,-1.6807,-1.682,-1.6754,-1.66,-1.6435,-1.6052,-1.6092,-1.6526,-1.638,-1.6446,-1.6693,-1.666,-1.654,-1.6279,-1.6308,-1.6106,-1.5858,-1.5825,-1.5771,-1.5738,-1.5585,-1.5404,-1.5344,-1.5117,-1.5001,-1.4894,-1.47,-1.4396,-1.4226,-1.4496,-1.4866,-1.5257,-1.5403,-1.5518,-1.5469,-1.544,-1.5528,-1.5469,-1.5584,-1.5577,-1.5613,-1.5884,-1.6074,-1.6477,-1.68,-1.7047,-1.7242,-1.7286,-1.7286,-1.7286,-1.7286,-1.7286,-1.7286,-1.7286,-1.7433,-1.7727,-1.7799,-1.8761,-2.0175,-2.0761,-2.1323,-2.2853,-2.3091,-2.3101,-2.3101,-2.3101,-2.3101,-2.3101,-2.3101,-2.3101,-2.3101,-2.3101,-2.3218,-2.3257,-2.3389,-2.3511,-2.3925,-2.4068,-2.4017,-2.4183,-2.4713,-2.5338,-2.5781,-2.6259,-2.7451,-2.8691,-2.9749,-3.1039,-3.2336,-3.2729,-3.2403,-3.2077,-3.1675,-3.1122,-1.7589,-1.7589,-1.7589,-1.7542,-1.7435,-1.73,-1.7119,-1.6945,-1.676,-1.664,-1.65,-1.6553,-1.6426,-1.6192,-1.6373,-1.6366,-1.6266,-1.646,-1.6593,-1.664,-1.6951,-1.7072,-1.7032,-1.6814,-1.6787,-1.6851,-1.6413,-1.6533,-1.7148,-1.678,-1.6754,-1.7058,-1.684,-1.6587,-1.6319,-1.6306,-1.6119,-1.5872,-1.5832,-1.5791,-1.5818,-1.5758,-1.5605,-1.5404,-1.5324,-1.5216,-1.5042,-1.489,-1.4603,-1.4177,-1.4496,-1.4734,-1.4985,-1.5417,-1.5695,-1.5739,-1.5965,-1.6104,-1.6089,-1.6089,-1.6104,-1.6148,-1.636,-1.669,-1.6763,-1.7018,-1.7223,-1.7286,-1.7286,-1.7286,-1.7286,-1.7286,-1.7286,-1.7286,-1.7286,-1.744,-1.7697,-1.7932,-1.8636,-2.0305,-2.075,-2.154,-2.2616,-2.3101,-2.3101,-2.3101,-2.3101,-2.3101,-2.3101,-2.3101,-2.3101,-2.3101,-2.313,-2.3369,-2.3506,-2.3594,-2.3859,-2.4354,-2.4395,-2.4108,-2.4285,-2.4597,-2.5293,-2.5931,-2.6141,-2.7089,-2.8688,-3.0083,-3.1516,-3.2455,-3.2732,-3.2469,-3.2428,-3.2114,-3.1499,-1.7463,-1.7265,-1.7535,-1.7589,-1.7569,-1.7454,-1.7313,-1.7213,-1.7108,-1.6921,-1.6787,-1.6847,-1.6727,-1.6493,-1.662,-1.6613,-1.6506,-1.676,-1.6881,-1.6998,-1.7246,-1.7373,-1.7313,-1.7092,-1.7038,-1.7132,-1.6687,-1.6827,-1.7228,-1.7041,-1.7125,-1.7313,-1.7168,-1.6978,-1.6744,-1.6683,-1.6426,-1.6106,-1.6012,-1.5972,-1.5838,-1.5825,-1.5704,-1.5598,-1.5571,-1.5444,-1.5197,-1.5144,-1.4959,-1.4704,-1.4809,-1.5014,-1.5191,-1.5488,-1.5739,-1.5856,-1.6089,-1.6162,-1.6206,-1.6279,-1.6411,-1.6463,-1.6712,-1.6866,-1.6947,-1.7143,-1.7286,-1.7286,-1.7286,-1.7286,-1.7286,-1.7286,-1.7286,-1.7286,-1.7286,-1.7385,-1.7568,-1.7636,-1.8564,-1.9892,-2.0658,-2.1265,-2.2833,-2.3091,-2.3101,-2.3101,-2.3101,-2.3101,-2.3101,-2.311,-2.3149,-2.3208,-2.3335,-2.3603,-2.3818,-2.3926,-2.417,-2.4657,-2.4802,-2.4467,-2.4381,-2.4575,-2.5156,-2.5735,-2.6074,-2.6812,-2.8345,-2.9635,-3.0392,-3.1229,-3.1969,-3.2397,-3.2206,-3.2164,-3.1599,-1.7238,-1.6878,-1.733,-1.7555,-1.7582,-1.7575,-1.7481,-1.7333,-1.7435,-1.7275,-1.6974,-1.7088,-1.7072,-1.6754,-1.6854,-1.6794,-1.6774,-1.7105,-1.7219,-1.732,-1.7474,-1.7542,-1.7548,-1.728,-1.7213,-1.7226,-1.6901,-1.6967,-1.7259,-1.7273,-1.7321,-1.7482,-1.7535,-1.7395,-1.7152,-1.7132,-1.6884,-1.6413,-1.6313,-1.6226,-1.6066,-1.6025,-1.5985,-1.5885,-1.5785,-1.5685,-1.5504,-1.5418,-1.5372,-1.5248,-1.5229,-1.5432,-1.5756,-1.5595,-1.5752,-1.5987,-1.6089,-1.6074,-1.6133,-1.6411,-1.6477,-1.6579,-1.6844,-1.6947,-1.7035,-1.7194,-1.7286,-1.7286,-1.7286,-1.7286,-1.7286,-1.7286,-1.7286,-1.7286,-1.7286,-1.7286,-1.7362,-1.7372,-1.8079,-1.9962,-2.0317,-2.123,-2.247,-2.3169,-2.3188,-2.3379,-2.3379,-2.3393,-2.3461,-2.3559,-2.353,-2.3471,-2.3682,-2.3887,-2.4092,-2.4277,-2.458,-2.493,-2.5143,-2.4975,-2.455,-2.4661,-2.5047,-2.5459,-2.5899,-2.6617,-2.7698,-2.8696,-2.9357,-3.0356,-3.1357,-3.1546,-3.1518,-3.1684,-3.1373,-1.6911,-1.6814,-1.6924,-1.7232,-1.7569,-1.7582,-1.7549,-1.7548,-1.7549,-1.7495,-1.7415,-1.7514,-1.7315,-1.7119,-1.7235,-1.7281,-1.7152,-1.7328,-1.7488,-1.7548,-1.7581,-1.7582,-1.7581,-1.7353,-1.7347,-1.74,-1.7239,-1.7266,-1.7467,-1.7462,-1.7515,-1.7569,-1.7569,-1.7442,-1.7259,-1.7226,-1.7038,-1.6667,-1.6613,-1.6573,-1.6493,-1.6453,-1.6359,-1.6166,-1.5959,-1.5812,-1.5758,-1.5738,-1.5658,-1.5622,-1.5586,-1.5653,-1.5825,-1.6002,-1.6265,-1.6492,-1.6441,-1.6477,-1.685,-1.6821,-1.6857,-1.7047,-1.7113,-1.7223,-1.723,-1.7267,-1.7286,-1.7286,-1.7286,-1.7286,-1.7286,-1.7286,-1.7286,-1.7286,-1.7286,-1.7388,-1.7614,-1.7554,-1.8603,-2.0285,-2.1005,-2.1581,-2.3306,-2.3588,-2.3643,-2.3643,-2.3711,-2.3809,-2.3906,-2.4004,-2.3965,-2.3867,-2.4102,-2.4326,-2.4521,-2.4717,-2.4961,-2.5185,-2.5342,-2.5429,-2.5023,-2.485,-2.528,-2.5513,-2.5729,-2.653,-2.7314,-2.7793,-2.8507,-2.961,-3.0604,-3.0864,-3.108,-3.1174,-3.1405,-1.7029,-1.6827,-1.7042,-1.7344,-1.7569,-1.7589,-1.7589,-1.7589,-1.7589,-1.7589,-1.7589,-1.7589,-1.7488,-1.742,-1.7502,-1.7482,-1.7415,-1.7495,-1.7582,-1.7575,-1.7582,-1.7582,-1.7575,-1.7507,-1.7494,-1.7555,-1.7494,-1.7521,-1.7549,-1.7589,-1.7575,-1.7589,-1.7589,-1.7522,-1.7427,-1.74,-1.7253,-1.6974,-1.6907,-1.6854,-1.6727,-1.67,-1.6567,-1.6326,-1.6112,-1.5992,-1.5832,-1.5818,-1.5792,-1.5792,-1.586,-1.5976,-1.6048,-1.6158,-1.6416,-1.6793,-1.6771,-1.6763,-1.6974,-1.7106,-1.715,-1.7304,-1.7286,-1.7286,-1.7286,-1.7286,-1.7286,-1.7286,-1.7286,-1.7286,-1.7286,-1.7286,-1.7286,-1.7286,-1.7286,-1.7523,-1.7905,-1.7989,-1.8664,-2.056,-2.1301,-2.2235,-2.3216,-2.3874,-2.4082,-2.4082,-2.4082,-2.417,-2.416,-2.4248,-2.4287,-2.4316,-2.456,-2.4775,-2.498,-2.5156,-2.5332,-2.5469,-2.5557,-2.5643,-2.552,-2.5501,-2.5521,-2.5635,-2.5661,-2.6051,-2.6729,-2.7217,-2.7646,-2.85,-2.9339,-3.0102,-3.0663,-3.0798,-3.1111,-1.7055,-1.6645,-1.7048,-1.7278,-1.7403,-1.7403,-1.7449,-1.7463,-1.7569,-1.7589,-1.7589,-1.7589,-1.7569,-1.7575,-1.7575,-1.7589,-1.7562,-1.7495,-1.7482,-1.7635,-1.7589,-1.7589,-1.7575,-1.7562,-1.7549,-1.7582,-1.7555,-1.7575,-1.7575,-1.7589,-1.7589,-1.7589,-1.7589,-1.7562,-1.7569,-1.7562,-1.7448,-1.7241,-1.7266,-1.7134,-1.6947,-1.6901,-1.676,-1.6526,-1.6373,-1.6199,-1.6005,-1.5932,-1.5885,-1.5832,-1.6028,-1.6221,-1.6324,-1.6325,-1.6316,-1.6885,-1.6872,-1.6947,-1.7004,-1.7128,-1.7223,-1.7257,-1.7286,-1.7286,-1.7286,-1.7286,-1.7286,-1.7286,-1.7286,-1.7286,-1.7286,-1.7286,-1.7286,-1.7301,-1.7362,-1.7684,-1.8118,-1.8464,-1.9375,-2.0788,-2.1681,-2.2489,-2.3556,-2.4375,-2.4453,-2.4465,-2.4521,-2.4541,-2.4551,-2.4609,-2.4727,-2.4824,-2.5068,-2.5156,-2.5332,-2.5371,-2.5528,-2.5577,-2.5654,-2.5751,-2.5837,-2.5757,-2.5615,-2.5465,-2.5604,-2.5971,-2.6222,-2.6574,-2.7041,-2.7536,-2.8306,-2.9282,-2.9869,-3.0332,-3.0721,-1.6068,-1.5701,-1.557,-1.591,-1.6516,-1.6821,-1.6996,-1.7016,-1.7449,-1.7582,-1.7589,-1.7589,-1.7589,-1.7589,-1.7589,-1.7589,-1.7588,-1.7428,-1.7454,-1.7608,-1.7589,-1.7589,-1.7589,-1.7589,-1.7589,-1.7589,-1.7589,-1.7589,-1.7589,-1.7589,-1.7589,-1.7589,-1.7589,-1.7589,-1.7589,-1.7582,-1.7562,-1.7475,-1.7514,-1.7408,-1.7368,-1.7328,-1.7208,-1.6978,-1.6784,-1.6493,-1.6266,-1.6186,-1.6092,-1.5818,-1.5832,-1.6008,-1.6277,-1.6582,-1.6754,-1.6933,-1.6926,-1.6996,-1.7165,-1.7047,-1.7121,-1.7245,-1.7286,-1.7286,-1.7286,-1.7286,-1.7286,-1.7286,-1.7286,-1.7286,-1.7286,-1.7301,-1.7301,-1.7352,-1.7534,-1.7874,-1.8321,-1.8863,-1.9852,-2.1401,-2.2002,-2.2433,-2.337,-2.423,-2.4506,-2.4668,-2.4866,-2.504,-2.5205,-2.5235,-2.5352,-2.5488,-2.5586,-2.5577,-2.5615,-2.5596,-2.5645,-2.5635,-2.5674,-2.5674,-2.5732,-2.5761,-2.5662,-2.5575,-2.5555,-2.5821,-2.6018,-2.6142,-2.6504,-2.7072,-2.7831,-2.8556,-2.9081,-2.9586,-3.0091,-1.6151,-1.5746,-1.5607,-1.5948,-1.6497,-1.6704,-1.6944,-1.7232,-1.7476,-1.7589,-1.7589,-1.7589,-1.7589,-1.7589,-1.7589,-1.7589,-1.7535,-1.7462,-1.7462,-1.7575,-1.7589,-1.7589,-1.7589,-1.7589,-1.7589,-1.7589,-1.7589,-1.7589,-1.7589,-1.7589,-1.7589,-1.7589,-1.7589,-1.7589,-1.7589,-1.7589,-1.7589,-1.7589,-1.7589,-1.7589,-1.7589,-1.7589,-1.7481,-1.7233,-1.7065,-1.6794,-1.656,-1.65,-1.644,-1.6293,-1.6146,-1.6134,-1.6272,-1.647,-1.6711,-1.6918,-1.6969,-1.7057,-1.725,-1.7172,-1.7201,-1.7296,-1.7286,-1.7286,-1.7286,-1.7286,-1.7286,-1.7286,-1.7293,-1.7359,-1.7567,-1.7443,-1.7501,-1.7757,-1.786,-1.8064,-1.8486,-1.891,-2.0073,-2.1425,-2.1644,-2.1991,-2.2788,-2.3614,-2.4341,-2.4803,-2.5093,-2.5382,-2.5664,-2.5684,-2.5684,-2.5684,-2.5674,-2.5674,-2.5684,-2.5684,-2.5684,-2.5684,-2.5684,-2.5684,-2.5684,-2.5732,-2.5732,-2.57,-2.5734,-2.5784,-2.5886,-2.6056,-2.6341,-2.6568,-2.7045,-2.761,-2.8287,-2.8832,-2.9353,-1.6407,-1.6037,-1.5764,-1.6024,-1.6555,-1.6574,-1.6808,-1.7311,-1.7457,-1.7536,-1.7589,-1.7589,-1.7589,-1.7569,-1.7528,-1.7515,-1.7608,-1.7528,-1.7495,-1.7575,-1.7589,-1.7589,-1.7589,-1.7589,-1.7589,-1.7589,-1.7589,-1.7589,-1.7589,-1.7589,-1.7589,-1.7589,-1.7589,-1.7589,-1.7589,-1.7589,-1.7589,-1.7589,-1.7589,-1.7589,-1.7589,-1.7575,-1.7541,-1.7313,-1.7286,-1.7094,-1.6827,-1.6794,-1.6734,-1.662,-1.648,-1.6353,-1.6368,-1.6339,-1.6525,-1.689,-1.6975,-1.7073,-1.7192,-1.7279,-1.7296,-1.7286,-1.7286,-1.7286,-1.7286,-1.7286,-1.7286,-1.7286,-1.7381,-1.753,-1.7706,-1.7607,-1.7801,-1.8064,-1.8138,-1.8189,-1.8591,-1.9029,-1.9424,-2.0347,-2.0853,-2.1586,-2.2348,-2.3434,-2.4275,-2.4664,-2.4956,-2.5479,-2.5684,-2.5684,-2.5684,-2.5684,-2.5684,-2.5684,-2.5684,-2.5684,-2.5684,-2.5684,-2.5684,-2.5684,-2.5684,-2.5684,-2.5732,-2.5741,-2.579,-2.5864,-2.5922,-2.6036,-2.6259,-2.6415,-2.6394,-2.6775,-2.7541,-2.8175,-2.8699,-1.619,-1.6157,-1.4992,-1.5066,-1.5937,-1.5833,-1.5966,-1.6568,-1.7081,-1.7384,-1.7589,-1.7589,-1.7589,-1.7542,-1.7393,-1.744,-1.7455,-1.7454,-1.746,-1.7562,-1.7589,-1.7589,-1.7589,-1.7589,-1.7555,-1.7601,-1.7569,-1.7589,-1.7608,-1.7608,-1.7589,-1.7589,-1.7589,-1.7589,-1.7589,-1.7589,-1.7589,-1.7589,-1.7589,-1.7589,-1.7589,-1.7589,-1.7549,-1.7522,-1.7482,-1.7375,-1.7128,-1.7139,-1.7065,-1.6787,-1.6707,-1.6653,-1.664,-1.6633,-1.6657,-1.6773,-1.688,-1.6979,-1.7073,-1.72,-1.7286,-1.7286,-1.7286,-1.7286,-1.7286,-1.7286,-1.7286,-1.7293,-1.7512,-1.7794,-1.794,-1.8043,-1.8196,-1.8364,-1.8503,-1.8577,-1.884,-1.9008,-1.942,-1.9494,-2.0072,-2.1004,-2.1896,-2.3082,-2.4177,-2.4501,-2.4913,-2.5372,-2.5684,-2.5684,-2.5684,-2.5684,-2.5684,-2.5684,-2.5684,-2.5684,-2.5684,-2.5684,-2.5684,-2.5684,-2.5684,-2.5684,-2.5684,-2.5713,-2.5781,-2.5868,-2.5896,-2.6021,-2.6186,-2.629,-2.638,-2.6594,-2.6897,-2.7499,-2.8081,-1.5415,-1.4857,-1.4795,-1.5192,-1.5832,-1.5785,-1.6149,-1.6761,-1.7068,-1.7331,-1.7589,-1.7589,-1.7589,-1.7549,-1.7487,-1.7462,-1.7588,-1.7494,-1.7455,-1.7555,-1.7589,-1.7589,-1.7589,-1.7569,-1.7535,-1.7487,-1.7521,-1.7455,-1.7501,-1.7568,-1.7589,-1.7589,-1.7589,-1.7589,-1.7589,-1.7589,-1.7589,-1.7589,-1.7589,-1.7589,-1.7589,-1.7589,-1.7589,-1.7589,-1.7589,-1.7502,-1.7474,-1.744,-1.74,-1.7174,-1.7074,-1.7005,-1.6907,-1.6807,-1.6677,-1.6702,-1.6918,-1.7022,-1.7011,-1.7095,-1.716,-1.7279,-1.7286,-1.7286,-1.7286,-1.7301,-1.7388,-1.7604,-1.7728,-1.7955,-1.8218,-1.8306,-1.854,-1.8716,-1.8803,-1.8899,-1.9008,-1.9133,-1.9309,-1.9324,-1.9376,-2.0328,-2.1285,-2.2433,-2.3335,-2.3692,-2.451,-2.5479,-2.5684,-2.5684,-2.5684,-2.5684,-2.5684,-2.5684,-2.5684,-2.5684,-2.5684,-2.5684,-2.5684,-2.5684,-2.5684,-2.5684,-2.5684,-2.5684,-2.5732,-2.582,-2.5868,-2.5907,-2.5984,-2.6187,-2.639,-2.6496,-2.6651,-2.6938,-2.7489,-1.4652,-1.377,-1.4696,-1.5454,-1.5956,-1.5848,-1.6273,-1.6995,-1.706,-1.7272,-1.7529,-1.7589,-1.7589,-1.7582,-1.7569,-1.7562,-1.7582,-1.7589,-1.7589,-1.7589,-1.7589,-1.7589,-1.7589,-1.7569,-1.7482,-1.7306,-1.7495,-1.7488,-1.7428,-1.7462,-1.7589,-1.7589,-1.7589,-1.7589,-1.7589,-1.7589,-1.7589,-1.7589,-1.7589,-1.7589,-1.7589,-1.7589,-1.7589,-1.7589,-1.7589,-1.7589,-1.7589,-1.7628,-1.7615,-1.7554,-1.7368,-1.7306,-1.728,-1.7114,-1.6941,-1.6962,-1.7082,-1.709,-1.7029,-1.7065,-1.7065,-1.7174,-1.7286,-1.7286,-1.734,-1.7377,-1.7508,-1.7772,-1.8057,-1.8343,-1.8606,-1.8613,-1.8833,-1.8986,-1.9111,-1.9192,-1.925,-1.925,-1.9272,-1.9272,-1.9376,-1.9524,-2.0585,-2.1735,-2.2484,-2.2835,-2.3899,-2.5372,-2.5684,-2.5684,-2.5684,-2.5684,-2.5684,-2.5684,-2.5684,-2.5684,-2.5684,-2.5684,-2.5684,-2.5684,-2.5684,-2.5684,-2.5684,-2.5684,-2.5684,-2.5732,-2.5771,-2.5781,-2.5781,-2.5965,-2.611,-2.6245,-2.639,-2.664,-2.688,-1.4117,-1.3429,-1.4591,-1.5512,-1.6209,-1.5759,-1.6011,-1.6776,-1.6723,-1.7087,-1.7582,-1.7589,-1.7589,-1.7589,-1.7589,-1.7589,-1.7589,-1.7589,-1.7589,-1.7589,-1.7589,-1.7589,-1.7589,-1.7575,-1.7542,-1.7462,-1.7542,-1.7555,-1.7588,-1.7488,-1.7569,-1.7589,-1.7589,-1.7589,-1.7589,-1.7589,-1.7589,-1.7589,-1.7589,-1.7589,-1.7589,-1.7589,-1.7589,-1.7589,-1.7589,-1.7589,-1.7589,-1.7589,-1.7589,-1.7635,-1.7522,-1.7495,-1.7455,-1.7422,-1.7281,-1.7213,-1.7172,-1.7187,-1.7102,-1.7037,-1.7019,-1.7079,-1.7189,-1.7352,-1.7374,-1.7647,-1.7786,-1.7925,-1.8313,-1.8621,-1.8862,-1.9016,-1.9125,-1.9162,-1.9184,-1.9206,-1.9242,-1.925,-1.9272,-1.9272,-1.9376,-1.9576,-2.038,-2.1633,-2.2551,-2.3003,-2.4205,-2.5684,-2.5684,-2.5684,-2.5684,-2.5684,-2.5684,-2.5684,-2.5684,-2.5684,-2.5684,-2.5684,-2.5684,-2.5684,-2.5684,-2.5684,-2.5684,-2.5684,-2.5684,-2.5684,-2.5684,-2.5732,-2.5732,-2.5781,-2.5868,-2.6062,-2.6197,-2.64,-2.6496,-1.3699,-1.389,-1.4539,-1.5282,-1.6033,-1.566,-1.5959,-1.6567,-1.6558,-1.6905,-1.7589,-1.7589,-1.7589,-1.7589,-1.7589,-1.7589,-1.7589,-1.7589,-1.7589,-1.7589,-1.7589,-1.7589,-1.7589,-1.7522,-1.7415,-1.7248,-1.7368,-1.7335,-1.7054,-1.7408,-1.7562,-1.7589,-1.7602,-1.7589,-1.7589,-1.7589,-1.7589,-1.7589,-1.7589,-1.7589,-1.7589,-1.7589,-1.7589,-1.7589,-1.7589,-1.7589,-1.7589,-1.7589,-1.7589,-1.7589,-1.7589,-1.7589,-1.7575,-1.7575,-1.7548,-1.7427,-1.74,-1.7304,-1.7184,-1.7086,-1.7107,-1.7248,-1.7306,-1.7387,-1.753,-1.7724,-1.8072,-1.8335,-1.8613,-1.8862,-1.9103,-1.9191,-1.925,-1.9272,-1.9272,-1.9272,-1.9272,-1.9272,-1.9272,-1.9272,-1.9428,-1.9635,-2.0585,-2.1641,-2.2501,-2.3311,-2.4677,-2.5684,-2.5684,-2.5684,-2.5684,-2.5684,-2.5684,-2.5684,-2.5684,-2.5684,-2.5684,-2.5684,-2.5684,-2.5684,-2.5684,-2.5684,-2.5684,-2.5684,-2.5684,-2.5684,-2.5684,-2.5684,-2.5732,-2.5732,-2.5771,-2.5917,-2.6062,-2.6159,-2.6255,-1.3393,-1.3852,-1.4174,-1.4922,-1.5808,-1.5692,-1.5931,-1.6367,-1.6461,-1.6853,-1.7589,-1.7589,-1.7589,-1.7589,-1.7589,-1.7589,-1.7589,-1.7589,-1.7589,-1.7589,-1.7589,-1.7589,-1.7589,-1.7542,-1.7422,-1.7121,-1.7261,-1.7341,-1.7128,-1.7415,-1.7542,-1.7609,-1.7669,-1.7695,-1.7589,-1.7589,-1.7589,-1.7589,-1.7589,-1.7589,-1.7589,-1.7589,-1.7589,-1.7589,-1.7589,-1.7589,-1.7589,-1.7589,-1.7589,-1.7589,-1.7589,-1.7589,-1.7555,-1.7515,-1.7514,-1.7487,-1.7368,-1.7255,-1.7224,-1.7184,-1.7181,-1.7225,-1.7386,-1.7525,-1.7678,-1.784,-1.8252,-1.8556,-1.8804,-1.903,-1.9279,-1.9272,-1.9272,-1.9272,-1.9272,-1.9272,-1.9272,-1.9272,-1.9272,-1.9272,-1.9576,-2.0086,-2.1251,-2.2409,-2.3511,-2.4223,-2.4922,-2.5684,-2.5684,-2.5684,-2.5684,-2.5684,-2.5684,-2.5684,-2.5684,-2.5684,-2.5684,-2.5684,-2.5684,-2.5684,-2.5684,-2.5684,-2.5684,-2.5684,-2.5684,-2.5684,-2.5684,-2.5684,-2.5684,-2.5684,-2.5801,-2.5879,-2.582,-2.5965,-2.6024,-1.3319,-1.3002,-1.3526,-1.4589,-1.5779,-1.5879,-1.5893,-1.6112,-1.6518,-1.7048,-1.7582,-1.7589,-1.7589,-1.7589,-1.7589,-1.7589,-1.7589,-1.7589,-1.7589,-1.7589,-1.7589,-1.7589,-1.7589,-1.7555,-1.7482,-1.7608,-1.7562,-1.7528,-1.7442,-1.7522,-1.7575,-1.7675,-1.7796,-1.7889,-1.7629,-1.7595,-1.7595,-1.7595,-1.7615,-1.7589,-1.7589,-1.7589,-1.7589,-1.7589,-1.7589,-1.7589,-1.7589,-1.7589,-1.7589,-1.7589,-1.7589,-1.7589,-1.7575,-1.7387,-1.73,-1.7306,-1.6981,-1.6954,-1.7159,-1.7126,-1.7189,-1.7227,-1.7399,-1.7548,-1.7661,-1.7967,-1.8311,-1.8541,-1.8846,-1.9147,-1.9279,-1.9272,-1.9272,-1.9272,-1.9272,-1.9272,-1.9272,-1.9272,-1.9272,-1.9376,-2.0086,-2.0842,-2.2064,-2.3279,-2.4578,-2.5284,-2.5528,-2.5684,-2.5684,-2.5684,-2.5684,-2.5684,-2.5684,-2.5684,-2.5684,-2.5684,-2.5684,-2.5684,-2.5684,-2.5684,-2.5684,-2.5684,-2.5684,-2.5684,-2.5684,-2.5684,-2.5684,-2.5684,-2.5684,-2.5693,-2.5771,-2.584,-2.5781,-2.5771,-2.5928,-1.1955,-1.2337,-1.3156,-1.4051,-1.4953,-1.4853,-1.5258,-1.6193,-1.6788,-1.7245,-1.7562,-1.7589,-1.7589,-1.7589,-1.7589,-1.7589,-1.7589,-1.7589,-1.7589,-1.7589,-1.7589,-1.7589,-1.7589,-1.7569,-1.7554,-1.7454,-1.7435,-1.7468,-1.7306,-1.7475,-1.7575,-1.7662,-1.7889,-1.8076,-1.8096,-1.8029,-1.7836,-1.7796,-1.7722,-1.7589,-1.7589,-1.7589,-1.7589,-1.7589,-1.7589,-1.7589,-1.7589,-1.7589,-1.7589,-1.7589,-1.7589,-1.7589,-1.7542,-1.7308,-1.7293,-1.7353,-1.7213,-1.7199,-1.7393,-1.7418,-1.7407,-1.7388,-1.7408,-1.7611,-1.7841,-1.7941,-1.8212,-1.8426,-1.8762,-1.8966,-1.9026,-1.9227,-1.9279,-1.9272,-1.9272,-1.9272,-1.9272,-1.9272,-1.9324,-1.9524,-2.0034,-2.1497,-2.287,-2.3728,-2.4932,-2.5489,-2.5635,-2.5684,-2.5684,-2.5684,-2.5684,-2.5684,-2.5684,-2.5684,-2.5684,-2.5684,-2.5684,-2.5684,-2.5684,-2.5684,-2.5684,-2.5684,-2.5684,-2.5684,-2.5684,-2.5684,-2.5684,-2.5684,-2.5684,-2.5713,-2.5849,-2.584,-2.5723,-2.5869,-2.6104,-1.1621,-1.19,-1.2236,-1.3078,-1.4143,-1.4699,-1.5585,-1.6561,-1.6956,-1.7263,-1.7542,-1.7589,-1.7589,-1.7589,-1.7589,-1.7589,-1.7589,-1.7589,-1.7589,-1.7589,-1.7589,-1.7589,-1.7589,-1.7595,-1.7609,-1.7475,-1.7482,-1.7561,-1.7535,-1.7549,-1.7655,-1.7796,-1.7943,-1.825,-1.8364,-1.8229,-1.7962,-1.7876,-1.7769,-1.7589,-1.7589,-1.7589,-1.7589,-1.7589,-1.7589,-1.7589,-1.7589,-1.7589,-1.7589,-1.7589,-1.7589,-1.7589,-1.7502,-1.7427,-1.7326,-1.736,-1.736,-1.73,-1.7393,-1.7528,-1.7506,-1.7536,-1.7515,-1.7612,-1.787,-1.795,-1.8078,-1.8307,-1.8586,-1.8653,-1.8757,-1.9011,-1.9123,-1.9123,-1.9227,-1.9227,-1.9272,-1.9272,-1.9324,-1.9524,-2.0439,-2.2013,-2.347,-2.4223,-2.5128,-2.544,-2.5645,-2.5684,-2.5684,-2.5684,-2.5684,-2.5684,-2.5684,-2.5684,-2.5684,-2.5684,-2.5684,-2.5684,-2.5684,-2.5684,-2.5684,-2.5684,-2.5684,-2.5684,-2.5684,-2.5684,-2.5684,-2.5684,-2.5684,-2.5859,-2.6074,-2.5986,-2.5742,-2.5859,-2.6123,-1.2336,-1.1514,-1.0996,-1.1773,-1.3398,-1.5215,-1.6458,-1.7081,-1.6873,-1.712,-1.7575,-1.7589,-1.7589,-1.7589,-1.7589,-1.7589,-1.7589,-1.7589,-1.7589,-1.7589,-1.7589,-1.7589,-1.7589,-1.7589,-1.7642,-1.7762,-1.7762,-1.7655,-1.7862,-1.7796,-1.7809,-1.7902,-1.8116,-1.8322,-1.8408,-1.8308,-1.8082,-1.807,-1.7869,-1.7682,-1.7609,-1.7635,-1.7635,-1.7622,-1.7589,-1.7589,-1.7589,-1.7589,-1.7589,-1.7589,-1.7589,-1.7589,-1.7548,-1.7353,-1.7259,-1.7213,-1.7213,-1.7286,-1.734,-1.7502,-1.7555,-1.7561,-1.7588,-1.7621,-1.7654,-1.7823,-1.7903,-1.8035,-1.8227,-1.8325,-1.8429,-1.8646,-1.8862,-1.8966,-1.9123,-1.9175,-1.9227,-1.9227,-1.9272,-1.9783,-2.085,-2.2266,-2.3827,-2.4775,-2.5177,-2.5333,-2.5538,-2.5684,-2.5684,-2.5684,-2.5684,-2.5684,-2.5684,-2.5684,-2.5684,-2.5684,-2.5684,-2.5684,-2.5684,-2.5684,-2.5684,-2.5684,-2.5684,-2.5684,-2.5684,-2.5684,-2.5684,-2.5684,-2.5684,-2.5898,-2.6045,-2.5996,-2.5713,-2.584,-2.6025,-1.1558,-1.0996,-1.1437,-1.1891,-1.2649,-1.453,-1.5927,-1.6757,-1.6769,-1.7062,-1.7589,-1.7589,-1.7589,-1.7589,-1.7589,-1.7589,-1.7589,-1.7589,-1.7589,-1.7589,-1.7589,-1.7589,-1.7589,-1.7595,-1.7655,-1.7675,-1.7669,-1.7649,-1.7749,-1.7756,-1.7742,-1.7769,-1.8217,-1.8368,-1.8328,-1.833,-1.8317,-1.8223,-1.7976,-1.7769,-1.7689,-1.7742,-1.7709,-1.7635,-1.7589,-1.7589,-1.7589,-1.7589,-1.7589,-1.7589,-1.7589,-1.7589,-1.7615,-1.7367,-1.7206,-1.7233,-1.736,-1.7514,-1.7468,-1.7535,-1.7589,-1.7589,-1.7589,-1.7589,-1.7635,-1.7687,-1.774,-1.7905,-1.8016,-1.8167,-1.822,-1.8384,-1.8541,-1.8646,-1.881,-1.8966,-1.9018,-1.9123,-1.922,-2.0094,-2.1157,-2.2568,-2.4125,-2.4883,-2.5186,-2.5333,-2.5489,-2.5635,-2.5684,-2.5684,-2.5684,-2.5684,-2.5684,-2.5684,-2.5684,-2.5684,-2.5684,-2.5684,-2.5684,-2.5684,-2.5684,-2.5684,-2.5684,-2.5684,-2.5684,-2.5684,-2.5684,-2.5684,-2.5684,-2.5684,-2.5791,-2.5762,-2.5762,-2.5849,-2.5888,-1.1474,-1.084,-1.1623,-1.2164,-1.2753,-1.4159,-1.5339,-1.6056,-1.6611,-1.718,-1.7575,-1.7589,-1.7589,-1.7589,-1.7589,-1.7589,-1.7589,-1.7589,-1.7589,-1.7589,-1.7589,-1.7589,-1.7589,-1.7595,-1.7689,-1.7675,-1.7669,-1.7669,-1.7729,-1.7742,-1.7729,-1.7669,-1.8237,-1.8217,-1.8102,-1.8142,-1.827,-1.817,-1.8003,-1.7782,-1.7742,-1.7776,-1.7689,-1.7635,-1.7589,-1.7589,-1.7589,-1.7589,-1.7589,-1.7589,-1.7589,-1.7589,-1.7628,-1.746,-1.738,-1.742,-1.7501,-1.7549,-1.7555,-1.7569,-1.7589,-1.7589,-1.7589,-1.7589,-1.7635,-1.774,-1.7799,-1.7859,-1.7964,-1.8016,-1.8062,-1.8115,-1.8167,-1.822,-1.8436,-1.8646,-1.881,-1.8966,-1.9635,-2.0395,-2.1564,-2.287,-2.3976,-2.4686,-2.5186,-2.5235,-2.5382,-2.5635,-2.5684,-2.5684,-2.5684,-2.5684,-2.5684,-2.5684,-2.5684,-2.5684,-2.5684,-2.5684,-2.5684,-2.5684,-2.5684,-2.5684,-2.5684,-2.5684,-2.5684,-2.5684,-2.5684,-2.5684,-2.5684,-2.5713,-2.5732,-2.5742,-2.5762,-2.5781,-2.5781,-1.178,-1.0722,-1.1564,-1.2323,-1.3236,-1.4056,-1.4702,-1.5173,-1.6452,-1.7272,-1.7483,-1.7582,-1.7589,-1.7589,-1.7589,-1.7589,-1.7589,-1.7589,-1.7589,-1.7589,-1.7589,-1.7589,-1.7575,-1.7562,-1.7615,-1.7756,-1.7749,-1.7575,-1.7816,-1.7842,-1.7749,-1.7602,-1.7796,-1.7903,-1.7969,-1.8009,-1.809,-1.7963,-1.7809,-1.7622,-1.7622,-1.7609,-1.7602,-1.7589,-1.7589,-1.7589,-1.7589,-1.7589,-1.7589,-1.7589,-1.7589,-1.7589,-1.7575,-1.7562,-1.7549,-1.7549,-1.7562,-1.7575,-1.7589,-1.7589,-1.7589,-1.7589,-1.7589,-1.7589,-1.7635,-1.7793,-1.7852,-1.7964,-1.8016,-1.8122,-1.8167,-1.822,-1.822,-1.8331,-1.8489,-1.8653,-1.8757,-1.9071,-1.9628,-2.0395,-2.12,-2.2509,-2.3628,-2.439,-2.4883,-2.4981,-2.5333,-2.5635,-2.5684,-2.5684,-2.5684,-2.5684,-2.5684,-2.5684,-2.5684,-2.5684,-2.5684,-2.5684,-2.5684,-2.5684,-2.5684,-2.5684,-2.5684,-2.5684,-2.5684,-2.5684,-2.5684,-2.5684,-2.5742,-2.5918,-2.5918,-2.5801,-2.5801,-2.5869,-2.5771,-1.1702,-1.0505,-1.0858,-1.1509,-1.2377,-1.3246,-1.4153,-1.5066,-1.6045,-1.6802,-1.7279,-1.7483,-1.7589,-1.7589,-1.7589,-1.7589,-1.7589,-1.7589,-1.7589,-1.7589,-1.7589,-1.7589,-1.7542,-1.7494,-1.7548,-1.7508,-1.7488,-1.7494,-1.7669,-1.7776,-1.7796,-1.7669,-1.7849,-1.8029,-1.7769,-1.7896,-1.7909,-1.7769,-1.7722,-1.7615,-1.7595,-1.7769,-1.7862,-1.7689,-1.7589,-1.7589,-1.7589,-1.7589,-1.7589,-1.7589,-1.7589,-1.7589,-1.7582,-1.7589,-1.7589,-1.7589,-1.7589,-1.7589,-1.7589,-1.7589,-1.7589,-1.7589,-1.7589,-1.7589,-1.7694,-1.7852,-1.801,-1.8069,-1.8122,-1.822,-1.8325,-1.8325,-1.8325,-1.8436,-1.8541,-1.8653,-1.8757,-1.922,-1.9724,-2.0336,-2.0944,-2.2013,-2.3179,-2.3935,-2.443,-2.4883,-2.5391,-2.5693,-2.5684,-2.5684,-2.5684,-2.5684,-2.5684,-2.5684,-2.5684,-2.5684,-2.5684,-2.5684,-2.5684,-2.5684,-2.5684,-2.5684,-2.5684,-2.5684,-2.5684,-2.5723,-2.5742,-2.5703,-2.5791,-2.6094,-2.6211,-2.6201,-2.6191,-2.624,-2.5976,-1.2056,-1.0944,-1.1314,-1.1998,-1.281,-1.3428,-1.4061,-1.4769,-1.5837,-1.6483,-1.6855,-1.7219,-1.743,-1.743,-1.7536,-1.7589,-1.7589,-1.7589,-1.7589,-1.7589,-1.7589,-1.7589,-1.7548,-1.7447,-1.7541,-1.7495,-1.736,-1.736,-1.7615,-1.7535,-1.7528,-1.7622,-1.7963,-1.7963,-1.7629,-1.7842,-1.7883,-1.7609,-1.7689,-1.7689,-1.7615,-1.7722,-1.7782,-1.7609,-1.7589,-1.7589,-1.7589,-1.7589,-1.7589,-1.7589,-1.7589,-1.7589,-1.7589,-1.7589,-1.7589,-1.7589,-1.7589,-1.7589,-1.7589,-1.7589,-1.7589,-1.7589,-1.7589,-1.7589,-1.7635,-1.7852,-1.8115,-1.8174,-1.8272,-1.8377,-1.8489,-1.8541,-1.8429,-1.8429,-1.8482,-1.8593,-1.8959,-1.942,-1.9879,-2.038,-2.1097,-2.1912,-2.2929,-2.3637,-2.4183,-2.4883,-2.5391,-2.5693,-2.5684,-2.5684,-2.5684,-2.5684,-2.5684,-2.5684,-2.5684,-2.5684,-2.5684,-2.5684,-2.5684,-2.5684,-2.5684,-2.5684,-2.5684,-2.5732,-2.5791,-2.584,-2.584,-2.5927,-2.623,-2.6562,-2.6611,-2.6602,-2.6592,-2.6562,-2.6396,-1.2638,-1.1643,-1.2179,-1.3003,-1.3737,-1.4043,-1.427,-1.4599,-1.5629,-1.6187,-1.6324,-1.6855,-1.7067,-1.7279,-1.7483,-1.7536,-1.7589,-1.7589,-1.7589,-1.7589,-1.7589,-1.7589,-1.7562,-1.7561,-1.7521,-1.7487,-1.7373,-1.7447,-1.7628,-1.7495,-1.7482,-1.7569,-1.7589,-1.7589,-1.7662,-1.7776,-1.7809,-1.7689,-1.7702,-1.7756,-1.7682,-1.7589,-1.7595,-1.7595,-1.7589,-1.7589,-1.7589,-1.7589,-1.7589,-1.7589,-1.7589,-1.7589,-1.7589,-1.7589,-1.7589,-1.7589,-1.7589,-1.7589,-1.7589,-1.7589,-1.7589,-1.7589,-1.7589,-1.7641,-1.7635,-1.7799,-1.8062,-1.822,-1.8325,-1.8482,-1.8646,-1.8705,-1.8541,-1.8534,-1.8586,-1.8639,-1.9108,-1.9524,-1.9931,-2.0328,-2.0893,-2.1666,-2.2568,-2.3229,-2.3985,-2.4735,-2.5235,-2.5489,-2.5684,-2.5684,-2.5684,-2.5684,-2.5684,-2.5684,-2.5684,-2.5684,-2.5684,-2.5684,-2.5684,-2.5684,-2.5684,-2.5684,-2.5732,-2.5849,-2.5957,-2.6113,-2.6299,-2.6445,-2.6728,-2.7012,-2.706,-2.7051,-2.6992,-2.6943,-2.6826,-1.2936,-1.2277,-1.2483,-1.3033,-1.376,-1.3861,-1.4407,-1.5221,-1.5495,-1.5791,-1.6068,-1.6324,-1.6702,-1.7232,-1.7483,-1.7582,-1.7589,-1.7589,-1.7589,-1.7589,-1.7589,-1.7589,-1.7601,-1.7507,-1.7326,-1.7333,-1.7434,-1.7528,-1.7555,-1.7502,-1.7508,-1.7582,-1.7589,-1.7589,-1.7595,-1.7682,-1.7689,-1.7629,-1.7629,-1.7662,-1.7649,-1.7589,-1.7589,-1.7589,-1.7589,-1.7589,-1.7589,-1.7589,-1.7589,-1.7589,-1.7589,-1.7589,-1.7589,-1.7589,-1.7589,-1.7589,-1.7589,-1.7589,-1.7589,-1.7589,-1.7589,-1.7589,-1.7589,-1.7589,-1.7641,-1.7641,-1.7852,-1.801,-1.8167,-1.8489,-1.8653,-1.8757,-1.8698,-1.8907,-1.9018,-1.9063,-1.9272,-1.9376,-1.9524,-1.9732,-1.9939,-2.0995,-2.2198,-2.2961,-2.3777,-2.4529,-2.5391,-2.5635,-2.5684,-2.5684,-2.5684,-2.5693,-2.5693,-2.5684,-2.5684,-2.5684,-2.5684,-2.5684,-2.5723,-2.581,-2.581,-2.5693,-2.5771,-2.6093,-2.6318,-2.6455,-2.665,-2.6904,-2.7148,-2.7402,-2.749,-2.751,-2.7422,-2.7363,-2.7275]},{"header":{"parameterUnit":"m.s-1","parameterCategory":1,"la1":31.0,"la2":29.5877,"lo1":-88.7671,"lo2":-86.6584,"dy":0.0162,"dx":0.0185,"nx":115,"ny":88,"refTime":"2024-03-01T06:00:00:Z","depth":0,"parameterNumber":3,"parameterNumberName":"V-component_of_WINDS"},"data":[0.0,0.0,0.0,0.0,0.0,0.0,0.0,0.0,0.0,0.0,0.0,0.0,0.0,0.0,0.0,0.0,0.0,0.0,0.0,0.0,0.0,0.0,0.0,0.0,0.0,0.0,0.0,0.0,0.0,0.0,0.0,0.0,0.0,0.0,0.0,0.0,0.0,0.0,0.0,0.0,0.0,0.0,0.0,0.0,0.0,0.0,0.0,0.0,0.0,0.0,0.0,0.0,0.0,0.0,0.0,0.0,0.0,0.0,0.0,0.0,0.0,0.0,0.0,0.0,0.0,0.0,0.0,0.0,0.0,0.0,0.0,0.0,0.0,0.0,0.0,0.0,0.0,0.0,0.0,0.0,0.0,0.0,0.0,0.0,0.0,0.0,0.0,0.0,0.0,0.0,0.0,0.0,0.0,0.0,0.0,0.0,0.0,0.0,0.0,0.0,0.0,0.0,0.0,0.0,0.0,0.0,0.0,0.0,0.0,0.0,0.0,0.0,0.0,0.0,0.0,0.0,0.0,0.0,0.0,0.0,0.0,0.0,0.0,0.0,0.0,0.0,0.0,0.0,0.0,0.0,0.0,0.0,0.0,0.0,0.0,0.0,0.0,0.0,0.0,0.0,0.0,0.0,0.0,0.0,0.0,0.0,0.0,0.0,0.0,0.0,0.0,0.0,0.0,0.0,0.0,0.0,0.0,0.0,0.0,0.0,0.0,0.0,0.0,0.0,0.0,0.0,0.0,0.0,0.0,0.0,0.0,0.0,0.0,0.0,0.0,0.0,0.0,0.0,0.0,0.0,0.0,0.0,0.0,0.0,0.0,0.0,0.0,0.0,0.0,0.0,0.0,0.0,0.0,0.0,0.0,0.0,0.0,0.0,0.0,0.0,0.0,0.0,0.0,0.0,0.0,0.0,0.0,0.0,0.0,0.0,0.0,0.0,0.0,0.0,0.0,0.0,0.0,0.0,0.0,0.0,0.0,0.0,0.0,0.0,0.0,0.0,0.0,0.0,0.0,0.0,0.0,0.0,0.0,0.0,0.0,0.0,0.0,0.0,0.0,0.0,0.0,0.0,0.0,0.0,0.0,0.0,0.0,0.0,0.0,0.0,0.0,0.0,0.0,0.0,0.0,0.0,0.0,0.0,0.0,0.0,0.0,0.0,0.0,0.0,0.0,0.0,0.0,0.0,0.0,0.0,0.0,0.0,0.0,0.0,0.0,0.0,0.0,0.0,0.0,0.0,0.0,0.0,0.0,0.0,0.0,0.0,0.0,0.0,0.0,0.0,0.0,0.0,0.0,0.0,0.0,0.0,0.0,0.0,0.0,0.0,0.0,0.0,0.0,0.0,0.0,0.0,0.0,0.0,0.0,0.0,0.0,0.0,0.0,0.0,0.0,0.0,0.0,0.0,0.0,0.0,0.0,0.0,0.0,0.0,0.0,0.0,0.0,0.0,0.0,0.0,0.0,0.0,0.0,0.0,0.0,0.0,0.0,0.0,0.0,0.0,0.0,0.0,0.0,0.0,0.0,0.0,0.0,0.0,0.0,0.0,0.0,0.0,0.0,0.0,0.0,0.0,0.0,0.0,0.0,0.0,0.0,0.0,0.0,0.0,0.0,0.0,0.0,0.0,0.0,0.0,0.0,0.0,0.0,0.0,0.0,0.0,0.0,0.0,0.0,0.0,0.0,0.0,0.0,0.0,0.0,0.0,0.0,0.0,0.0,0.0,0.0,0.0,0.0,0.0,0.0,0.0,0.0,0.0,0.0,0.0,0.0,0.0,0.0,0.0,0.0,0.0,0.0,0.0,0.0,0.0,0.0,0.0,0.0,0.0,0.0,0.0,0.0,0.0,0.0,0.0,0.0,0.0,0.0,0.0,0.0,0.0,0.0,0.0,0.0,0.0,0.0,0.0,0.0,0.0,0.0,0.0,0.0,0.0,0.0,0.0,0.0,0.0,0.0,0.0,0.0,0.0,0.0,0.0,0.0,0.0,0.0,0.0,0.0,0.0,0.0,0.0,0.0,0.0,0.0,0.0,0.0,0.0,0.0,0.0,0.0,0.0,0.0,0.0,0.0,0.0,0.0,0.0,0.0,0.0,0.0,0.0,0.0,0.0,0.0,0.0,0.0,0.0,0.0,0.0,0.0,0.0,0.0,0.0,0.0,0.0,0.0,0.0,0.0,0.0,0.0,0.0,0.0,0.0,0.0,0.0,0.0,0.0,0.0,0.0,0.0,0.0,0.0,0.0,0.0,0.0,0.0,0.0,0.0,0.0,0.0,0.0,0.0,0.0,0.0,0.0,0.0,0.0,0.0,0.0,0.0,0.0,0.0,0.0,0.0,0.0,0.0,0.0,0.0,0.0,0.0,0.0,0.0,0.0,0.0,0.0,0.0,0.0,0.0,0.0,0.0,0.0,0.0,0.0,0.0,0.0,0.0,0.0,0.0,0.0,0.0,0.0,0.0,0.0,0.0,0.0,0.0,0.0,0.0,0.0,0.0,0.0,0.0,0.0,0.0,0.0,0.0,0.0,0.0,0.0,0.0,0.0,0.0,0.0,0.0,0.0,0.0,0.0,0.0,0.0,0.0,0.0,0.0,0.0,0.0,0.0,0.0,0.0,0.0,0.0,0.0,0.0,0.0,0.0,0.0,0.0,0.0,0.0,0.0,0.0,0.0,0.0,0.0,0.0,0.0,0.0,0.0,0.0,0.0,0.0,0.0,0.0,0.0,0.0,0.0,0.0,0.0,0.0,0.0,0.0,0.0,0.0,0.0,0.0,0.0,0.0,0.0,0.0,0.0,0.0,0.0,0.0,0.0,0.0,0.0,0.0,0.0,0.0,0.0,0.0,0.0,0.0,0.0,0.0,0.0,0.0,0.0,0.0,0.0,0.0,0.0,0.0,0.0,0.0,0.0,0.0,0.0,0.0,0.0,0.0,0.0,0.0,0.0,0.0,0.0,0.0,0.0,0.0,0.0,0.0,0.0,0.0,0.0,0.0,0.0,0.0,0.0,0.0,0.0,0.0,0.0,0.0,0.0,0.0,0.0,0.0,0.0,0.0,0.0,0.0,0.0,0.0,0.0,0.0,0.0,0.0,0.0,0.0,0.0,0.0,0.0,0.0,0.0,0.0,0.0,0.0,0.0,0.0,0.0,0.0,0.0,0.0,0.0,0.0,0.0,0.0,0.0,0.0,0.0,0.0,0.0,0.0,0.0,0.0,0.0,0.0,0.0,0.0,0.0,0.0,0.0,0.0,0.0,0.0,0.0,0.0,0.0,0.0,0.0,0.0,0.0,0.0,0.0,0.0,0.0,0.0,0.0,0.0,0.0,0.0,0.0,0.0,0.0,0.0,0.0,0.0,0.0,0.0,0.0,0.0,0.0,0.0,0.0,0.0,0.0,0.0,0.0,0.0,0.0,0.0,0.0,0.0,0.0,0.0,0.0,0.0,0.0,0.0,0.0,0.0,0.0,0.0,0.0,0.0,0.0,0.0,0.0,0.0,0.0,0.0,0.0,0.0,0.0,0.0,0.0,0.0,0.0,0.0,0.0,0.0,0.0,0.0,0.0,0.0,0.0,0.0,0.0,0.0,0.0,0.0,0.0,0.0,0.0,0.0,0.0,0.0,0.0,0.0,0.0,0.0,0.0,0.0,0.0,0.0,0.0,0.0,0.0,0.0,0.0,0.0,0.0,0.0,0.0,0.0,0.0,0.0,0.0,0.0,0.0,0.0,0.0,0.0,0.0,0.0,0.0,0.0,0.0,0.0,0.0,0.0,0.0,0.0,0.0,0.0,0.0,0.0,0.0,0.0,0.0,0.0,0.0,0.0,0.0,0.0,0.0,0.0,0.0,0.0,0.0,0.0,0.0,0.0,0.0,0.0,0.0,0.0,0.0,0.0,0.0,0.0,0.0,0.0,0.0,0.0,0.0,0.0,0.0,0.0,0.0,0.0,0.0,0.0,0.0,0.0,0.0,0.0,0.0,0.0,0.0,0.0,0.0,0.0,0.0,0.0,0.0,0.0,0.0,0.0,0.0,0.0,0.0,0.0,0.0,0.0,0.0,0.0,0.0,0.0,0.0,0.0,0.0,0.0,0.0,0.0,0.0,0.0,0.0,0.0,0.0,0.0,0.0,0.0,0.0,0.0,0.0,0.0,0.0,0.0,0.0,0.0,0.0,0.0,0.0,0.0,0.0,0.0,0.0,0.0,0.0,0.0,0.0,0.0,0.0,0.0,0.0,0.0,0.0,0.0,0.0,0.0,0.0,0.0,1.7207,0.0,0.0,0.0,0.0,0.0,0.0,0.0,0.0,0.0,0.0,0.0,0.0,0.0,0.0,0.0,0.0,0.0,0.0,0.0,0.0,0.0,0.0,0.0,0.0,0.0,0.0,0.0,0.0,0.0,0.0,0.0,0.0,0.0,0.0,0.0,0.0,0.0,0.0,0.0,0.0,0.0,0.0,0.0,0.0,0.0,0.0,0.0,0.0,0.0,0.0,0.0,0.0,0.0,0.0,0.0,0.0,0.0,0.0,0.0,0.0,0.0,0.0,0.0,0.0,0.0,0.0,0.0,0.0,0.0,0.0,0.0,0.0,0.0,0.0,0.0,0.0,0.0,0.0,0.0,0.0,0.0,0.0,0.0,0.0,0.0,0.0,0.0,0.0,0.0,0.0,0.0,0.0,0.0,0.0,0.0,0.0,0.0,0.0,0.0,0.0,0.0,0.0,0.0,0.0,0.0,0.0,0.0,0.0,0.0,0.0,1.9129,1.8762,1.8461,1.8055,1.7549,0.0,0.0,0.0,0.0,0.0,0.0,0.0,0.0,0.0,0.0,0.0,0.0,0.0,0.0,0.0,0.0,0.0,0.0,0.0,0.0,0.0,0.0,0.0,0.0,0.0,0.0,0.0,0.0,0.0,0.0,0.0,0.0,0.0,0.0,0.0,0.0,0.0,0.0,0.0,0.0,0.0,0.0,0.0,0.0,0.0,0.0,0.0,0.0,0.0,0.0,0.0,0.0,0.0,0.0,0.0,0.0,0.0,0.0,0.0,0.0,0.0,0.0,0.0,0.0,0.0,0.0,0.0,0.0,0.0,0.0,0.0,0.0,0.0,0.0,0.0,0.0,0.0,0.0,0.0,0.0,0.0,0.0,0.0,0.0,0.0,0.0,0.0,0.0,0.0,0.0,0.0,0.0,0.0,0.0,0.0,0.0,0.0,0.0,0.0,0.0,0.0,0.0,0.0,0.0,0.0,0.0,0.0,0.0,0.0,0.0,0.0,0.0,1.9182,1.863,1.7747,0.0,0.0,0.0,0.0,0.0,0.0,0.0,0.0,0.0,0.0,0.0,0.0,0.0,0.0,0.0,0.0,0.0,0.0,0.0,0.0,0.0,0.0,0.0,0.0,0.0,0.0,0.0,0.0,0.0,0.0,0.0,0.0,0.0,0.0,0.0,0.0,0.0,0.0,0.0,0.0,0.0,0.0,0.0,0.0,0.0,0.0,0.0,0.0,0.0,0.0,0.0,0.0,0.0,0.0,0.0,0.0,0.0,0.0,0.0,0.0,0.0,0.0,0.0,0.0,0.0,0.0,0.0,0.0,0.0,0.0,0.0,0.0,0.0,0.0,0.0,0.0,0.0,0.0,0.0,0.0,0.0,0.0,0.0,0.0,0.0,0.0,0.0,0.0,0.0,0.0,0.0,0.0,0.0,0.0,0.0,0.0,0.0,0.0,0.0,0.0,0.0,0.0,0.0,0.0,0.0,0.0,0.0,0.0,0.0,0.0,2.0128,1.9846,1.9371,0.0,1.7613,0.0,0.0,0.0,0.0,0.0,0.0,0.0,0.0,0.0,0.0,0.0,0.0,0.0,0.0,0.0,0.0,0.0,0.0,0.0,0.0,0.0,0.0,0.0,0.0,0.0,0.0,0.0,0.0,0.0,0.0,0.0,0.0,0.0,0.0,0.0,0.0,0.0,0.0,0.0,0.0,0.0,0.0,0.0,0.0,0.0,0.0,0.0,0.0,0.0,0.0,0.0,0.0,0.0,0.0,0.0,0.0,0.0,0.0,0.0,0.0,0.0,0.0,0.0,0.0,0.0,0.0,0.0,0.0,0.0,0.0,0.0,0.0,0.0,0.0,0.0,0.0,0.0,0.0,0.0,0.0,0.0,0.0,0.0,0.0,0.0,0.0,0.0,0.0,0.0,0.0,0.0,0.0,0.0,0.0,0.0,0.0,0.0,0.0,0.0,0.0,0.0,0.0,0.0,0.0,0.0,0.0,0.0,0.0,0.0,0.0,2.0225,2.0137,1.9298,1.8722,0.0,0.0,0.0,0.0,0.0,0.0,0.0,0.0,0.0,0.0,0.0,0.0,0.0,0.0,0.0,0.0,0.0,0.0,0.0,0.0,0.0,0.0,0.0,0.0,0.0,0.0,0.0,0.0,0.0,0.0,0.0,0.0,0.0,0.0,0.0,0.0,0.0,0.0,0.0,0.0,0.0,0.0,0.0,0.0,0.0,0.0,0.0,0.0,0.0,0.0,0.0,0.0,0.0,0.0,0.0,0.0,0.0,0.0,0.0,0.0,0.0,0.0,0.0,0.0,0.0,0.0,0.0,0.0,0.0,0.0,0.0,0.0,0.0,0.0,0.0,0.0,0.0,0.0,0.0,0.0,0.0,0.0,0.0,0.0,0.0,0.0,0.0,0.0,0.0,0.0,0.0,0.0,0.0,0.0,0.0,0.0,0.0,0.0,0.0,0.0,0.0,0.0,0.0,0.0,0.0,0.0,0.0,0.0,0.0,0.0,2.0576,2.0547,2.0508,1.9703,1.9184,1.9141,0.0,0.0,0.0,0.0,0.0,0.0,0.0,0.0,0.0,0.0,0.0,0.0,0.0,0.0,0.0,0.0,0.0,0.0,0.0,0.0,0.0,0.0,0.0,0.0,0.0,0.0,0.0,0.0,0.0,0.0,0.0,0.0,0.0,0.0,0.0,0.0,0.0,0.0,0.0,0.0,0.0,0.0,0.0,0.0,0.0,0.0,0.0,0.0,0.0,0.0,0.0,0.0,0.0,0.0,0.0,0.0,0.0,0.0,0.0,0.0,0.0,0.0,0.0,0.0,0.0,0.0,0.0,0.0,0.0,0.0,0.0,0.0,0.0,0.0,0.0,0.0,0.0,0.0,0.0,0.0,0.0,0.0,0.0,0.0,0.0,0.0,0.0,0.0,0.0,0.0,0.0,0.0,0.0,0.0,0.0,0.0,0.0,0.0,0.0,0.0,0.0,0.0,0.0,0.0,0.0,0.0,0.0,0.0,2.0867,2.1051,2.1177,2.1156,2.0735,2.0209,0.0,0.0,0.0,0.0,0.0,0.0,0.0,0.0,0.0,0.0,0.0,0.0,0.0,0.0,0.0,0.0,0.0,0.0,0.0,0.0,0.0,0.0,0.0,0.0,0.0,0.0,0.0,0.0,0.0,0.0,0.0,0.0,0.0,0.0,0.0,0.0,0.0,0.0,0.0,0.0,0.0,0.0,0.0,0.0,0.0,0.0,0.0,0.0,0.0,0.0,0.0,0.0,0.0,0.0,0.0,0.0,0.0,0.0,0.0,0.0,0.0,0.0,0.0,0.0,0.0,0.0,0.0,0.0,0.0,0.0,0.0,0.0,0.0,0.0,0.0,0.0,0.0,0.0,0.0,0.0,0.0,0.0,0.0,0.0,0.0,0.0,0.0,0.0,0.0,0.0,0.0,0.0,0.0,0.0,0.0,0.0,0.0,0.0,0.0,0.0,0.0,0.0,0.0,0.0,0.0,0.0,0.0,0.0,0.0,2.1099,2.1177,2.1244,2.1387,2.0858,2.0424,0.0,0.0,0.0,0.0,0.0,0.0,0.0,0.0,0.0,0.0,0.0,0.0,0.0,0.0,0.0,0.0,0.0,0.0,0.0,0.0,0.0,0.0,0.0,0.0,0.0,0.0,0.0,0.0,0.0,0.0,0.0,0.0,0.0,0.0,0.0,0.0,0.0,0.0,0.0,0.0,0.0,0.0,0.0,0.0,0.0,0.0,0.0,0.0,0.0,0.0,0.0,0.0,0.0,0.0,0.0,0.0,0.0,0.0,0.0,0.0,0.0,0.0,0.0,0.0,0.0,0.0,0.0,0.0,0.0,0.0,0.0,0.0,0.0,0.0,0.0,0.0,0.0,0.0,0.0,0.0,0.0,0.0,0.0,0.0,0.0,0.0,0.0,0.0,0.0,0.0,0.0,0.0,0.0,0.0,0.0,0.0,0.0,0.0,0.0,0.0,0.0,0.0,0.0,0.0,0.0,0.0,0.0,0.0,0.0,2.161,0.0,2.1841,2.1794,2.1441,2.0931,0.0,0.0,0.0,0.0,0.0,0.0,0.0,0.0,0.0,0.0,0.0,0.0,0.0,0.0,0.0,0.0,0.0,0.0,0.0,0.0,0.0,0.0,0.0,0.0,0.0,0.0,0.0,0.0,0.0,0.0,0.0,0.0,0.0,0.0,0.0,0.0,0.0,0.0,0.0,0.0,0.0,0.0,0.0,0.0,0.0,0.0,0.0,0.0,0.0,0.0,0.0,0.0,0.0,0.0,0.0,0.0,0.0,0.0,0.0,0.0,0.0,0.0,0.0,0.0,0.0,0.0,0.0,0.0,0.0,0.0,0.0,0.0,0.0,0.0,0.0,0.0,0.0,0.0,0.0,0.0,0.0,0.0,0.0,0.0,0.0,0.0,0.0,0.0,0.0,0.0,0.0,0.0,0.0,0.0,0.0,0.0,0.0,0.0,0.0,0.0,0.0,0.0,0.0,0.0,0.0,0.0,0.0,0.0,2.1863,2.248,2.2965,2.2976,2.2522,2.247,2.1828,0.0,0.0,0.0,0.0,0.0,0.0,0.0,0.0,0.0,0.0,0.0,0.0,0.0,0.0,0.0,0.0,0.0,0.0,0.0,0.0,0.0,0.0,0.0,0.0,0.0,0.0,0.0,0.0,0.0,0.0,0.0,0.0,0.0,0.0,0.0,0.0,0.0,0.0,0.0,0.0,0.0,0.0,0.0,0.0,0.0,0.0,0.0,0.0,0.0,0.0,0.0,0.0,0.0,0.0,0.0,0.0,0.0,0.0,0.0,0.0,0.0,0.0,0.0,0.0,0.0,0.0,0.0,0.0,0.0,0.0,0.0,0.0,0.0,0.0,0.0,0.0,0.0,0.0,0.0,0.0,0.0,0.0,0.0,0.0,0.0,0.0,0.0,0.0,0.0,0.0,0.0,0.0,0.0,0.0,0.0,0.0,0.0,0.0,0.0,0.0,0.0,0.0,0.0,0.0,0.0,0.0,0.0,0.0,0.0,2.255,2.3414,2.3583,2.3017,2.2666,2.1994,0.0,0.0,0.0,0.0,0.0,0.0,0.0,0.0,0.0,0.0,0.0,0.0,0.0,0.0,0.0,0.0,0.0,0.0,0.0,0.0,0.0,0.0,0.0,0.0,0.0,0.0,0.0,0.0,0.0,0.0,0.0,0.0,0.0,0.0,0.0,0.0,0.0,0.0,0.0,0.0,0.0,0.0,0.0,0.0,0.0,0.0,0.0,0.0,0.0,0.0,0.0,0.0,0.0,0.0,0.0,0.0,0.0,0.0,0.0,0.0,0.0,0.0,0.0,0.0,0.0,0.0,0.0,0.0,0.0,0.0,0.0,0.0,0.0,0.0,0.0,0.0,0.0,0.0,0.0,0.0,0.0,0.0,0.0,0.0,0.0,0.0,0.0,0.0,0.0,0.0,0.0,0.0,0.0,0.0,0.0,0.0,0.0,0.0,0.0,0.0,0.0,0.0,0.0,0.0,0.0,0.0,0.0,0.0,0.0,2.4321,2.4908,2.496,2.4339,2.365,2.2793,2.1776,0.0,0.0,0.0,0.0,0.0,0.0,0.0,0.0,0.0,0.0,0.0,0.0,0.0,0.0,0.0,0.0,0.0,0.0,0.0,0.0,0.0,0.0,0.0,0.0,0.0,0.0,0.0,0.0,0.0,0.0,0.0,0.0,0.0,0.0,0.0,0.0,0.0,0.0,0.0,0.0,0.0,0.0,0.0,0.0,0.0,0.0,0.0,0.0,0.0,0.0,0.0,0.0,0.0,0.0,0.0,0.0,0.0,0.0,0.0,0.0,0.0,0.0,0.0,0.0,0.0,0.0,0.0,0.0,0.0,0.0,0.0,0.0,0.0,0.0,0.0,0.0,0.0,0.0,0.0,0.0,0.0,0.0,0.0,0.0,0.0,0.0,0.0,0.0,0.0,0.0,0.0,0.0,0.0,0.0,0.0,0.0,0.0,0.0,0.0,0.0,0.0,0.0,0.0,0.0,0.0,0.0,0.0,0.0,2.7394,2.7321,2.6941,2.6346,2.5209,2.4049,0.0,0.0,0.0,0.0,0.0,0.0,0.0,0.0,0.0,0.0,0.0,0.0,0.0,0.0,0.0,0.0,0.0,0.0,0.0,0.0,0.0,0.0,0.0,0.0,0.0,0.0,0.0,0.0,0.0,0.0,0.0,0.0,0.0,0.0,0.0,0.0,0.0,0.0,0.0,0.0,0.0,0.0,0.0,0.0,0.0,0.0,0.0,0.0,0.0,0.0,0.0,0.0,0.0,0.0,0.0,0.0,0.0,0.0,0.0,0.0,0.0,0.0,0.0,0.0,0.0,0.0,0.0,0.0,0.0,0.0,0.0,0.0,0.0,0.0,0.0,0.0,0.0,0.0,0.0,0.0,0.0,0.0,0.0,0.0,0.0,0.0,0.0,0.0,0.0,0.0,0.0,0.0,0.0,0.0,0.0,0.0,0.0,0.0,0.0,0.0,0.0,0.0,0.0,0.0,0.0,0.0,0.0,0.0,0.0,2.8808,2.9681,2.9133,2.7108,2.5879,2.4571,0.0,0.0,0.0,0.0,0.0,0.0,0.0,0.0,0.0,0.0,0.0,0.0,0.0,0.0,0.0,0.0,0.0,0.0,0.0,0.0,0.0,0.0,0.0,0.0,0.0,0.0,0.0,0.0,0.0,0.0,0.0,0.0,0.0,0.0,0.0,0.0,0.0,0.0,0.0,0.0,0.0,0.0,0.0,0.0,0.0,0.0,0.0,0.0,0.0,0.0,0.0,0.0,0.0,0.0,0.0,0.0,0.0,0.0,0.0,0.0,0.0,0.0,0.0,0.0,0.0,0.0,0.0,0.0,0.0,0.0,0.0,0.0,0.0,0.0,0.0,0.0,0.0,0.0,0.0,0.0,0.0,0.0,0.0,0.0,0.0,0.0,0.0,0.0,0.0,0.0,0.0,0.0,0.0,0.0,0.0,0.0,0.0,0.0,0.0,0.0,0.0,0.0,0.0,0.0,0.0,0.0,0.0,0.0,2.8295,3.046,3.1245,3.0913,2.9432,2.7812,2.6086,0.0,0.0,0.0,0.0,0.0,0.0,0.0,0.0,0.0,0.0,0.0,0.0,0.0,0.0,0.0,0.0,0.0,0.0,0.0,0.0,0.0,0.0,0.0,0.0,0.0,0.0,0.0,0.0,0.0,0.0,0.0,0.0,0.0,0.0,0.0,0.0,0.0,0.0,0.0,0.0,0.0,0.0,0.0,0.0,0.0,0.0,0.0,0.0,0.0,0.0,0.0,0.0,0.0,0.0,0.0,0.0,0.0,0.0,0.0,0.0,0.0,0.0,0.0,0.0,0.0,0.0,0.0,0.0,0.0,0.0,0.0,0.0,0.0,0.0,0.0,0.0,0.0,0.0,0.0,0.0,0.0,0.0,0.0,0.0,0.0,0.0,0.0,0.0,0.0,0.0,0.0,0.0,0.0,0.0,0.0,0.0,0.0,0.0,0.0,0.0,0.0,0.0,0.0,0.0,0.0,0.0,0.0,0.0,2.9422,3.1944,3.2111,3.2172,3.2126,3.0179,2.803,0.0,0.0,0.0,0.0,0.0,0.0,0.0,0.0,0.0,0.0,0.0,0.0,0.0,0.0,0.0,0.0,0.0,0.0,0.0,0.0,0.0,0.0,0.0,0.0,0.0,0.0,0.0,0.0,0.0,0.0,0.0,0.0,0.0,0.0,0.0,0.0,0.0,0.0,0.0,0.0,0.0,0.0,0.0,0.0,0.0,0.0,0.0,0.0,0.0,0.0,0.0,0.0,0.0,0.0,0.0,0.0,0.0,0.0,0.0,0.0,0.0,0.0,0.0,0.0,0.0,0.0,0.0,0.0,0.0,0.0,0.0,0.0,0.0,0.0,0.0,0.0,0.0,0.0,0.0,0.0,0.0,0.0,0.0,0.0,0.0,0.0,0.0,0.0,0.0,0.0,0.0,0.0,0.0,0.0,0.0,0.0,0.0,0.0,0.0,0.0,0.0,0.0,0.0,0.0,0.0,0.0,0.0,0.0,2.9427,3.1316,3.1811,3.1847,3.1454,3.0471,2.8982,0.0,0.0,0.0,0.0,0.0,0.0,0.0,0.0,0.0,0.0,0.0,0.0,0.0,0.0,0.0,0.0,0.0,0.0,0.0,0.0,0.0,0.0,0.0,0.0,0.0,0.0,0.0,0.0,0.0,0.0,0.0,0.0,0.0,0.0,0.0,0.0,0.0,0.0,0.0,0.0,0.0,0.0,0.0,0.0,0.0,0.0,0.0,0.0,1.9781,0.0,0.0,0.0,0.0,0.0,0.0,0.0,0.0,0.0,0.0,0.0,0.0,0.0,0.0,0.0,0.0,0.0,0.0,0.0,0.0,0.0,0.0,0.0,0.0,0.0,0.0,0.0,0.0,0.0,0.0,0.0,0.0,0.0,0.0,0.0,0.0,0.0,0.0,0.0,0.0,0.0,0.0,0.0,0.0,0.0,0.0,0.0,0.0,0.0,0.0,0.0,0.0,0.0,0.0,0.0,0.0,0.0,0.0,0.0,2.9922,3.1448,3.203,3.2172,3.1888,3.129,2.9814,0.0,0.0,0.0,0.0,0.0,0.0,0.0,0.0,0.0,0.0,0.0,0.0,0.0,0.0,0.0,0.0,0.0,0.0,0.0,0.0,0.0,0.0,0.0,0.0,0.0,0.0,0.0,0.0,0.0,0.0,0.0,0.0,0.0,0.0,0.0,0.0,0.0,0.0,0.0,0.0,0.0,0.0,0.0,0.0,0.0,0.0,0.0,0.0,0.0,0.0,0.0,0.0,0.0,0.0,0.0,0.0,0.0,0.0,0.0,0.0,0.0,0.0,0.0,0.0,0.0,0.0,0.0,0.0,0.0,0.0,0.0,0.0,0.0,0.0,0.0,0.0,0.0,0.0,0.0,0.0,0.0,0.0,0.0,0.0,0.0,0.0,0.0,0.0,0.0,0.0,0.0,0.0,0.0,0.0,0.0,0.0,0.0,0.0,0.0,0.0,0.0,0.0,0.0,0.0,0.0,0.0,0.0,2.9515,3.0357,3.1628,3.2189,3.2437,3.2424,3.1797,3.0276,2.7901,0.0,0.0,0.0,0.0,0.0,0.0,0.0,0.0,0.0,0.0,0.0,0.0,0.0,0.0,0.0,0.0,0.0,0.0,0.0,0.0,0.0,0.0,0.0,0.0,0.0,0.0,0.0,0.0,0.0,0.0,0.0,0.0,0.0,0.0,0.0,0.0,0.0,0.0,2.0151,2.1257,0.0,0.0,0.0,0.0,0.0,0.0,0.0,0.0,2.2806,0.0,0.0,0.0,0.0,0.0,0.0,0.0,0.0,0.0,0.0,0.0,0.0,0.0,0.0,0.0,0.0,0.0,0.0,0.0,0.0,0.0,0.0,0.0,0.0,0.0,0.0,0.0,0.0,0.0,0.0,0.0,0.0,0.0,0.0,0.0,0.0,0.0,0.0,0.0,0.0,0.0,0.0,0.0,0.0,0.0,0.0,0.0,0.0,0.0,0.0,0.0,0.0,0.0,0.0,0.0,0.0,2.9213,2.9343,2.9931,3.1104,3.1209,3.1274,3.1286,3.0255,2.949,2.8999,0.0,0.0,0.0,0.0,0.0,0.0,0.0,0.0,0.0,0.0,0.0,0.0,0.0,0.0,0.0,0.0,0.0,0.0,0.0,0.0,0.0,0.0,0.0,0.0,0.0,0.0,0.0,0.0,0.0,0.0,0.0,0.0,0.0,0.0,0.0,0.0,0.0,0.0,0.0,2.469,2.542,0.0,0.0,0.0,0.0,0.0,0.0,0.0,0.0,2.3187,0.0,0.0,0.0,0.0,0.0,0.0,0.0,0.0,0.0,0.0,0.0,0.0,0.0,0.0,0.0,0.0,0.0,0.0,0.0,0.0,0.0,0.0,0.0,0.0,0.0,0.0,0.0,0.0,0.0,0.0,0.0,0.0,0.0,0.0,0.0,0.0,0.0,0.0,0.0,0.0,0.0,0.0,0.0,0.0,0.0,0.0,0.0,0.0,0.0,0.0,0.0,0.0,0.0,0.0,0.0,2.9248,2.9575,3.0137,3.0985,3.1024,3.1024,3.0973,3.0163,2.9588,0.0,0.0,0.0,0.0,0.0,0.0,0.0,0.0,0.0,0.0,0.0,0.0,0.0,0.0,0.0,0.0,0.0,0.0,0.0,0.0,0.0,0.0,0.0,0.0,0.0,0.0,0.0,0.0,0.0,0.0,0.0,0.0,0.0,0.0,0.0,0.0,0.0,0.0,0.0,0.0,2.5917,2.639,2.6192,0.0,0.0,0.0,0.0,0.0,0.0,2.4315,2.4185,0.0,0.0,0.0,0.0,0.0,0.0,0.0,0.0,0.0,0.0,0.0,0.0,0.0,0.0,0.0,0.0,0.0,0.0,0.0,0.0,0.0,0.0,0.0,0.0,0.0,0.0,0.0,0.0,0.0,0.0,0.0,0.0,0.0,0.0,0.0,0.0,0.0,0.0,0.0,0.0,0.0,0.0,0.0,0.0,0.0,0.0,0.0,0.0,0.0,0.0,0.0,0.0,0.0,0.0,0.0,2.9261,2.9804,3.0367,3.0985,3.1024,3.1024,3.1011,3.032,2.9745,0.0,0.0,0.0,0.0,0.0,0.0,0.0,0.0,0.0,0.0,0.0,0.0,0.0,0.0,0.0,0.0,0.0,0.0,0.0,0.0,0.0,0.0,0.0,0.0,0.0,0.0,0.0,0.0,0.0,0.0,0.0,0.0,0.0,0.0,0.0,0.0,0.0,0.0,0.0,0.0,0.0,2.729,2.7808,2.7371,0.0,0.0,0.0,0.0,2.5453,2.568,0.0,0.0,0.0,0.0,0.0,0.0,0.0,0.0,0.0,0.0,0.0,0.0,0.0,0.0,0.0,0.0,0.0,0.0,0.0,0.0,0.0,0.0,0.0,0.0,0.0,0.0,0.0,0.0,0.0,0.0,0.0,0.0,0.0,0.0,0.0,0.0,0.0,0.0,0.0,0.0,0.0,0.0,0.0,0.0,0.0,0.0,0.0,0.0,0.0,0.0,0.0,0.0,0.0,0.0,0.0,0.0,2.9271,2.9645,3.0213,3.0959,3.1024,3.1024,3.1011,2.9941,2.9388,0.0,0.0,0.0,0.0,0.0,0.0,0.0,0.0,0.0,0.0,0.0,0.0,0.0,0.0,0.0,0.0,0.0,0.0,0.0,0.0,0.0,0.0,0.0,0.0,0.0,0.0,0.0,0.0,0.0,0.0,0.0,0.0,0.0,0.0,0.0,0.0,0.0,0.0,0.0,0.0,0.0,2.9552,2.9021,2.9633,2.9706,0.0,0.0,2.8364,2.8321,2.8326,0.0,0.0,0.0,0.0,0.0,0.0,0.0,0.0,0.0,0.0,0.0,0.0,0.0,0.0,0.0,0.0,0.0,0.0,0.0,0.0,0.0,0.0,0.0,0.0,0.0,0.0,0.0,0.0,0.0,0.0,0.0,0.0,0.0,0.0,0.0,0.0,0.0,0.0,0.0,0.0,0.0,0.0,0.0,0.0,0.0,0.0,0.0,0.0,0.0,0.0,0.0,0.0,0.0,0.0,0.0,2.9194,2.9944,3.0732,3.1513,3.2241,3.2245,3.2245,3.2245,3.1087,3.014,0.0,0.0,0.0,0.0,0.0,0.0,0.0,0.0,0.0,0.0,0.0,0.0,0.0,0.0,0.0,0.0,0.0,0.0,0.0,0.0,0.0,0.0,0.0,0.0,0.0,0.0,0.0,0.0,0.0,0.0,0.0,0.0,0.0,0.0,0.0,0.0,0.0,0.0,0.0,0.0,0.0,0.0,2.9658,3.0207,0.0,0.0,0.0,2.9564,2.9422,0.0,0.0,0.0,0.0,0.0,0.0,0.0,0.0,0.0,0.0,0.0,0.0,0.0,0.0,0.0,0.0,0.0,0.0,0.0,0.0,0.0,0.0,0.0,0.0,0.0,0.0,0.0,0.0,0.0,0.0,0.0,0.0,0.0,0.0,0.0,0.0,0.0,0.0,0.0,0.0,0.0,0.0,0.0,0.0,0.0,0.0,0.0,0.0,0.0,0.0,0.0,0.0,0.0,0.0,0.0,0.0,0.0,3.0677,3.1722,3.2611,3.331,3.3304,3.3248,3.3064,3.2069,0.0,0.0,0.0,0.0,0.0,0.0,0.0,0.0,0.0,0.0,0.0,0.0,0.0,0.0,0.0,0.0,0.0,0.0,0.0,0.0,0.0,0.0,0.0,0.0,0.0,0.0,0.0,2.2051,0.0,0.0,0.0,0.0,0.0,0.0,0.0,0.0,0.0,0.0,0.0,0.0,0.0,0.0,3.0329,3.0409,3.102,3.1326,0.0,0.0,3.1013,3.0399,3.0787,3.0612,0.0,0.0,0.0,0.0,0.0,0.0,0.0,0.0,0.0,0.0,0.0,0.0,0.0,0.0,0.0,0.0,0.0,0.0,0.0,0.0,0.0,0.0,0.0,0.0,0.0,0.0,0.0,0.0,0.0,0.0,0.0,0.0,0.0,0.0,0.0,0.0,0.0,0.0,0.0,0.0,0.0,0.0,0.0,0.0,0.0,0.0,0.0,0.0,0.0,0.0,0.0,0.0,0.0,0.0,3.0021,3.1485,3.2087,3.2817,3.3648,3.3671,3.3351,3.2748,3.2192,3.1151,0.0,0.0,0.0,0.0,0.0,0.0,0.0,0.0,0.0,0.0,0.0,0.0,0.0,0.0,0.0,0.0,0.0,0.0,0.0,0.0,0.0,0.0,0.0,0.0,0.0,0.0,0.0,0.0,0.0,0.0,0.0,0.0,0.0,0.0,0.0,0.0,0.0,0.0,0.0,0.0,0.0,3.1433,3.1554,3.2772,3.3614,0.0,3.3581,3.3202,3.1967,3.263,3.2419,2.9937,0.0,0.0,0.0,0.0,0.0,0.0,0.0,0.0,0.0,0.0,0.0,0.0,0.0,0.0,0.0,0.0,0.0,0.0,0.0,0.0,0.0,0.0,0.0,0.0,0.0,0.0,0.0,0.0,0.0,0.0,0.0,0.0,0.0,0.0,0.0,0.0,0.0,0.0,0.0,0.0,0.0,0.0,0.0,0.0,0.0,0.0,0.0,0.0,0.0,0.0,0.0,0.0,0.0,3.051,3.2304,3.3038,3.3958,3.508,3.5139,3.478,3.4142,3.352,3.2164,0.0,0.0,0.0,0.0,0.0,0.0,0.0,0.0,0.0,0.0,0.0,0.0,0.0,0.0,0.0,0.0,0.0,0.0,0.0,0.0,0.0,0.0,0.0,0.0,0.0,0.0,0.0,0.0,2.5446,2.5859,2.6467,0.0,0.0,0.0,0.0,0.0,0.0,0.0,0.0,0.0,0.0,3.2332,3.2501,3.3589,0.0,0.0,3.4268,3.4069,3.3365,3.3466,3.3013,3.1254,3.0648,0.0,0.0,0.0,0.0,0.0,0.0,0.0,0.0,0.0,0.0,0.0,0.0,0.0,0.0,0.0,0.0,0.0,0.0,0.0,0.0,0.0,0.0,0.0,0.0,0.0,0.0,0.0,0.0,0.0,0.0,0.0,0.0,0.0,0.0,0.0,0.0,0.0,0.0,0.0,0.0,0.0,0.0,0.0,0.0,0.0,0.0,0.0,0.0,0.0,0.0,0.0,0.0,3.1219,3.3195,3.3592,3.447,3.5827,3.5644,3.5232,3.4546,3.4058,3.2743,0.0,0.0,0.0,0.0,0.0,0.0,0.0,0.0,0.0,0.0,0.0,0.0,0.0,0.0,0.0,0.0,0.0,0.0,0.0,0.0,0.0,0.0,0.0,0.0,0.0,0.0,0.0,0.0,2.6272,2.664,2.7074,0.0,0.0,0.0,0.0,0.0,0.0,0.0,0.0,0.0,0.0,3.3598,3.3889,3.4634,3.5073,3.484,3.4792,3.4468,3.3729,3.37,3.3282,3.1645,0.0,0.0,0.0,0.0,0.0,0.0,0.0,0.0,0.0,0.0,0.0,0.0,0.0,0.0,0.0,0.0,0.0,0.0,0.0,0.0,0.0,0.0,0.0,0.0,0.0,0.0,0.0,3.2471,0.0,0.0,3.2441,0.0,0.0,0.0,0.0,0.0,0.0,0.0,0.0,0.0,0.0,0.0,0.0,0.0,0.0,0.0,0.0,0.0,0.0,0.0,0.0,0.0,0.0,3.2132,3.4118,3.3637,3.4091,3.543,3.489,3.4214,3.3477,3.34,3.2714,3.1201,0.0,0.0,0.0,0.0,0.0,0.0,0.0,0.0,0.0,0.0,0.0,0.0,0.0,0.0,0.0,0.0,0.0,0.0,0.0,0.0,0.0,0.0,0.0,0.0,0.0,0.0,2.7331,2.7469,2.7494,0.0,0.0,0.0,0.0,0.0,0.0,0.0,0.0,0.0,3.2137,3.3902,3.5307,3.5869,3.6167,3.6108,3.5722,3.5345,3.4496,3.28,3.3396,3.3278,0.0,0.0,0.0,0.0,0.0,0.0,0.0,0.0,0.0,0.0,0.0,0.0,0.0,0.0,0.0,0.0,0.0,0.0,0.0,0.0,0.0,0.0,0.0,0.0,0.0,0.0,0.0,3.4734,3.4936,0.0,0.0,0.0,0.0,0.0,0.0,0.0,0.0,0.0,0.0,0.0,3.6647,3.6698,0.0,0.0,0.0,0.0,0.0,0.0,0.0,0.0,0.0,0.0,0.0,0.0,3.1709,3.3412,3.3187,3.3584,3.4782,3.4628,3.415,3.3413,3.3398,3.2726,3.1255,0.0,0.0,0.0,0.0,0.0,0.0,0.0,0.0,0.0,0.0,0.0,0.0,0.0,0.0,0.0,0.0,0.0,0.0,0.0,0.0,0.0,0.0,0.0,0.0,0.0,2.7665,0.0,0.0,0.0,0.0,0.0,0.0,0.0,0.0,0.0,0.0,3.0776,3.1893,3.2996,3.4341,3.5239,3.5173,3.5948,3.6356,0.0,0.0,0.0,0.0,0.0,0.0,0.0,0.0,0.0,0.0,0.0,0.0,0.0,0.0,3.0163,2.8862,2.8624,2.855,2.8225,0.0,0.0,0.0,0.0,0.0,0.0,0.0,0.0,0.0,0.0,0.0,0.0,0.0,0.0,3.6453,3.6414,3.6183,0.0,0.0,0.0,0.0,0.0,0.0,0.0,0.0,3.6854,3.7526,3.7965,3.8,3.8107,0.0,3.7593,3.6646,0.0,0.0,0.0,0.0,0.0,0.0,0.0,0.0,3.2394,3.3659,3.3313,3.3548,3.439,3.419,3.3849,3.3383,3.3367,3.2908,3.1944,3.0793,3.022,0.0,0.0,0.0,0.0,0.0,0.0,0.0,0.0,0.0,0.0,0.0,0.0,0.0,0.0,0.0,0.0,0.0,0.0,0.0,0.0,0.0,0.0,0.0,2.8107,0.0,0.0,0.0,0.0,0.0,0.0,0.0,0.0,0.0,3.1072,3.2094,3.3197,3.4079,3.5077,3.5707,3.5654,0.0,0.0,0.0,0.0,0.0,0.0,0.0,3.471,3.3876,3.4103,3.4134,3.3275,3.3063,3.3001,3.304,0.0,0.0,3.0101,2.9948,2.9999,2.9591,2.976,2.9799,2.9335,2.8524,2.7879,0.0,0.0,0.0,0.0,3.556,0.0,0.0,0.0,3.8331,3.8134,0.0,3.7548,0.0,0.0,0.0,0.0,3.5275,3.6504,0.0,0.0,3.911,3.9723,3.9157,3.9749,4.0113,4.0096,3.9335,3.874,3.8157,3.6257,0.0,0.0,0.0,0.0,0.0,0.0,3.4201,3.4649,3.4094,3.3989,3.4379,3.3746,3.3367,3.3335,3.3335,3.3335,3.3272,3.1991,3.1688,3.251,3.056,0.0,0.0,0.0,0.0,0.0,0.0,0.0,0.0,0.0,0.0,0.0,0.0,0.0,0.0,0.0,0.0,0.0,0.0,0.0,0.0,2.8732,0.0,0.0,0.0,0.0,0.0,0.0,0.0,0.0,0.0,3.3188,3.1902,3.3366,3.479,3.5432,0.0,0.0,0.0,0.0,3.6676,3.6307,3.5942,3.5423,3.4445,3.5224,3.5604,3.4483,0.0,0.0,3.5366,3.4872,3.4386,3.3853,3.3447,3.2689,3.1227,3.1427,3.1549,3.0851,3.1047,3.1373,3.1311,3.0378,2.97,4.1212,0.0,0.0,0.0,0.0,3.9243,3.9995,4.1027,4.0849,4.0587,4.018,3.9834,0.0,0.0,0.0,0.0,0.0,0.0,3.8231,3.8764,3.9326,4.0014,4.0696,4.0391,4.0459,4.0849,4.0121,3.9716,3.9497,3.8439,3.6877,3.489,0.0,0.0,0.0,0.0,3.4576,3.502,3.5038,3.5282,3.5706,3.5003,3.4323,3.3815,3.3799,3.3799,3.3783,3.3129,3.2789,3.2878,3.2001,0.0,0.0,0.0,0.0,0.0,0.0,0.0,0.0,0.0,0.0,0.0,0.0,0.0,0.0,0.0,0.0,0.0,0.0,0.0,2.9339,2.9496,2.9556,0.0,0.0,0.0,0.0,0.0,0.0,0.0,0.0,0.0,3.451,3.529,3.5977,0.0,0.0,3.6241,3.6046,3.672,3.7198,3.708,3.7775,0.0,3.7302,3.7254,3.711,3.643,3.6251,3.6338,3.6733,3.5699,3.4845,3.5022,3.4487,3.3701,3.2804,3.254,3.2446,3.211,3.2149,3.2057,3.149,3.0834,3.0369,4.4857,4.2914,4.1329,4.0813,4.1062,4.137,4.2046,4.2937,4.2748,4.2319,4.1719,4.129,4.0081,3.8301,3.7964,0.0,0.0,0.0,3.9142,3.9826,3.9843,4.0248,4.09,4.0509,4.0451,4.0713,4.0333,4.0113,4.0096,3.9343,3.8052,3.6249,0.0,3.5374,3.5233,3.5605,3.5893,3.6107,3.6274,3.6315,3.6168,3.5413,3.4946,3.4799,3.4497,3.4366,3.435,3.3824,3.3672,3.3888,3.3067,3.2302,0.0,0.0,0.0,0.0,0.0,0.0,0.0,0.0,0.0,0.0,0.0,3.047,2.9971,0.0,0.0,0.0,2.9857,2.9951,3.0208,3.0225,0.0,0.0,0.0,0.0,0.0,0.0,0.0,3.4023,3.5463,3.6537,3.6954,3.7411,3.754,3.7126,3.686,3.6585,3.629,0.0,3.7228,3.6957,3.7691,3.8018,3.736,3.7292,3.7307,3.7292,3.6871,3.6622,3.7059,3.631,3.5754,3.5726,3.5243,3.4615,3.4219,3.3885,3.3329,3.2697,3.2608,3.25,3.1884,3.128,3.0806,4.7668,4.6639,4.3565,4.227,4.227,4.2976,4.3352,4.3435,4.4127,4.3556,4.2113,4.2096,4.1441,4.0237,3.945,0.0,3.954,3.9592,3.9952,4.0511,4.0504,4.0397,4.0217,4.0243,4.0203,4.0086,4.0104,4.0096,4.0079,3.9368,3.865,3.8024,3.7802,3.7442,3.7012,3.7399,3.758,3.7533,3.7517,3.7043,3.6073,3.5402,3.5335,3.5941,3.5302,3.4947,3.4954,3.4306,3.4349,3.5207,3.3902,3.305,3.2824,0.0,0.0,0.0,0.0,0.0,0.0,0.0,0.0,0.0,0.0,0.0,0.0,0.0,0.0,0.0,3.0841,0.0,3.134,3.0935,0.0,0.0,0.0,3.1883,3.3498,3.4558,3.5502,3.6427,0.0,0.0,3.8988,3.943,3.9286,3.8137,3.7677,3.7442,3.7413,3.7344,3.7056,3.6612,3.6574,3.6472,3.622,3.6405,3.6847,3.7295,3.7375,3.7143,3.6832,3.6625,3.6514,3.6146,3.5648,3.529,3.5497,3.4939,3.422,3.2857,3.2691,3.2712,3.2254,3.1551,3.0841,4.7742,4.6886,4.6625,4.6212,4.5699,4.5876,4.5652,4.5121,4.528,4.4483,4.2992,4.2975,4.2229,4.0877,4.0661,4.0636,4.0724,4.1269,4.1219,4.0678,4.0639,4.0167,3.9354,3.9784,3.9921,3.9815,4.009,4.0255,4.0204,3.9393,3.8903,3.8717,3.8152,3.7219,3.603,3.6645,3.7283,3.7793,3.781,3.7415,3.6649,3.6441,3.6154,3.5694,3.5525,3.5424,3.5441,3.5273,3.5279,3.5509,3.5189,3.4695,3.4083,3.3354,0.0,0.0,0.0,0.0,0.0,0.0,0.0,0.0,0.0,3.2433,3.1798,0.0,3.3388,0.0,3.2194,3.2137,3.2793,3.2259,0.0,0.0,3.3878,3.4639,3.507,3.6333,3.7273,3.7506,3.8406,3.8988,3.8988,3.9564,3.9893,3.9558,3.8712,3.7966,3.7605,3.788,3.8059,3.7903,3.7851,3.7907,3.7628,3.7397,3.7214,3.7389,3.7015,3.6683,3.6567,3.6149,3.5788,3.564,3.5288,3.5028,3.5073,3.4738,3.4407,3.3929,3.3151,3.2324,3.1915,3.0932,3.0019,4.8372,4.756,4.7955,4.7901,4.7503,4.7071,4.6444,4.5691,4.5673,4.4799,4.3298,4.3187,4.2559,4.1631,4.1792,4.1792,4.1629,4.2019,4.1905,4.1372,4.1372,4.0999,4.0341,4.0691,4.0534,3.9993,4.0182,3.9976,3.9453,3.8901,3.8448,3.8007,3.7601,3.6806,3.5684,3.6721,3.7483,3.7905,3.7567,3.7516,3.7719,3.6789,3.6214,3.6129,3.5769,3.5616,3.5616,3.5616,3.5616,3.5616,3.5616,3.5109,3.4066,3.3626,3.2916,0.0,0.0,0.0,0.0,0.0,0.0,0.0,0.0,0.0,0.0,0.0,3.4163,3.3406,3.2709,3.2615,3.3339,3.3034,3.3203,3.4264,3.5109,3.5971,3.7009,3.7872,3.8514,3.8836,3.9242,3.9503,3.9503,3.9842,4.0113,4.0096,3.947,3.8892,3.8595,3.8766,3.8768,3.8421,3.8447,3.8277,3.7855,3.7442,3.7068,3.6806,3.6484,3.6225,3.6076,3.5759,3.5489,3.5472,3.5326,3.518,3.5148,3.5016,3.4898,3.4754,3.3936,3.3016,3.2544,3.1505,3.0529,4.8985,4.8324,4.8324,4.8324,4.823,4.7309,4.648,4.5706,4.5616,4.4739,4.3307,4.3077,4.275,4.24,4.2788,4.275,4.238,4.2378,4.2286,4.2177,4.2177,4.2045,4.1836,4.1866,4.1363,4.0306,4.0266,3.9669,3.8572,3.8299,3.7763,3.7002,3.6837,3.6418,3.5801,3.7051,3.7665,3.7601,3.7144,3.7472,3.8497,3.662,3.5926,3.6592,3.5977,3.5616,3.5616,3.5616,3.5616,3.5616,3.5616,3.5008,3.3757,3.3592,3.2966,0.0,3.1529,0.0,0.0,0.0,0.0,0.0,0.0,0.0,0.0,3.4609,3.4478,3.3812,3.3168,3.3079,3.3804,3.3867,3.4382,3.5718,3.5988,3.684,3.8717,3.9073,3.9402,4.0028,4.0113,4.0113,4.0079,4.0113,4.0113,4.007,3.9986,3.9807,3.9737,3.9567,3.9243,3.8556,3.8538,3.8215,3.7352,3.7029,3.6831,3.6273,3.6071,3.5882,3.5666,3.5479,3.5449,3.5474,3.5457,3.5472,3.5504,3.5489,3.5457,3.5424,3.4747,3.4054,3.3482,3.2527,3.1612,4.8453,4.8324,4.8324,4.8324,4.825,4.7417,4.661,4.5806,4.5167,4.4346,4.3469,4.343,4.3339,4.3268,4.3321,4.3321,4.3232,4.325,4.2832,4.2032,4.2032,4.1633,4.0926,4.1316,4.1075,4.0261,4.0519,4.0247,3.9365,3.8512,3.8023,3.7825,3.7037,3.6565,3.6426,0.0,0.0,0.0,3.7144,3.7229,3.6276,3.5836,3.5667,3.5802,3.5684,0.0,3.5616,3.5616,3.5616,3.5616,3.5616,0.0,0.0,0.0,0.0,0.0,0.0,0.0,0.0,0.0,0.0,0.0,3.472,3.4644,3.4197,3.5229,3.5899,3.5761,3.5476,3.5591,3.6336,3.6243,3.6502,3.7364,3.799,3.8548,3.8971,3.9537,3.996,4.0079,4.0113,4.0113,4.0113,4.0113,4.0113,4.0096,4.007,4.0062,4.0037,3.9821,3.9601,3.9415,3.8947,3.8286,3.7592,3.7383,3.7221,3.6752,3.6242,3.5952,3.5854,3.5377,3.5175,3.5404,3.5489,3.5489,3.5489,3.5489,3.5489,3.5489,3.5335,3.4901,3.389,3.2906,3.1887,4.8324,4.8324,4.8324,4.8324,0.0,4.7021,4.6287,4.5847,4.5057,4.425,4.3497,4.3479,4.3479,4.3479,4.3479,4.3479,4.3479,4.3479,4.3243,4.2753,4.2753,4.25,4.2047,4.2304,4.176,4.0546,4.0671,3.9997,3.8644,3.8067,3.7932,3.8148,3.7248,3.6931,3.7192,3.6959,3.6847,3.6905,3.729,3.743,3.7263,3.6569,3.618,3.618,3.5802,0.0,0.0,0.0,0.0,0.0,0.0,0.0,0.0,3.4899,0.0,3.4322,3.4048,3.4057,3.4401,3.4671,3.4985,3.5449,3.5661,3.5584,3.5169,3.5976,3.6648,3.6991,3.6959,3.7189,3.7927,3.783,3.7934,3.8561,3.8962,3.9278,3.9545,3.9859,4.0096,4.0113,4.0113,4.0113,4.0113,4.0113,4.0113,4.0113,4.0113,4.0113,4.007,3.9986,3.9841,3.9729,3.9345,3.8799,3.8311,3.8141,3.7854,3.7247,3.6597,3.608,3.5738,3.5246,3.4984,3.5174,3.5362,3.5489,3.5489,3.5489,3.5489,3.5489,3.5489,3.535,3.4641,3.3842,3.2949,4.8453,4.8324,4.8324,4.8195,4.7957,4.6526,4.5736,4.5424,4.4782,0.0,0.0,4.3479,4.3479,4.3479,4.3479,4.3479,4.3479,4.3479,4.3479,4.3479,4.3479,4.3479,4.3479,4.3479,4.2567,4.0894,4.0808,3.9746,3.7844,3.7721,3.7935,3.8336,3.7583,3.7445,3.7921,3.7763,3.7979,3.8551,3.766,3.7604,3.8455,3.7335,3.6707,3.6724,3.6056,3.5734,3.5734,3.5761,3.5761,3.5734,3.5756,3.5577,3.5185,3.5176,3.5009,3.4607,3.4716,3.511,3.5721,3.5931,3.6139,3.6361,3.6542,3.6643,3.673,3.6946,3.7381,3.8135,3.8268,3.8576,3.9241,3.9221,3.9271,3.9731,3.98,3.9922,4.0226,4.0229,4.0246,4.0171,4.0121,4.0113,4.0113,4.0113,4.0113,4.0113,4.0113,4.0113,4.0113,4.0062,3.9961,3.9798,3.9547,3.9309,3.904,3.8876,3.8539,3.7825,3.7064,3.6364,3.5854,3.534,3.5048,3.5182,3.5337,3.5462,3.5489,3.5489,3.5489,3.5489,3.5489,3.5489,3.5412,3.483,3.4047,4.8967,4.8324,4.8324,4.7883,4.7204,4.6287,4.5112,4.3828,4.3735,4.3608,4.3479,4.3479,4.3479,4.3479,4.3479,4.3479,4.3479,4.3479,4.3479,4.3479,4.3479,4.3479,4.3479,4.3479,4.2653,4.1136,4.1062,4.0187,3.8677,3.8415,3.87,3.9201,3.8362,3.8151,3.8607,3.8621,3.9177,4.0257,3.8387,3.7145,3.6676,3.647,3.6367,3.635,3.6264,3.6195,3.6195,3.6364,3.6367,3.6216,3.6346,3.6336,3.6125,3.6253,3.6325,3.6261,3.6427,3.6597,3.6685,3.6895,3.7122,3.7361,3.7416,3.7718,3.8372,3.848,3.8838,3.9603,4.0028,4.0329,4.0468,4.0809,4.1042,4.1156,4.1191,4.1188,4.1053,4.0819,4.0587,4.0444,4.0263,4.0113,4.0113,4.0113,4.0113,4.0113,4.0113,4.0113,4.007,4.0011,3.991,3.9849,3.9642,3.9501,3.9352,3.9299,3.8996,3.8694,3.7744,3.7102,3.6947,3.607,3.5508,3.5779,3.5659,3.5539,3.5522,3.5489,3.5489,3.5489,3.5489,3.5489,3.5444,3.52,3.4651,4.8655,4.8324,4.8324,4.8104,4.7645,4.6416,4.4984,4.3534,4.3479,4.3479,4.3479,4.3479,4.3479,4.3479,4.3479,4.3479,4.3479,4.3479,4.3479,4.3479,4.3479,4.3479,4.3479,4.3479,4.2671,4.1168,4.1113,4.0286,3.8839,3.908,3.9621,4.0255,4.0072,3.9896,3.9678,3.9567,3.9774,4.0295,3.9142,3.8517,3.8463,3.7662,3.7227,3.721,3.6844,3.6618,3.6618,3.6719,3.6719,3.6618,3.6719,3.6759,3.6816,3.6878,3.6993,3.7147,3.7319,3.7431,3.7449,3.7631,3.781,3.7916,3.7916,3.8438,3.9643,3.9641,3.9926,4.0679,4.1332,4.1718,4.1736,4.1872,4.1881,4.1735,4.1717,4.1626,4.1383,4.1082,4.0849,4.0652,4.0395,4.0188,4.0113,4.0113,4.0113,4.0113,4.0113,4.0113,4.0113,4.0003,3.9884,3.9884,3.9781,3.9642,3.9511,3.9475,3.9245,3.8887,3.8117,3.7496,3.7208,3.6403,3.6035,3.5922,3.5826,3.5767,3.5765,3.5619,3.5522,3.5489,3.5489,3.54,3.504,3.4442,3.3612,4.8636,4.8324,4.8324,4.8085,4.7627,4.603,4.4635,4.3534,4.3479,4.3479,4.3479,4.3479,4.3479,4.3479,4.3479,4.3479,4.3479,4.3479,4.3479,4.3479,4.3479,4.3479,4.3461,4.3349,4.2488,4.1242,4.1113,4.0361,3.9203,3.979,4.0402,4.0926,4.1504,4.1415,4.0782,4.0618,4.0578,4.0682,4.0294,4.0106,4.0169,3.8886,3.8201,3.8128,3.7459,3.7054,3.7054,3.7092,3.7111,3.7073,3.7092,3.7169,3.7264,3.7338,3.7449,3.7649,3.7864,3.7969,3.7969,3.8124,3.8209,3.8209,3.8209,3.8862,4.0257,4.0402,4.0761,4.1626,4.2291,4.2632,4.2595,4.2532,4.2333,4.2133,4.2113,4.205,4.176,4.1366,4.1042,4.0873,4.0517,4.0213,4.0138,4.0113,4.018,4.0324,4.0231,4.0146,4.0273,4.0138,3.9952,3.9926,3.9875,3.972,3.9511,3.9475,3.9299,3.8942,3.8433,3.797,3.748,3.7004,3.6569,3.6357,3.6199,3.6086,3.602,3.5797,3.5619,3.5537,3.5489,3.5295,3.4668,3.3544,3.2676,4.9664,4.8416,4.8324,4.7443,4.6049,4.4452,4.3681,4.3497,4.3479,4.3479,4.3479,4.3479,4.3479,4.3479,4.3479,4.3479,4.3479,4.3479,4.3479,4.3479,4.3479,4.3479,4.3387,4.2763,4.1956,4.115,4.1095,4.0634,3.979,4.0598,4.1026,4.1071,4.1645,4.1975,4.1848,4.1831,4.2159,4.2887,4.2159,4.1197,4.0058,3.9221,3.8793,3.8716,3.795,3.754,3.7593,3.7739,3.7721,3.7558,3.7721,3.7721,3.7595,3.7739,3.7846,3.7863,3.8073,3.8175,3.8175,3.8174,3.8209,3.8209,3.8209,3.8844,4.0311,4.0492,4.1144,4.2356,4.2809,4.2862,4.2881,4.2843,4.2787,4.2729,4.2749,4.2729,4.2434,4.1903,4.1388,4.1169,4.0573,4.0096,4.0113,4.0113,4.035,4.0781,4.051,4.0417,4.0832,4.0629,4.0231,4.0096,3.9815,3.9614,3.9534,3.9422,3.9325,3.9202,3.898,3.8707,3.8458,3.7905,3.7293,3.7279,3.6722,3.6352,3.6223,3.5957,3.5812,3.5659,3.5519,3.528,3.4563,3.344,3.2646,4.893,4.8324,4.8324,4.737,4.5847,4.4672,4.3938,4.3497,4.3479,4.3479,4.3479,4.3479,4.3479,4.3479,4.3479,4.3479,4.3479,4.3479,4.3479,4.3479,4.3479,4.324,4.2782,4.247,4.1644,4.0524,4.0857,4.0689,4.023,4.1185,4.2031,4.2455,4.2769,4.2863,4.2847,4.2829,4.2976,4.3178,4.294,4.2541,4.1832,4.0655,3.995,3.9752,3.9103,3.8706,3.8689,3.8741,3.8543,3.8041,3.8453,3.8543,3.7987,3.8056,3.809,3.809,3.8158,3.8209,3.8209,3.8209,3.8209,3.8209,3.8209,3.8844,4.0311,4.0492,4.1162,4.2593,4.2919,4.2919,4.2919,4.2919,4.2919,4.2919,4.2919,4.2881,4.2786,4.2074,4.1561,4.1361,4.07,4.0188,4.0138,4.0113,4.0231,4.0561,4.0561,4.0849,4.1153,4.1288,4.1221,4.089,4.0894,4.0574,3.991,3.959,3.9484,3.9392,3.9555,3.971,3.9367,3.9048,3.86,3.8376,3.7371,3.6785,3.6887,3.6167,3.5726,3.5729,3.525,3.4801,3.4563,3.344,3.2691,4.8508,4.8288,4.8067,4.7186,4.5847,4.5039,4.425,4.3534,4.3479,4.3479,4.3479,4.3479,4.3479,4.3479,4.3479,4.3479,4.3479,4.3479,4.3479,4.3479,4.3479,4.3185,4.2616,4.2139,4.1497,4.0744,4.0928,4.1038,4.0983,4.1992,4.2928,4.3424,4.3479,4.3462,4.3429,4.3411,4.3375,4.3304,4.3375,4.3358,4.3068,4.1917,4.1008,4.0562,3.9653,3.9162,3.9095,3.9096,3.8825,3.8263,3.8753,3.8825,3.8263,3.8209,3.8209,3.8209,3.8209,3.8209,3.8209,3.8209,3.8209,3.8209,3.8209,3.8844,4.0112,4.0492,4.1234,4.2647,4.2919,4.2919,4.2919,4.2919,4.2919,4.2919,4.2919,4.2919,4.2862,4.2239,4.169,4.1279,4.0579,4.0088,3.9925,4.0002,4.018,4.0476,4.0696,4.1035,4.1153,4.1424,4.1416,4.1001,4.1261,4.1088,4.0217,4.0003,3.9847,3.9814,4.0105,4.0133,3.9944,3.9723,3.9657,3.9124,3.7864,3.7157,3.7311,3.665,3.5944,3.6106,3.5639,3.4771,3.4548,3.3499,3.2856,4.9058,4.8233,4.7461,4.6673,4.5828,4.5002,4.4232,4.3479,4.3479,4.3479,4.3479,4.3479,4.3479,4.3479,4.3479,4.3479,4.3479,4.3479,4.3516,4.3552,4.3552,4.3515,4.3349,4.1919,4.1535,4.1901,4.1442,4.1864,4.3129,4.3349,4.3461,4.3479,4.3479,4.3479,4.3479,4.3497,4.3479,4.3462,4.3497,4.3444,4.3265,4.2584,4.1655,4.0663,3.9249,3.847,3.8436,3.8315,3.8263,3.8227,3.8317,3.8282,3.8209,3.8209,3.8209,3.8209,3.8209,3.8209,3.8209,3.8209,3.8209,3.8209,3.8227,3.8844,4.0293,4.0492,4.1234,4.2756,4.2919,4.2919,4.2919,4.2919,4.2919,4.2919,4.2919,4.2919,4.2919,4.2458,4.1715,4.0867,4.0222,3.9817,3.9394,3.9739,4.0333,4.0696,4.0561,4.0485,4.1001,4.073,4.0536,4.0417,4.0443,4.0392,4.0768,4.046,4.0384,4.029,4.0093,4.0199,4.0084,3.9979,4.0057,3.9825,3.8631,3.7916,3.7826,3.7446,3.6844,3.6535,3.6061,3.54,3.5087,3.4083,3.344,4.8581,4.8177,4.6893,4.6159,4.5773,4.4488,4.3772,4.3497,4.3479,4.3479,4.3479,4.3479,4.3479,4.3479,4.3479,4.3479,4.3479,4.3479,4.3773,4.4213,4.4268,4.4268,4.414,4.313,4.2451,4.2249,4.2029,4.2433,4.3369,4.3479,4.3479,4.3479,4.3479,4.3479,4.3479,4.3479,4.3479,4.3479,4.3479,4.3242,4.2729,4.1939,4.1099,4.0262,3.9613,3.9203,3.9135,3.907,3.8802,3.8294,3.8697,3.8734,3.8281,3.8209,3.8209,3.8209,3.8209,3.8209,3.8209,3.8209,3.8209,3.8209,3.8209,3.8844,4.013,4.0546,4.118,4.2484,4.2919,4.2919,4.2919,4.2919,4.2919,4.2919,4.2919,4.2919,4.2825,4.246,4.1789,4.0757,3.9966,3.9505,3.9744,3.9968,4.0197,4.0468,4.0646,4.0865,4.1136,4.1288,4.1213,4.0984,4.117,4.1407,4.105,4.0507,4.0122,4.0097,4.0047,4.0265,4.0266,4.0138,4.0139,3.9666,3.8766,3.8072,3.7748,3.7617,3.7164,3.7102,3.6582,3.6222,3.5833,3.4891,3.4262,4.8324,4.8141,4.715,4.6361,4.5773,4.4745,4.3956,4.3534,4.3479,4.3479,4.3479,4.3479,4.3479,4.3479,4.3479,4.3479,4.3479,4.3497,4.3808,4.4305,4.4581,4.4709,4.458,4.3883,4.3368,4.3057,4.28,4.3001,4.3424,4.3479,4.3479,4.3479,4.3479,4.3479,4.3479,4.3479,4.3479,4.3479,4.3479,4.3204,4.2616,4.1644,4.0838,4.0288,3.9745,3.9388,3.927,3.9172,3.8904,3.8485,3.8784,3.8787,3.8281,3.8209,3.8209,3.8209,3.8209,3.8209,3.8209,3.8209,3.8209,3.8209,3.8245,3.8844,4.0293,4.0492,4.1289,4.2448,4.2919,4.2919,4.2919,4.2919,4.2919,4.2919,4.2919,4.2919,4.2882,4.2302,4.1345,4.0207,3.933,3.9204,3.9696,3.9952,4.0079,4.0113,4.057,4.0815,4.0933,4.1187,4.1467,4.0984,4.1102,4.1111,4.0849,4.0307,4.0321,4.0333,4.0264,4.0434,4.0364,4.0243,4.0074,3.9523,3.8811,3.8087,3.7681,3.7597,3.7594,3.7633,3.7479,3.7135,3.6507,3.5791,3.5117,4.8324,4.8288,4.825,4.726,4.6067,4.5663,4.4874,4.3718,4.3515,4.3479,4.3479,4.3479,4.3479,4.3479,4.3479,4.3479,4.3479,4.3479,4.3606,4.3791,4.447,4.4856,4.4856,4.4158,4.4011,4.4397,4.3791,4.3516,4.3717,4.3606,4.3497,4.3534,4.3533,4.3479,4.3479,4.3479,4.3479,4.3479,4.3479,4.3441,4.3277,4.1937,4.1113,4.0818,3.9591,3.8808,3.8583,3.8485,3.849,3.8419,3.8374,3.8294,3.8244,3.8281,3.8245,3.8245,3.8245,3.8263,3.8209,3.8209,3.8209,3.8228,3.8245,3.8952,4.0184,4.0583,4.127,4.2556,4.2919,4.2919,4.2919,4.2919,4.2919,4.2919,4.2919,4.2919,4.2736,4.1912,4.0726,3.9398,3.8677,3.8559,3.9149,3.9756,4.0096,4.0113,4.018,4.0265,4.0282,4.0417,4.0214,4.0197,4.0417,4.0536,4.0316,4.0121,4.0467,4.0701,4.0635,4.0652,4.0334,4.0177,4.043,3.9981,3.9084,3.835,3.7987,3.7931,3.8084,3.8142,3.8027,3.7883,3.721,3.6477,3.5791,4.8324,4.8213,4.7681,4.7223,4.6562,4.5553,4.4745,4.4268,4.3754,4.3479,4.3479,4.3479,4.3479,4.3479,4.3479,4.3479,4.3479,4.3497,4.3791,4.436,4.5131,4.581,4.6049,4.5516,4.4984,4.4617,4.3883,4.4085,4.4727,4.4047,4.3736,4.414,4.3773,4.3497,4.3516,4.3479,4.3479,4.3479,4.3479,4.324,4.2727,4.2194,4.1423,4.0359,3.9753,3.9261,3.8679,3.8528,3.8478,3.8478,3.8417,3.8338,3.8347,3.8751,3.877,3.8319,3.8752,3.8752,3.8281,3.8209,3.8209,3.8301,3.8663,3.9441,4.0401,4.0999,4.1741,4.2737,4.2919,4.2919,4.2919,4.2919,4.2919,4.2919,4.2919,4.2882,4.2626,4.129,4.0123,3.9613,3.8774,3.8741,3.95,4.0062,4.0096,4.0113,4.0113,4.0113,4.0113,4.0113,4.0113,4.0113,4.0113,4.0113,4.0113,4.0121,4.0324,4.0568,4.0639,4.0438,4.0154,4.0313,4.0553,4.0221,3.9344,3.8757,3.8394,3.8248,3.836,3.8597,3.8577,3.8257,3.7823,3.715,3.6327,4.8324,4.8251,4.7736,4.7369,4.7021,4.5957,4.5223,4.4745,4.4488,4.4048,4.3644,4.3828,4.3754,4.3534,4.3479,4.3479,4.3551,4.3773,4.4213,4.4764,4.5535,4.6195,4.6599,4.6177,4.548,4.469,4.3883,4.4176,4.5351,4.4507,4.436,4.4892,4.4635,4.4232,4.3975,4.3938,4.3828,4.3552,4.3479,4.3276,4.28,4.2451,4.1809,4.091,4.0506,4.0102,3.9609,3.9247,3.8886,3.8632,3.8481,3.837,3.8328,3.8679,3.8734,3.8462,3.8589,3.8698,3.8281,3.8209,3.8209,3.8354,3.8934,3.9713,4.0456,4.1234,4.2031,4.2719,4.2919,4.2919,4.2919,4.2919,4.2919,4.2919,4.2919,4.27,4.2242,4.1126,4.0194,3.9848,3.9284,3.9354,3.9831,4.0113,4.0113,4.0113,4.0113,4.0113,4.0113,4.0113,4.0113,4.0113,4.0113,4.0113,4.0113,4.0138,4.0214,4.0374,4.0464,4.0156,3.9787,4.034,4.0735,4.0003,3.9172,3.8828,3.8464,3.8304,3.8339,3.8655,3.896,3.8512,3.8018,3.7449,3.6686,4.8324,4.8324,4.8306,4.7846,4.7241,4.7021,4.6195,4.515,4.548,4.5002,4.4103,4.4488,4.4342,4.3735,4.3809,4.3828,4.3735,4.4452,4.4782,4.5076,4.5663,4.6177,4.6214,4.603,4.5608,4.5003,4.4103,4.4213,4.5406,4.5002,4.5186,4.5865,4.5773,4.5443,4.4727,4.4654,4.425,4.3571,4.3479,4.3478,4.3386,4.2818,4.2323,4.2158,4.1534,4.1077,4.0783,4.0251,3.9551,3.8823,3.8515,3.8352,3.8241,3.8245,3.8409,3.8408,3.8336,3.8553,3.8408,3.8572,3.8554,3.8645,3.9315,3.9786,4.0655,4.1451,4.2194,4.281,4.2919,4.2919,4.2919,4.2919,4.2919,4.2919,4.2919,4.248,4.151,4.1181,4.058,4.0027,3.9881,3.9893,3.9985,4.0096,4.0113,4.0113,4.0113,4.0113,4.0113,4.0113,4.0113,4.0113,4.0113,4.0316,4.0383,4.051,4.062,4.0922,4.086,4.0369,3.995,4.0427,4.0846,4.0081,3.93,3.8932,3.8686,3.8596,3.8674,3.9053,3.9005,3.8616,3.8227,3.7749,3.709,4.8324,4.8324,4.8324,4.8196,4.7902,4.7369,4.6874,4.6397,4.6049,4.5718,4.5333,4.548,4.5131,4.4488,4.4984,4.4966,4.469,4.5223,4.559,4.5718,4.6415,4.6746,4.6636,4.6195,4.6122,4.614,4.5094,4.5424,4.7113,4.6104,4.603,4.6709,4.6269,4.5571,4.4837,4.48,4.4287,4.3608,4.3497,4.3533,4.3461,4.3296,4.2873,4.2323,4.2103,4.1664,4.1187,4.091,4.012,3.882,3.8515,3.8382,3.8411,3.8766,3.897,3.9078,3.9514,3.9858,3.9822,3.9822,3.9858,3.9967,4.0492,4.118,4.1361,4.2122,4.2629,4.2919,4.2919,4.2919,4.2919,4.2919,4.2919,4.2919,4.2919,4.2498,4.1565,4.0633,4.0078,3.9852,3.9335,3.9465,3.9872,4.0113,4.0113,4.0113,4.0113,4.0113,4.0113,4.0113,4.0113,4.0113,4.0163,4.0476,4.0713,4.0865,4.1118,4.1553,4.1415,4.0927,4.0618,4.0635,4.0873,4.0703,3.9777,3.9232,3.9125,3.9029,3.9268,3.9284,3.9182,3.8867,3.8646,3.8272,3.7539,4.8142,4.7922,4.8177,4.8324,4.8269,4.7791,4.7406,4.7131,4.7003,4.6489,4.6122,4.6287,4.5957,4.5314,4.5663,4.5645,4.5351,4.6049,4.6379,4.6544,4.7223,4.7571,4.7406,4.6801,4.6654,4.6911,4.5847,4.6232,4.7333,4.6819,4.6892,4.7406,4.7168,4.6489,4.5847,4.5682,4.5131,4.425,4.3993,4.3883,4.3516,4.3479,4.3294,4.2855,4.2782,4.2433,4.1754,4.1607,4.0822,3.9459,3.896,3.886,3.8813,3.8821,3.9078,3.9368,3.9822,4.0003,4.0111,4.0293,4.0492,4.0619,4.1234,4.1614,4.1813,4.2429,4.2919,4.2919,4.2919,4.2919,4.2919,4.2919,4.2919,4.2919,4.2919,4.2626,4.2022,4.1548,4.0971,4.056,4.011,3.968,4.0153,4.0096,4.0113,4.0113,4.0113,4.0113,4.0113,4.013,4.0197,4.0299,4.0519,4.0882,4.1255,4.1441,4.1863,4.2281,4.2422,4.1849,4.1083,4.09,4.0751,4.0689,4.0054,3.9564,3.9374,3.915,3.8987,3.8998,3.9128,3.8953,3.8552,3.8332,3.7659,4.7849,4.7335,4.794,4.8233,4.8306,4.8288,4.7865,4.7461,4.7902,4.7462,4.6636,4.6948,4.6746,4.603,4.6305,4.614,4.6085,4.6837,4.7149,4.7424,4.7846,4.8196,4.8048,4.7314,4.7131,4.7168,4.6434,4.6617,4.7259,4.7296,4.759,4.8031,4.8177,4.7792,4.6966,4.6911,4.6232,4.5094,4.4819,4.458,4.414,4.403,4.392,4.3644,4.3369,4.3094,4.2598,4.2359,4.1669,3.9984,3.9803,3.9683,3.9492,3.8842,3.8989,3.9568,3.9822,3.9786,3.993,4.0619,4.0782,4.1035,4.156,4.1813,4.2031,4.2556,4.2919,4.2919,4.2919,4.2919,4.2919,4.2919,4.2919,4.2919,4.2919,4.2919,4.2973,4.2863,4.2464,4.185,4.1657,4.1001,4.0536,4.0231,4.0265,4.0493,4.0493,4.062,4.0739,4.0908,4.0857,4.0756,4.1018,4.1373,4.1728,4.2049,4.2574,4.3071,4.3331,4.2932,4.1574,4.1144,4.0773,4.0448,4.0167,3.9742,3.9283,3.9047,3.887,3.8767,3.8895,3.8439,3.7981,3.7843,3.7389,4.7427,4.7316,4.7463,4.783,4.8269,4.8306,4.8214,4.8048,4.8214,4.8067,4.7847,4.7957,4.7572,4.6874,4.7352,4.748,4.6966,4.7609,4.8049,4.8048,4.814,4.8306,4.814,4.7516,4.7498,4.7645,4.7204,4.7278,4.7828,4.7976,4.8122,4.8269,4.8269,4.7921,4.7259,4.7168,4.6654,4.5792,4.5645,4.5535,4.5314,4.5204,4.4947,4.4415,4.3846,4.3442,4.3296,4.324,4.2729,4.1784,4.1005,4.0645,4.0431,4.0109,4.0256,4.0691,4.0564,4.0782,4.1705,4.1633,4.1723,4.2194,4.2357,4.2629,4.2647,4.2737,4.2919,4.2919,4.2919,4.2919,4.2919,4.2919,4.2919,4.2919,4.2919,4.3173,4.3461,4.2641,4.2279,4.2648,4.2014,4.1127,4.0985,4.0959,4.095,4.095,4.1068,4.1238,4.1407,4.1576,4.1508,4.1339,4.1745,4.2134,4.2472,4.2811,4.3234,4.3623,4.3893,4.3933,4.2587,4.1873,4.166,4.1128,4.0484,4.0082,3.9836,3.9145,3.8967,3.885,3.8821,3.8715,3.8466,3.7986,3.7593,4.7592,4.7353,4.7629,4.7977,4.8269,4.8324,4.8324,4.8324,4.8324,4.8324,4.8324,4.8324,4.8049,4.77,4.8086,4.8031,4.7847,4.8067,4.8306,4.8288,4.8306,4.8306,4.8288,4.7938,4.7901,4.8233,4.7901,4.7975,4.8214,4.8324,4.8288,4.8324,4.8324,4.8141,4.7718,4.7645,4.7241,4.6636,4.6452,4.6305,4.5957,4.5883,4.5516,4.4856,4.4268,4.3938,4.3497,4.3461,4.3242,4.2805,4.2279,4.1755,4.1267,4.0888,4.1017,4.1433,4.1379,4.1361,4.2013,4.2339,4.2448,4.2828,4.2919,4.2919,4.2919,4.2919,4.2919,4.2919,4.2919,4.2919,4.2919,4.2919,4.2919,4.2919,4.2919,4.3371,4.4038,4.3032,4.2167,4.2863,4.2259,4.1598,4.135,4.156,4.1711,4.1711,4.1711,4.1863,4.1847,4.1999,4.2066,4.2117,4.254,4.2912,4.3267,4.3572,4.3876,4.4113,4.4265,4.4193,4.3541,4.3076,4.2791,4.2038,4.1266,4.109,4.0769,3.9973,3.9391,3.9407,3.9469,3.9408,3.9247,3.8892,3.8591,4.7666,4.7169,4.7647,4.7959,4.8142,4.8142,4.8105,4.8142,4.8269,4.8324,4.8324,4.8324,4.8269,4.8288,4.8288,4.8324,4.8251,4.8067,4.8031,4.8287,4.8324,4.8324,4.8288,4.8251,4.8214,4.8306,4.8233,4.8288,4.8288,4.8324,4.8324,4.8324,4.8324,4.8251,4.8269,4.8251,4.7939,4.737,4.7278,4.7076,4.6562,4.6434,4.6049,4.5406,4.4984,4.4507,4.3975,4.3773,4.3644,4.3497,4.3446,4.2957,4.2249,4.1578,4.1288,4.1923,4.1759,4.1813,4.2085,4.2393,4.2629,4.2847,4.2919,4.2919,4.2919,4.2919,4.2919,4.2919,4.2919,4.2919,4.2919,4.2919,4.2919,4.2955,4.2973,4.3769,4.4563,4.3764,4.3262,4.3339,4.3249,4.2745,4.2279,4.2219,4.2354,4.2482,4.2472,4.2506,4.2523,4.2625,4.2828,4.2997,4.342,4.3572,4.3876,4.3944,4.4327,4.4412,4.4547,4.4378,4.4193,4.3945,4.3485,4.2802,4.2194,4.1969,4.1559,4.0823,4.0375,4.0252,4.0145,4.0118,4.0,3.9798,3.9498,4.6501,4.642,4.5867,4.637,4.7462,4.75,4.75,4.7555,4.8105,4.8306,4.8324,4.8324,4.8324,4.8324,4.8324,4.8324,4.8158,4.7884,4.7791,4.8213,4.8324,4.8324,4.8324,4.8324,4.8324,4.8324,4.8324,4.8324,4.8324,4.8324,4.8324,4.8324,4.8324,4.8324,4.8324,4.8306,4.8251,4.8012,4.7957,4.7829,4.7719,4.7609,4.7278,4.6489,4.5957,4.5314,4.469,4.447,4.4213,4.3606,4.3497,4.3391,4.3103,4.2778,4.2668,4.2577,4.2159,4.2067,4.2484,4.2194,4.2375,4.2683,4.2919,4.2919,4.2919,4.2919,4.2919,4.2919,4.2919,4.2919,4.2919,4.2955,4.2955,4.3082,4.3535,4.424,4.4923,4.4847,4.4589,4.4994,4.4616,4.4028,4.3494,4.3155,4.3314,4.3379,4.3288,4.3481,4.3656,4.3819,4.4022,4.4147,4.4316,4.4412,4.4479,4.4445,4.453,4.4513,4.4581,4.4581,4.4457,4.4508,4.4114,4.3418,4.2953,4.2657,4.2147,4.1633,4.1403,4.1292,4.1067,4.0877,4.0865,4.0815,4.0297,4.6576,4.622,4.5813,4.6316,4.7241,4.7334,4.7519,4.783,4.8178,4.8324,4.8324,4.8324,4.8324,4.8324,4.8324,4.8324,4.8177,4.7976,4.7976,4.8288,4.8324,4.8324,4.8324,4.8324,4.8324,4.8324,4.8324,4.8324,4.8324,4.8324,4.8324,4.8324,4.8324,4.8324,4.8324,4.8324,4.8324,4.8324,4.8324,4.8324,4.8324,4.8324,4.7865,4.7186,4.6727,4.614,4.5498,4.5333,4.5168,4.4764,4.436,4.4177,4.396,4.3615,4.3251,4.3087,4.2667,4.2485,4.2829,4.2502,4.2574,4.281,4.2919,4.2919,4.2919,4.2919,4.2919,4.2919,4.2937,4.31,4.348,4.3172,4.3317,4.3951,4.4204,4.4711,4.5468,4.5653,4.6028,4.6342,4.5505,4.4839,4.4483,4.4294,4.4367,4.4289,4.4126,4.4298,4.4564,4.4598,4.4598,4.4598,4.4581,4.4581,4.4598,4.4598,4.4598,4.4598,4.4598,4.4598,4.4598,4.457,4.4457,4.4069,4.3687,4.3339,4.3188,4.2834,4.2567,4.2311,4.2147,4.2013,4.1938,4.1755,4.1247,4.6818,4.6409,4.5945,4.6372,4.7242,4.7131,4.7463,4.8051,4.8289,4.8343,4.8324,4.8324,4.8324,4.8269,4.8159,4.8122,4.8213,4.8159,4.8067,4.8288,4.8324,4.8324,4.8324,4.8324,4.8324,4.8324,4.8324,4.8324,4.8324,4.8324,4.8324,4.8324,4.8324,4.8324,4.8324,4.8324,4.8324,4.8324,4.8324,4.8324,4.8324,4.8288,4.803,4.7406,4.7333,4.6966,4.6232,4.614,4.5975,4.5663,4.5278,4.4929,4.4819,4.4289,4.3761,4.3433,4.3232,4.3067,4.2957,4.2901,4.281,4.2919,4.2919,4.2919,4.2919,4.2919,4.2919,4.2919,4.3155,4.3389,4.3824,4.3716,4.4059,4.4711,4.4892,4.5019,4.6015,4.6512,4.675,4.6655,4.6023,4.5641,4.5316,4.4897,4.4825,4.4724,4.4562,4.4355,4.4598,4.4598,4.4598,4.4598,4.4598,4.4598,4.4598,4.4598,4.4598,4.4598,4.4598,4.4598,4.4598,4.4598,4.4457,4.4361,4.4333,4.4018,4.4007,4.3871,4.3487,4.321,4.3177,4.3057,4.292,4.267,4.2249,4.6687,4.709,4.5134,4.5521,4.7289,4.6809,4.6867,4.761,4.8237,4.8419,4.8324,4.8324,4.8324,4.8196,4.7626,4.7755,4.7957,4.7791,4.781,4.8251,4.8324,4.8324,4.8324,4.8324,4.8233,4.8195,4.8269,4.8324,4.8213,4.8213,4.8324,4.8324,4.8324,4.8324,4.8324,4.8324,4.8324,4.8324,4.8324,4.8324,4.8324,4.8324,4.8214,4.8141,4.8031,4.7737,4.7058,4.6929,4.6727,4.6122,4.5902,4.5755,4.5718,4.57,4.515,4.4419,4.3688,4.3104,4.3067,4.2975,4.2919,4.2919,4.2919,4.2919,4.2919,4.2919,4.2919,4.2937,4.3481,4.4041,4.4403,4.4657,4.5037,4.5454,4.5798,4.5979,4.6631,4.7047,4.7322,4.7355,4.6859,4.6491,4.6164,4.567,4.5233,4.5125,4.4944,4.4731,4.4598,4.4598,4.4598,4.4598,4.4598,4.4598,4.4598,4.4598,4.4598,4.4598,4.4598,4.4598,4.4598,4.4598,4.4598,4.4536,4.4542,4.4468,4.4294,4.4175,4.4123,4.397,4.3688,4.3718,4.3785,4.3479,4.3035,4.6578,4.6943,4.5876,4.624,4.7489,4.7175,4.7403,4.7997,4.8366,4.8438,4.8324,4.8324,4.8324,4.8214,4.7883,4.7976,4.8158,4.7901,4.7957,4.8233,4.8324,4.8324,4.8324,4.8269,4.8177,4.7883,4.7975,4.7957,4.792,4.8103,4.8324,4.8324,4.8324,4.8324,4.8324,4.8324,4.8324,4.8324,4.8324,4.8324,4.8324,4.8324,4.8324,4.8324,4.8324,4.8086,4.7846,4.7755,4.7645,4.7186,4.6911,4.6562,4.6452,4.6177,4.5663,4.5425,4.4949,4.4199,4.3323,4.3122,4.3012,4.2901,4.2919,4.2919,4.2919,4.2955,4.3173,4.357,4.3878,4.444,4.5091,4.5309,4.5888,4.6323,4.654,4.6776,4.7047,4.7355,4.7642,4.7678,4.7657,4.7173,4.6707,4.6123,4.5673,4.5511,4.5142,4.4692,4.4598,4.4598,4.4598,4.4598,4.4598,4.4598,4.4598,4.4598,4.4598,4.4598,4.4598,4.4598,4.4598,4.4598,4.4598,4.4598,4.457,4.4497,4.4468,4.4423,4.4333,4.4236,4.4138,4.4097,4.4027,4.3852,4.3462,4.7007,4.7436,4.6789,4.7038,4.786,4.771,4.7938,4.8495,4.8513,4.8438,4.8325,4.8324,4.8324,4.8306,4.8269,4.8251,4.8306,4.8324,4.8324,4.8324,4.8324,4.8324,4.8324,4.8269,4.8031,4.7388,4.8067,4.8049,4.7884,4.7976,4.8324,4.8324,4.8324,4.8324,4.8324,4.8324,4.8324,4.8324,4.8324,4.8324,4.8324,4.8324,4.8324,4.8324,4.8324,4.8324,4.8324,4.8268,4.8232,4.8067,4.7719,4.7388,4.7314,4.7021,4.6544,4.6287,4.5993,4.5406,4.4363,4.3742,4.3322,4.3048,4.2919,4.2919,4.2918,4.3009,4.3335,4.3987,4.4693,4.5399,4.6051,4.6069,4.6613,4.6993,4.7153,4.7352,4.7497,4.7645,4.7699,4.7699,4.7657,4.7575,4.7062,4.6478,4.6098,4.5925,4.5425,4.4731,4.4598,4.4598,4.4598,4.4598,4.4598,4.4598,4.4598,4.4598,4.4598,4.4598,4.4598,4.4598,4.4598,4.4598,4.4598,4.4598,4.4598,4.457,4.4525,4.4542,4.4542,4.4412,4.4327,4.4224,4.4138,4.401,4.3864,4.8434,4.9257,4.7354,4.7389,4.8619,4.7966,4.8026,4.855,4.8569,4.8421,4.8306,4.8324,4.8324,4.8324,4.8324,4.8324,4.8324,4.8324,4.8324,4.8324,4.8324,4.8324,4.8324,4.8288,4.8196,4.7976,4.8196,4.8233,4.8158,4.8049,4.8269,4.8324,4.8324,4.8324,4.8324,4.8324,4.8324,4.8324,4.8324,4.8324,4.8324,4.8324,4.8324,4.8324,4.8324,4.8324,4.8324,4.8324,4.8324,4.8287,4.8141,4.8067,4.7957,4.7865,4.748,4.7131,4.7021,4.6433,4.5589,4.4674,4.3907,4.3359,4.3084,4.3082,4.3137,4.3679,4.4023,4.4367,4.5327,4.6087,4.6685,4.7065,4.7337,4.7428,4.7482,4.7536,4.7627,4.7645,4.7699,4.7699,4.7657,4.7554,4.7151,4.6525,4.6109,4.5885,4.5284,4.4598,4.4598,4.4598,4.4598,4.4598,4.4598,4.4598,4.4598,4.4598,4.4598,4.4598,4.4598,4.4598,4.4598,4.4598,4.4598,4.4598,4.4598,4.4598,4.4598,4.457,4.457,4.4542,4.4468,4.4355,4.4253,4.4155,4.4097,4.8371,4.8641,4.8309,4.8468,4.8801,4.8019,4.8044,4.8457,4.8088,4.8071,4.8324,4.8324,4.8324,4.8324,4.8324,4.8324,4.8324,4.8324,4.8324,4.8324,4.8324,4.8324,4.8324,4.8141,4.7847,4.7388,4.7719,4.7627,4.6856,4.7829,4.8251,4.8324,4.8361,4.8324,4.8324,4.8324,4.8324,4.8324,4.8324,4.8324,4.8324,4.8324,4.8324,4.8324,4.8324,4.8324,4.8324,4.8324,4.8324,4.8324,4.8324,4.8324,4.8288,4.8288,4.8048,4.7718,4.7645,4.7222,4.658,4.5699,4.4856,4.4069,4.3794,4.372,4.3663,4.4006,4.4729,4.5381,4.6069,4.6685,4.7283,4.75,4.7645,4.7699,4.7699,4.7699,4.7699,4.7699,4.7699,4.7699,4.7636,4.7551,4.7062,4.6543,4.6133,4.5751,4.5096,4.4598,4.4598,4.4598,4.4598,4.4598,4.4598,4.4598,4.4598,4.4598,4.4598,4.4598,4.4598,4.4598,4.4598,4.4598,4.4598,4.4598,4.4598,4.4598,4.4598,4.4598,4.457,4.457,4.4525,4.444,4.4355,4.4298,4.4241,4.8497,4.8307,4.9027,4.9193,4.8833,4.8296,4.8135,4.8216,4.7977,4.7924,4.8324,4.8324,4.8324,4.8324,4.8324,4.8324,4.8324,4.8324,4.8324,4.8324,4.8324,4.8324,4.8324,4.8196,4.7865,4.704,4.7425,4.7645,4.7058,4.7847,4.8196,4.8379,4.8545,4.8618,4.8324,4.8324,4.8324,4.8324,4.8324,4.8324,4.8324,4.8324,4.8324,4.8324,4.8324,4.8324,4.8324,4.8324,4.8324,4.8324,4.8324,4.8324,4.8233,4.8122,4.7957,4.7883,4.7719,4.7407,4.7002,4.6267,4.5497,4.4874,4.4707,4.4632,4.4592,4.4717,4.5604,4.6219,4.6687,4.7102,4.7717,4.7699,4.7699,4.7699,4.7699,4.7699,4.7699,4.7699,4.7699,4.7699,4.7554,4.732,4.6765,4.62,4.5649,4.5319,4.4961,4.4598,4.4598,4.4598,4.4598,4.4598,4.4598,4.4598,4.4598,4.4598,4.4598,4.4598,4.4598,4.4598,4.4598,4.4598,4.4598,4.4598,4.4598,4.4598,4.4598,4.4598,4.4598,4.4598,4.4575,4.4598,4.4497,4.4412,4.44,4.9064,4.8523,4.919,4.9252,4.8925,4.8872,4.8374,4.7807,4.8143,4.831,4.8306,4.8324,4.8324,4.8324,4.8324,4.8324,4.8324,4.8324,4.8324,4.8324,4.8324,4.8324,4.8324,4.8233,4.8031,4.8213,4.8251,4.8159,4.7921,4.8141,4.8288,4.8563,4.8893,4.915,4.8434,4.8343,4.8343,4.8343,4.8398,4.8324,4.8324,4.8324,4.8324,4.8324,4.8324,4.8324,4.8324,4.8324,4.8324,4.8324,4.8324,4.8324,4.8288,4.7608,4.7369,4.7388,4.6654,4.6581,4.6984,4.6268,4.5974,4.5772,4.5623,4.5566,4.5711,4.6053,4.6484,4.6919,4.7239,4.7539,4.7717,4.7699,4.7699,4.7699,4.7699,4.7699,4.7699,4.7699,4.7699,4.7657,4.732,4.6949,4.6387,4.5811,4.515,4.4803,4.4665,4.4598,4.4598,4.4598,4.4598,4.4598,4.4598,4.4598,4.4598,4.4598,4.4598,4.4598,4.4598,4.4598,4.4598,4.4598,4.4598,4.4598,4.4598,4.4598,4.4598,4.4598,4.4598,4.4615,4.475,4.4756,4.4654,4.4637,4.4682,4.9796,4.9481,4.9532,4.9408,4.9102,4.8581,4.8025,4.7532,4.7574,4.7867,4.8251,4.8324,4.8324,4.8324,4.8324,4.8324,4.8324,4.8324,4.8324,4.8324,4.8324,4.8324,4.8324,4.8269,4.8067,4.7791,4.7902,4.7994,4.7388,4.8012,4.8288,4.8526,4.915,4.9664,4.9719,4.9536,4.917,4.906,4.8691,4.8324,4.8324,4.8324,4.8324,4.8324,4.8324,4.8324,4.8324,4.8324,4.8324,4.8324,4.8324,4.8324,4.8196,4.7553,4.7351,4.7516,4.7131,4.7094,4.7626,4.7534,4.7184,4.6817,4.6559,4.6483,4.6478,4.6586,4.6984,4.7383,4.7629,4.7842,4.784,4.7738,4.7717,4.7699,4.7699,4.7699,4.7699,4.7699,4.7678,4.7575,4.7341,4.6631,4.5995,4.558,4.4978,4.4709,4.4626,4.4598,4.4598,4.4598,4.4598,4.4598,4.4598,4.4598,4.4598,4.4598,4.4598,4.4598,4.4598,4.4598,4.4598,4.4598,4.4598,4.4598,4.4598,4.4598,4.4598,4.4598,4.4598,4.4649,4.4886,4.4869,4.4666,4.4807,4.5099,4.9594,4.9568,4.9768,4.9674,4.9321,4.8648,4.8146,4.7757,4.739,4.7591,4.8196,4.8324,4.8324,4.8324,4.8324,4.8324,4.8324,4.8324,4.8324,4.8324,4.8324,4.8324,4.8324,4.8343,4.8379,4.8012,4.8031,4.8085,4.8177,4.8214,4.8508,4.8893,4.9297,5.0141,5.0453,5.0253,4.9519,4.928,4.882,4.8324,4.8324,4.8324,4.8324,4.8324,4.8324,4.8324,4.8324,4.8324,4.8324,4.8324,4.8324,4.8324,4.8086,4.7718,4.7443,4.7535,4.7535,4.7369,4.7626,4.8159,4.7772,4.7532,4.7478,4.7421,4.7324,4.7378,4.7559,4.7848,4.7949,4.7966,4.7925,4.7804,4.778,4.778,4.7738,4.7738,4.7699,4.7699,4.7678,4.7575,4.7147,4.6411,4.5692,4.5319,4.4869,4.4737,4.4643,4.4598,4.4598,4.4598,4.4598,4.4598,4.4598,4.4598,4.4598,4.4598,4.4598,4.4598,4.4598,4.4598,4.4598,4.4598,4.4598,4.4598,4.4598,4.4598,4.4598,4.4598,4.4598,4.479,4.5162,4.501,4.4699,4.4902,4.5246,4.8575,4.8897,4.9856,5.0,4.9569,4.9001,4.8659,4.8403,4.7647,4.7684,4.8288,4.8324,4.8324,4.8324,4.8324,4.8324,4.8324,4.8324,4.8324,4.8324,4.8324,4.8324,4.8324,4.8324,4.8471,4.8802,4.8802,4.8508,4.9243,4.8893,4.893,4.9353,4.9774,5.051,5.0749,5.0473,4.9849,4.9646,4.9095,4.8581,4.8379,4.8453,4.8453,4.8416,4.8324,4.8324,4.8324,4.8324,4.8324,4.8324,4.8324,4.8324,4.8048,4.7516,4.7259,4.7131,4.7131,4.7333,4.748,4.8086,4.8233,4.8085,4.8158,4.825,4.8176,4.7988,4.8042,4.8076,4.8108,4.805,4.801,4.7947,4.7884,4.7842,4.778,4.7759,4.7738,4.7738,4.7699,4.7468,4.6967,4.6291,4.5529,4.5042,4.4841,4.4776,4.4682,4.4598,4.4598,4.4598,4.4598,4.4598,4.4598,4.4598,4.4598,4.4598,4.4598,4.4598,4.4598,4.4598,4.4598,4.4598,4.4598,4.4598,4.4598,4.4598,4.4598,4.4598,4.4598,4.4857,4.5111,4.5026,4.4649,4.4869,4.5077,4.9087,4.9856,5.0038,5.0012,4.9805,4.9249,4.8836,4.8495,4.7684,4.7684,4.8324,4.8324,4.8324,4.8324,4.8324,4.8324,4.8324,4.8324,4.8324,4.8324,4.8324,4.8324,4.8324,4.8343,4.8508,4.8563,4.8545,4.8489,4.8765,4.8783,4.8746,4.882,5.005,5.0639,5.0528,5.0362,5.0325,5.0068,4.9389,4.882,4.86,4.8746,4.8655,4.8453,4.8324,4.8324,4.8324,4.8324,4.8324,4.8324,4.8324,4.8324,4.8232,4.7553,4.7113,4.7186,4.7535,4.7957,4.7994,4.8177,4.8324,4.8324,4.8324,4.8324,4.8287,4.8267,4.8248,4.8208,4.8187,4.811,4.809,4.8048,4.7988,4.7947,4.7904,4.7842,4.7822,4.778,4.772,4.7338,4.6829,4.6144,4.5372,4.5005,4.4858,4.4776,4.4709,4.4626,4.4598,4.4598,4.4598,4.4598,4.4598,4.4598,4.4598,4.4598,4.4598,4.4598,4.4598,4.4598,4.4598,4.4598,4.4598,4.4598,4.4598,4.4598,4.4598,4.4598,4.4598,4.4598,4.4784,4.4733,4.4733,4.4886,4.4953,4.8967,5.019,5.0095,4.9946,4.9759,4.9377,4.9023,4.8691,4.807,4.8015,4.8288,4.8324,4.8324,4.8324,4.8324,4.8324,4.8324,4.8324,4.8324,4.8324,4.8324,4.8324,4.8324,4.8343,4.86,4.8563,4.8545,4.8545,4.871,4.8746,4.871,4.8545,5.0105,5.005,4.9904,5.0014,5.0196,4.9921,4.9462,4.8857,4.8746,4.8838,4.86,4.8453,4.8324,4.8324,4.8324,4.8324,4.8324,4.8324,4.8324,4.8324,4.8268,4.781,4.759,4.77,4.792,4.8214,4.8233,4.8269,4.8324,4.8324,4.8324,4.8324,4.8287,4.8248,4.8247,4.8246,4.8207,4.8187,4.8149,4.813,4.811,4.809,4.8028,4.7947,4.7904,4.7842,4.7551,4.7187,4.6643,4.5995,4.545,4.5113,4.4858,4.4831,4.4748,4.4626,4.4598,4.4598,4.4598,4.4598,4.4598,4.4598,4.4598,4.4598,4.4598,4.4598,4.4598,4.4598,4.4598,4.4598,4.4598,4.4598,4.4598,4.4598,4.4598,4.4598,4.4598,4.4649,4.4682,4.4699,4.4733,4.4767,4.4767,4.8371,5.0176,5.0089,4.9887,4.9612,4.9427,4.9239,4.9055,4.8641,4.8438,4.8363,4.8306,4.8324,4.8324,4.8324,4.8324,4.8324,4.8324,4.8324,4.8324,4.8324,4.8324,4.8288,4.8251,4.8398,4.8783,4.8765,4.8288,4.8948,4.9022,4.8765,4.8361,4.8893,4.9187,4.937,4.9647,4.9701,4.9352,4.893,4.8416,4.8416,4.8379,4.8361,4.8324,4.8324,4.8324,4.8324,4.8324,4.8324,4.8324,4.8324,4.8324,4.8288,4.8251,4.8214,4.8214,4.8251,4.8288,4.8324,4.8324,4.8324,4.8324,4.8324,4.8324,4.8287,4.8229,4.8228,4.8207,4.8187,4.8148,4.811,4.809,4.809,4.8068,4.8008,4.7966,4.7925,4.7801,4.7533,4.7187,4.6788,4.6151,4.5632,4.5274,4.5005,4.4951,4.4776,4.4626,4.4598,4.4598,4.4598,4.4598,4.4598,4.4598,4.4598,4.4598,4.4598,4.4598,4.4598,4.4598,4.4598,4.4598,4.4598,4.4598,4.4598,4.4598,4.4598,4.4598,4.4699,4.4891,4.4891,4.4801,4.4801,4.4919,4.475,4.8049,4.9423,5.0007,5.0101,4.9874,4.965,4.9358,4.9087,4.8838,4.8624,4.8457,4.8363,4.8324,4.8324,4.8324,4.8324,4.8324,4.8324,4.8324,4.8324,4.8324,4.8324,4.8196,4.7901,4.8048,4.8104,4.8049,4.7901,4.8545,4.8838,4.8893,4.8545,4.904,4.9536,4.882,4.9169,4.9372,4.882,4.8691,4.8398,4.8343,4.882,4.9077,4.86,4.8324,4.8324,4.8324,4.8324,4.8324,4.8324,4.8324,4.8324,4.8306,4.8324,4.8324,4.8324,4.8324,4.8324,4.8324,4.8324,4.8324,4.8324,4.8324,4.8324,4.8286,4.8228,4.8169,4.8168,4.8148,4.809,4.805,4.805,4.805,4.8028,4.7988,4.7966,4.7925,4.772,4.7472,4.7191,4.6903,4.6411,4.5862,4.5494,4.523,4.5005,4.4765,4.4615,4.4598,4.4598,4.4598,4.4598,4.4598,4.4598,4.4598,4.4598,4.4598,4.4598,4.4598,4.4598,4.4598,4.4598,4.4598,4.4598,4.4598,4.4666,4.4699,4.4632,4.4784,4.5196,4.5399,4.5382,4.5365,4.5449,4.5106,4.7256,4.8367,4.8763,4.8801,4.8654,4.8832,4.8836,4.8688,4.8742,4.8733,4.8606,4.8457,4.8382,4.8382,4.8343,4.8324,4.8324,4.8324,4.8324,4.8324,4.8324,4.8324,4.8048,4.7773,4.803,4.8067,4.7535,4.7535,4.8232,4.8177,4.8159,4.8416,4.9352,4.9352,4.8434,4.9022,4.9132,4.8379,4.86,4.86,4.8398,4.8691,4.8857,4.8379,4.8324,4.8324,4.8324,4.8324,4.8324,4.8324,4.8324,4.8324,4.8324,4.8324,4.8324,4.8324,4.8324,4.8324,4.8324,4.8324,4.8324,4.8324,4.8324,4.8324,4.8287,4.8228,4.813,4.8128,4.807,4.803,4.8008,4.7988,4.801,4.801,4.799,4.7968,4.7824,4.7618,4.7407,4.7151,4.6835,4.6459,4.5988,4.5649,4.5363,4.5005,4.4765,4.4615,4.4598,4.4598,4.4598,4.4598,4.4598,4.4598,4.4598,4.4598,4.4598,4.4598,4.4598,4.4598,4.4598,4.4598,4.4598,4.4682,4.4784,4.4869,4.4869,4.5021,4.5432,4.6007,4.6092,4.6075,4.6058,4.6007,4.572,4.6355,4.7359,4.7305,4.7085,4.6937,4.76,4.7982,4.8127,4.846,4.873,4.8787,4.8606,4.8532,4.8457,4.8363,4.8343,4.8324,4.8324,4.8324,4.8324,4.8324,4.8324,4.8251,4.8085,4.7975,4.7883,4.7571,4.7773,4.8268,4.8067,4.8031,4.8269,4.8324,4.8324,4.8526,4.8838,4.893,4.86,4.8636,4.8783,4.8581,4.8324,4.8343,4.8343,4.8324,4.8324,4.8324,4.8324,4.8324,4.8324,4.8324,4.8324,4.8324,4.8324,4.8324,4.8324,4.8324,4.8324,4.8324,4.8324,4.8324,4.8324,4.8324,4.8305,4.8287,4.8247,4.8149,4.809,4.805,4.799,4.7947,4.7945,4.7988,4.797,4.7949,4.7929,4.7744,4.7575,4.7385,4.7173,4.6926,4.6596,4.6144,4.5837,4.5468,4.5086,4.4831,4.4709,4.4598,4.4598,4.4598,4.4598,4.4598,4.4598,4.4598,4.4598,4.4598,4.4598,4.4598,4.4598,4.4598,4.4598,4.4682,4.4886,4.4959,4.5229,4.5551,4.5805,4.6295,4.6786,4.687,4.6853,4.6752,4.6667,4.6464,4.6252,4.7259,4.7205,4.6996,4.6829,4.6982,4.7308,4.7729,4.7867,4.8243,4.8728,4.8787,4.8679,4.8494,4.8363,4.8306,4.8324,4.8324,4.8324,4.8324,4.8324,4.8324,4.8195,4.7938,4.7443,4.7461,4.7736,4.8159,4.8233,4.8086,4.8104,4.8306,4.8324,4.8324,4.8343,4.8581,4.86,4.8434,4.8434,4.8526,4.8489,4.8324,4.8324,4.8324,4.8324,4.8324,4.8324,4.8324,4.8324,4.8324,4.8324,4.8324,4.8324,4.8324,4.8324,4.8324,4.8324,4.8324,4.8324,4.8324,4.8324,4.8324,4.8324,4.8324,4.8305,4.8305,4.8228,4.8169,4.811,4.8008,4.7966,4.7925,4.7927,4.7845,4.7822,4.7783,4.7699,4.7657,4.7575,4.749,4.7403,4.688,4.628,4.5928,4.5555,4.5177,4.4765,4.4626,4.4598,4.4598,4.4598,4.4615,4.4615,4.4598,4.4598,4.4598,4.4598,4.4598,4.4666,4.4818,4.4818,4.4615,4.475,4.5309,4.5585,4.5821,4.616,4.6599,4.7022,4.7462,4.7614,4.7648,4.7496,4.7394,4.7242]}]]